Date StartTime U_cm/s V_cm/s W_cm/s Ustd_cm/s Vstd_cm/s Wstd_cm/s Uvar_(cm/s)^2 Vvar_(cm/s)^2 Wvar_(cm/s)^2 KE_(m/s)^2 TurbulentKE_(m/s)^2 HorizWindSpeed_cm/s FrictionSpeec_cm/s DragCoef SpeedOfSound_m/s SonicTemperature_C Pressure_mb 
12/04/2013  00:00:00       11.583       10.391       -4.441       13.543        7.113        8.003      183.408       50.597       64.051        0.028        0.015       15.561        3.323        0.046      328.725       -4.991      854.752
12/04/2013  00:01:00       -3.381        2.906       -0.203        5.607        4.629        5.197       31.434       21.426       27.004        0.005        0.004        4.459        2.115        0.225      328.743       -4.964      854.742
12/04/2013  00:02:00       -8.346        3.381       -1.873        6.819        8.015        4.900       46.496       64.244       24.014        0.011        0.007        9.005        3.624        0.162      328.793       -4.881      854.750
12/04/2013  00:03:00       15.716       16.219       10.345       10.552        6.356        6.477      111.344       40.402       41.951        0.041        0.010       22.584        4.181        0.034      328.763       -4.930      854.787
12/04/2013  00:04:00       56.139       26.663       13.924       13.152       12.256       13.699      172.978      150.206      187.659        0.228        0.026       62.149        6.012        0.009      328.743       -4.961      854.819
12/04/2013  00:05:00       43.798       35.972       40.073       23.582       27.126       20.268      556.110      735.802      410.786        0.326        0.085       56.677       17.144        0.091      328.640       -5.130      854.832
12/04/2013  00:06:00       43.356       46.474       52.644       20.585       21.848       18.630      423.726      477.351      347.089        0.403        0.062       63.558       13.395        0.044      328.640       -5.129      854.834
12/04/2013  00:07:00       67.561       51.325       44.914       27.968       28.611       23.647      782.199      818.576      559.164        0.569        0.108       84.845       17.127        0.041      328.623       -5.156      854.833
12/04/2013  00:08:00       65.714       62.022       50.463       37.652       25.397       22.602     1417.699      644.997      510.842        0.664        0.129       90.361       14.163        0.025      328.617       -5.167      854.833
12/04/2013  00:09:00       48.831       41.990       44.414       25.847       25.114       17.156      668.054      630.705      294.339        0.386        0.080       64.402       13.735        0.045      328.607       -5.184      854.821
12/04/2013  00:10:00       33.392       -5.248       23.659       17.495       34.708       22.984      306.068     1204.664      528.249        0.187        0.102       33.802       21.716        0.413      328.627       -5.153      854.809
12/04/2013  00:11:00       23.657        7.185       20.872       23.467       18.190       17.908      550.694      330.879      320.708        0.112        0.060       24.724       16.923        0.469      328.583       -5.222      854.814
12/04/2013  00:12:00       12.865       38.105       26.062       20.437       22.086       17.936      417.680      487.793      321.687        0.176        0.061       40.218       18.277        0.207      328.614       -5.173      854.833
12/04/2013  00:13:00       10.582       44.146       -5.175       21.939       16.924       15.782      481.336      286.413      249.063        0.155        0.051       45.396       14.581        0.103      328.541       -5.291      854.854
12/04/2013  00:14:00       -0.258       26.788       -4.384       14.117       10.331        3.940      199.287      106.726       15.523        0.053        0.016       26.789        1.957        0.005      328.593       -5.206      854.839
12/04/2013  00:15:00      -37.275        1.513       -1.639       11.505       17.502       10.052      132.374      306.336      101.033        0.097        0.027       37.306        7.235        0.038      328.493       -5.370      854.817
12/04/2013  00:16:00      -54.865      -18.135       -1.739       20.822       19.317       16.578      433.572      373.152      274.835        0.221        0.054       57.785       10.917        0.036      328.353       -5.598      854.809
12/04/2013  00:17:00      -78.219       14.718      -11.995       23.738       24.569       17.815      563.514      603.625      317.361        0.398        0.074       79.592       12.671        0.025      328.344       -5.612      854.785
12/04/2013  00:18:00      -87.388       11.379      -16.048       38.547       32.367       19.456     1485.844     1047.612      378.521        0.547        0.146       88.125       18.040        0.042      328.231       -5.796      854.758
12/04/2013  00:19:00     -126.465       41.802      -10.925       41.037       24.012       24.567     1684.024      576.576      603.517        1.036        0.143      133.195       20.825        0.024      328.155       -5.920      854.734
12/04/2013  00:20:00     -119.562       26.751      -13.017       40.973       36.334       23.831     1678.809     1320.137      567.924        0.937        0.178      122.518       23.094        0.036      328.141       -5.942      854.721
12/04/2013  00:21:00     -128.866        4.858       -9.989       31.791       39.942       19.810     1010.651     1595.353      392.452        0.986        0.150      128.958        8.668        0.005      328.090       -6.026      854.705
12/04/2013  00:22:00      -84.592       -9.162        3.599       35.915       37.195       26.232     1289.870     1383.457      688.105        0.531        0.168       85.087       14.518        0.029      328.029       -6.126      854.687
12/04/2013  00:23:00     -159.278       26.486      -15.613       39.687       28.602       20.196     1575.056      818.101      407.884        1.456        0.140      161.466       19.598        0.015      327.988       -6.193      854.685
12/04/2013  00:24:00     -165.937       41.378      -18.221       23.973       25.058       16.101      574.727      627.921      259.246        1.552        0.073      171.018        9.135        0.003      327.973       -6.216      854.674
12/04/2013  00:25:00      -92.799       12.127      -10.037       30.582       34.101       17.651      935.246     1162.875      311.558        0.563        0.120       93.588        6.864        0.005      327.962       -6.234      854.662
12/04/2013  00:26:00     -128.488       46.613      -23.105       32.318       32.035       18.213     1044.441     1026.262      331.700        1.081        0.120      136.682       16.737        0.015      327.853       -6.411      854.661
12/04/2013  00:27:00     -127.916       41.965      -13.260       33.422       28.136       21.938     1117.027      791.637      481.285        1.034        0.119      134.624       14.034        0.011      327.774       -6.542      854.667
12/04/2013  00:28:00      -84.995      -18.285       -5.973       32.859       39.915       19.171     1079.731     1593.214      367.533        0.532        0.152       86.940       15.632        0.032      327.700       -6.662      854.657
12/04/2013  00:29:00      -77.734      -14.692        0.668       28.588       25.800       17.824      817.302      665.639      317.712        0.403        0.090       79.110       13.241        0.028      327.624       -6.784      854.643
12/04/2013  00:30:00      -42.671      -29.265       -3.943       17.691       12.014       12.449      312.957      144.338      154.971        0.165        0.031       51.742        7.457        0.021      327.679       -6.696      854.642
12/04/2013  00:31:00        2.767      -23.346        1.294       10.153        9.061        8.860      103.088       82.094       78.491        0.041        0.013       23.509        5.143        0.048      327.784       -6.524      854.629
12/04/2013  00:32:00      -27.463      -12.502       -1.311       34.662       14.704       10.684     1201.446      216.218      114.144        0.122        0.077       30.174       14.470        0.230      327.782       -6.527      854.619
12/04/2013  00:33:00      -89.510      -24.356       -4.491       39.619       30.144       18.212     1569.695      908.681      331.676        0.572        0.141       92.764       12.479        0.018      327.565       -6.881      854.620
12/04/2013  00:34:00       22.619      -40.342       -2.614       20.105       22.831       17.874      404.191      521.270      319.488        0.170        0.062       46.250       15.533        0.113      327.583       -6.851      854.620
12/04/2013  00:35:00       34.218       -1.610       10.184       32.262       43.132       31.886     1040.846     1860.357     1016.694        0.260        0.196       34.255       34.300        1.003      327.725       -6.621      854.643
12/04/2013  00:36:00      118.927       41.474       12.873       26.189       25.916       23.832      685.855      671.635      567.954        0.898        0.096      125.951       12.927        0.011      327.741       -6.594      854.708
12/04/2013  00:37:00      126.552       84.942       41.470       32.687       25.257       32.028     1068.420      637.921     1025.790        1.384        0.137      152.416       19.840        0.017      327.597       -6.829      854.759
12/04/2013  00:38:00      114.524       68.106       21.042       39.753       31.158       34.464     1580.333      970.849     1187.739        1.097        0.187      133.245       21.387        0.026      327.427       -7.105      854.792
12/04/2013  00:39:00      118.899       74.581       22.345       20.184       22.940       21.375      407.399      526.225      456.875        1.079        0.070      140.354       13.133        0.009      327.428       -7.103      854.810
12/04/2013  00:40:00       80.143       61.704       -0.123       19.008       16.656       13.597      361.293      277.438      184.866        0.553        0.041      101.145        9.002        0.008      327.526       -6.943      854.809
12/04/2013  00:41:00       82.211       60.708        3.002       24.737       23.619       15.615      611.912      557.863      243.828        0.593        0.071      102.196       13.632        0.018      327.732       -6.609      854.811
12/04/2013  00:42:00       85.148       59.609        5.603       27.290       22.333       20.040      744.719      498.772      401.594        0.624        0.082      103.940        9.423        0.008      327.681       -6.692      854.842
12/04/2013  00:43:00       87.519       59.194       10.684       26.299       17.757       15.384      691.641      315.322      236.666        0.626        0.062      105.658       10.383        0.010      327.703       -6.656      854.867
12/04/2013  00:44:00       81.505       40.634       11.964       25.249       18.856       17.532      637.509      355.555      307.363        0.487        0.065       91.073        6.672        0.005      327.696       -6.669      854.886
12/04/2013  00:45:00       89.053       56.015       16.672       32.027       30.146       20.034     1025.741      908.774      401.344        0.684        0.117      105.205        7.840        0.006      327.694       -6.671      854.901
12/04/2013  00:46:00      102.065       62.732       19.758       29.535       30.328       22.933      872.340      919.759      525.937        0.853        0.116      119.802       12.893        0.012      327.687       -6.683      854.914
12/04/2013  00:47:00       91.936       57.901        6.057       19.021       17.907       15.999      361.808      320.660      255.956        0.639        0.047      108.650       10.596        0.010      327.669       -6.713      854.936
12/04/2013  00:48:00       38.079       30.454        5.267       16.792       17.855       14.080      281.979      318.812      198.242        0.160        0.040       48.759       12.630        0.067      327.600       -6.824      854.939
12/04/2013  00:49:00       35.861       31.492        5.484       23.411       20.486       15.653      548.080      419.678      245.009        0.176        0.061       47.726       11.076        0.054      327.700       -6.663      854.944
12/04/2013  00:50:00       64.481       71.103        6.700       49.002       57.798       46.871     2401.239     3340.552     2196.917        0.860        0.397       95.986       43.077        0.201      327.758       -6.567      854.932
12/04/2013  00:51:00       65.029       75.002       11.321       63.737       50.709       34.710     4062.429     2571.422     1204.772        0.891        0.392       99.267       28.656        0.083      327.697       -6.667      854.930
12/04/2013  00:52:00       81.265       78.990       -0.466       34.083       34.147       30.070     1161.636     1166.031      904.213        0.804        0.162      113.329       18.006        0.025      327.666       -6.716      854.967
12/04/2013  00:53:00       43.032       67.886       -5.743       36.759       50.292       24.540     1351.192     2529.293      602.193        0.549        0.224       80.376       20.379        0.064      327.597       -6.829      855.005
12/04/2013  00:54:00       38.555      103.213       -4.042       37.939       62.822       39.019     1439.387     3946.610     1522.516        0.953        0.345      110.179       27.285        0.061      327.539       -6.921      855.035
12/04/2013  00:55:00       35.643       99.051      -12.822       38.156       33.308       27.728     1455.884     1109.432      768.848        0.729        0.167      105.269       23.444        0.050      327.478       -7.022      855.051
12/04/2013  00:56:00       54.045       58.359       -2.983       34.899       41.440       31.667     1217.914     1717.275     1002.804        0.514        0.197       79.540       26.979        0.115      327.481       -7.018      855.053
12/04/2013  00:57:00       25.324       49.124       -1.797       29.427       33.749       22.193      865.940     1139.002      492.517        0.278        0.125       55.267       23.550        0.182      327.471       -7.035      855.050
12/04/2013  00:58:00       35.328       65.130       -2.464       34.071       39.767       26.755     1160.863     1581.449      715.823        0.448        0.173       74.095       24.519        0.110      327.453       -7.063      855.055
12/04/2013  00:59:00       34.563       89.874      -12.681       32.659       34.190       21.708     1066.638     1168.939      471.220        0.607        0.135       96.291       20.736        0.046      327.498       -6.990      855.071
12/04/2013  01:00:00       50.037       72.441       -7.763       36.590       52.951       34.869     1338.810     2803.775     1215.814        0.658        0.268       88.042       33.668        0.146      327.567       -6.877      855.103
12/04/2013  01:01:00       97.017       59.161        3.631       29.943       21.249       20.604      896.606      451.519      424.518        0.735        0.089      113.632       15.493        0.019      327.546       -6.911      855.133
12/04/2013  01:02:00      107.076       73.529       14.270       36.916       25.195       22.999     1362.817      634.783      528.962        0.980        0.126      129.891        8.784        0.005      327.571       -6.870      855.168
12/04/2013  01:03:00      110.966       82.590       12.124       45.563       39.833       28.525     2076.019     1586.633      813.691        1.188        0.224      138.328       21.541        0.024      327.722       -6.625      855.192
12/04/2013  01:04:00       74.117       52.373        8.419       30.971       33.698       30.959      959.214     1135.554      958.465        0.568        0.153       90.754       25.910        0.082      327.725       -6.620      855.217
12/04/2013  01:05:00       88.520       48.304       21.124       51.254       27.668       28.197     2627.001      765.524      795.066        0.740        0.209      100.842       25.465        0.064      327.756       -6.570      855.245
12/04/2013  01:06:00       92.981       69.583       26.109       51.672       37.702       29.963     2670.026     1421.468      897.772        0.958        0.249      116.134       20.719        0.032      327.755       -6.572      855.266
12/04/2013  01:07:00      126.495       73.221       19.452       42.558       37.442       37.197     1811.209     1401.888     1383.604        1.317        0.230      146.158       18.817        0.017      327.766       -6.554      855.289
12/04/2013  01:08:00       86.875       63.740        5.691       35.955       34.590       20.863     1292.761     1196.486      435.261        0.728        0.146      107.750       13.310        0.015      327.770       -6.547      855.294
12/04/2013  01:09:00      112.895       46.111       23.748       54.250       37.832       35.262     2943.019     1431.268     1243.387        1.053        0.281      121.949       23.060        0.036      327.758       -6.568      855.316
12/04/2013  01:10:00      107.052       85.242       38.447       54.101       39.068       43.255     2926.931     1526.279     1871.010        1.326        0.316      136.845       34.930        0.065      327.746       -6.587      855.328
12/04/2013  01:11:00      119.462       69.179       35.448       69.697       42.730       44.581     4857.679     1825.854     1987.459        1.449        0.434      138.047       32.550        0.056      327.796       -6.506      855.336
12/04/2013  01:12:00      156.877       99.788       29.598       45.723       35.204       34.499     2090.558     1239.315     1190.215        1.998        0.226      185.925       22.622        0.015      327.805       -6.491      855.345
12/04/2013  01:13:00      181.434      133.093       19.924       50.696       42.845       40.193     2570.110     1835.685     1615.484        2.852        0.301      225.016       27.774        0.015      327.844       -6.432      855.354
12/04/2013  01:14:00      139.802       91.550       22.831       70.420       53.927       40.784     4958.997     2908.165     1663.324        1.899        0.477      167.111       34.241        0.042      327.904       -6.331      855.369
12/04/2013  01:15:00      158.153      104.550       31.451       41.746       35.303       36.964     1742.741     1246.275     1366.340        2.064        0.218      189.586       23.891        0.016      327.909       -6.323      855.372
12/04/2013  01:16:00      143.562       74.855       25.392       55.724       39.715       37.581     3105.127     1577.252     1412.316        1.648        0.305      161.906       24.451        0.023      328.050       -6.092      855.367
12/04/2013  01:17:00      125.182       85.599        9.719       53.650       39.074       35.099     2878.363     1526.774     1231.918        1.436        0.282      151.649       18.695        0.015      328.039       -6.109      855.369
12/04/2013  01:18:00       35.091       50.719       14.091       45.026       43.852       37.756     2027.318     1922.967     1425.536        0.469        0.269       61.675       30.508        0.245      328.056       -6.080      855.356
12/04/2013  01:19:00       13.143       75.246        2.383       28.540       35.861       26.167      814.513     1286.005      684.701        0.431        0.139       76.386       18.911        0.061      328.040       -6.108      855.351
12/04/2013  01:20:00       -5.833       43.236       -1.123       55.960       36.750       20.713     3131.477     1350.557      429.024        0.341        0.246       43.628       24.493        0.315      327.958       -6.239      855.338
12/04/2013  01:21:00      -30.757       87.842      -18.865       51.466       53.218       16.292     2648.758     2832.165      265.416        0.738        0.287       93.071       15.249        0.027      328.137       -5.949      855.341
12/04/2013  01:22:00       12.105       88.633       -1.421       27.497       42.212       31.446      756.103     1781.857      988.842        0.576        0.176       89.456       30.360        0.115      328.053       -6.087      855.349
12/04/2013  01:23:00       -0.258       98.996       -8.563       27.239       50.270       24.219      741.978     2527.072      586.580        0.686        0.193       98.996       29.462        0.089      328.019       -6.141      855.355
12/04/2013  01:24:00      -20.694      139.966      -17.646       30.022       41.127       19.077      901.334     1691.396      363.934        1.164        0.148      141.488       22.473        0.025      328.001       -6.170      855.349
12/04/2013  01:25:00        6.379      105.683      -13.129       24.339       51.726       19.807      592.379     2675.586      392.308        0.752        0.183      105.876       27.191        0.066      327.943       -6.266      855.351
12/04/2013  01:26:00      -34.323      115.983      -18.677       49.994       44.209       18.452     2499.354     1954.431      340.493        0.989        0.240      120.955       12.868        0.011      327.996       -6.178      855.345
12/04/2013  01:27:00      -59.894       41.036       -5.613       22.203       31.923       18.178      492.959     1019.096      330.446        0.357        0.092       72.603       16.091        0.049      328.047       -6.096      855.347
12/04/2013  01:28:00      -69.922       29.654       -2.049       41.329       18.457       15.651     1708.063      340.674      244.956        0.403        0.115       75.950       18.206        0.057      327.987       -6.194      855.348
12/04/2013  01:29:00      -88.836       27.727       -4.659       13.429       11.088        8.371      180.333      122.950       70.078        0.453        0.019       93.062        5.879        0.004      327.990       -6.191      855.358
12/04/2013  01:30:00      -93.496        2.601       -6.442       15.012       20.394        9.155      225.360      415.912       83.817        0.476        0.036       93.533        3.477        0.001      327.959       -6.240      855.388
12/04/2013  01:31:00      -64.952      -12.474      -17.317       19.526       17.174       14.554      381.278      294.959      211.817        0.278        0.044       66.139       11.211        0.029      327.972       -6.217      855.408
12/04/2013  01:32:00      -49.041       -0.387        2.782       48.153       41.851       22.157     2318.667     1751.534      490.913        0.349        0.228       49.043       17.565        0.128      328.057       -6.080      855.418
12/04/2013  01:33:00      -79.715       46.725      -12.723       39.566       21.664       19.474     1565.440      469.337      379.218        0.556        0.121       92.399        8.989        0.009      328.151       -5.926      855.415
12/04/2013  01:34:00     -135.568       79.499      -17.380       64.204       52.247       30.736     4122.105     2729.717      944.709        1.640        0.390      157.158       26.365        0.028      328.082       -6.039      855.398
12/04/2013  01:35:00     -122.019       20.782      -29.214       31.175       47.211       23.885      971.860     2228.875      570.515        0.997        0.189      123.776        9.584        0.006      328.038       -6.112      855.379
12/04/2013  01:36:00      -70.121       13.108       -3.031       48.584       35.481       24.589     2360.422     1258.894      604.636        0.466        0.211       71.335       15.426        0.047      328.098       -6.013      855.375
12/04/2013  01:37:00      -69.938       17.452       -5.599       36.137       34.247       17.289     1305.917     1172.874      298.919        0.400        0.139       72.083       14.986        0.043      328.092       -6.023      855.377
12/04/2013  01:38:00      -55.384        1.394       -7.388       23.377       17.579       17.366      546.490      309.009      301.565        0.214        0.058       55.402       15.129        0.075      328.017       -6.146      855.383
12/04/2013  01:39:00      -88.538       39.667       -5.624       64.278       45.826       26.186     4131.621     2100.032      685.726        0.818        0.346       97.018       22.881        0.056      328.053       -6.086      855.392
12/04/2013  01:40:00      -96.100       97.078      -20.491       42.336       49.702       28.965     1792.311     2470.271      838.983        1.209        0.255      136.599       23.209        0.029      328.147       -5.934      855.393
12/04/2013  01:41:00     -134.018       68.379      -21.634       47.062       74.355       34.536     2214.866     5528.719     1192.758        1.602        0.447      150.454       36.691        0.059      328.229       -5.802      855.409
12/04/2013  01:42:00      -87.043       78.468      -21.799       43.275       39.769       24.718     1872.699     1581.608      610.996        0.914        0.203      117.191       27.954        0.057      328.162       -5.909      855.410
12/04/2013  01:43:00      -65.285       57.167      -17.556       33.567       31.630       20.952     1126.719     1000.441      438.978        0.520        0.128       86.776       15.531        0.032      328.124       -5.970      855.421
12/04/2013  01:44:00      -79.608       88.278      -21.621       39.003       30.067       23.791     1521.253      904.040      566.004        0.879        0.150      118.872       21.345        0.032      328.143       -5.940      855.437
12/04/2013  01:45:00      -71.041       81.010      -20.175       24.972       41.886       17.303      623.595     1754.467      299.399        0.735        0.134      107.747       11.735        0.012      328.149       -5.928      855.443
12/04/2013  01:46:00      -63.564      -23.567       -4.150       24.662       21.074       15.577      608.191      444.127      242.653        0.295        0.065       67.792       12.936        0.036      328.159       -5.913      855.446
12/04/2013  01:47:00      -92.837       20.084      -16.685       25.279       60.874       15.850      639.019     3705.654      251.209        0.695        0.230       94.984       22.467        0.056      328.118       -5.980      855.460
12/04/2013  01:48:00      -32.230        1.072        2.983       38.110       38.288       21.869     1452.352     1465.938      478.250        0.222        0.170       32.248       18.007        0.312      328.085       -6.033      855.472
12/04/2013  01:49:00      -48.954        5.885      -11.070       32.512       20.839       20.584     1057.058      434.259      423.712        0.223        0.096       49.306       13.578        0.076      328.149       -5.931      855.489
12/04/2013  01:50:00       -7.408      -32.835       -5.216       34.205       19.375       23.183     1170.001      375.390      537.445        0.162        0.104       33.660       16.289        0.234      328.215       -5.824      855.498
12/04/2013  01:51:00      -88.825      -18.921       -4.420       51.346       34.434       25.393     2636.446     1185.681      644.820        0.637        0.223       90.818       23.314        0.066      328.110       -5.993      855.514
12/04/2013  01:52:00      -24.363       13.061       -1.434       26.340       28.313       16.454      693.795      801.634      270.726        0.127        0.088       27.643        9.147        0.109      328.016       -6.148      855.543
12/04/2013  01:53:00      -25.488      -40.167        1.816       24.878       21.827       15.274      618.908      476.432      233.290        0.180        0.066       47.572        7.192        0.023      328.086       -6.033      855.570
12/04/2013  01:54:00      -22.979      -25.446      -10.929       25.883       22.921       15.999      669.930      525.359      255.981        0.137        0.073       34.286       11.413        0.111      328.137       -5.949      855.596
12/04/2013  01:55:00        4.257       11.851        2.244       12.136        8.036        9.011      147.283       64.577       81.204        0.023        0.015       12.593        4.960        0.155      328.098       -6.013      855.609
12/04/2013  01:56:00      -27.342      -18.540       -6.791       17.181       16.677       12.107      295.185      278.137      146.585        0.093        0.036       33.035        9.857        0.089      328.104       -6.005      855.613
12/04/2013  01:57:00      -74.720        2.321       -2.646       15.043       18.342       17.306      226.279      336.428      299.513        0.323        0.043       74.756       11.040        0.022      328.112       -5.991      855.600
12/04/2013  01:58:00      -45.225       -2.824       -1.995       15.005       19.417       11.547      225.154      377.020      133.336        0.140        0.037       45.313        4.420        0.010      328.143       -5.941      855.597
12/04/2013  01:59:00      -41.577        1.179       -6.532       14.208       13.007       11.667      201.857      169.191      136.114        0.114        0.025       41.593        9.180        0.049      328.061       -6.073      855.593
12/04/2013  02:00:00      -77.298       -8.199      -12.603       14.175       25.729       12.453      200.919      662.001      155.075        0.361        0.051       77.731        9.290        0.014      328.052       -6.088      855.605
12/04/2013  02:01:00      -19.937       11.230       -1.696       20.000       12.198       11.390      400.001      148.798      129.734        0.060        0.034       22.882       13.757        0.361      327.978       -6.209      855.622
12/04/2013  02:02:00      -21.615       -1.173        3.684       12.845       23.675       13.322      165.007      560.490      177.476        0.069        0.045       21.647        7.185        0.110      328.037       -6.112      855.649
12/04/2013  02:03:00        1.177       10.693        3.994       18.659       12.325       14.263      348.177      151.917      203.444        0.042        0.035       10.758       14.368        1.784      327.936       -6.278      855.694
12/04/2013  02:04:00       31.189        2.275        0.599       12.657       24.548       11.771      160.190      602.623      138.559        0.094        0.045       31.272       14.143        0.205      327.981       -6.202      855.721
12/04/2013  02:05:00       -9.253      -22.893        1.050       19.362       25.301        9.573      374.875      640.131       91.637        0.086        0.055       24.692        8.755        0.126      328.004       -6.167      855.745
12/04/2013  02:06:00      -25.422        6.527        2.901       18.168       14.383       12.712      330.081      206.880      161.596        0.070        0.035       26.247        9.728        0.137      328.036       -6.113      855.758
12/04/2013  02:07:00      -12.335       12.516        2.984        8.629        9.132       11.946       74.457       83.387      142.709        0.031        0.015       17.572        5.758        0.107      327.937       -6.276      855.761
12/04/2013  02:08:00      -16.646        5.637        7.977       17.232       13.306       10.676      296.956      177.049      113.984        0.048        0.029       17.574        6.779        0.149      327.966       -6.228      855.756
12/04/2013  02:09:00      -14.642        9.218        2.883        8.439       11.801        7.842       71.220      139.264       61.491        0.029        0.014       17.302        5.473        0.100      327.874       -6.376      855.767
12/04/2013  02:10:00       19.900       23.436        3.776       19.580       19.531       13.032      383.367      381.466      169.844        0.095        0.047       30.745       11.816        0.148      327.861       -6.398      855.781
12/04/2013  02:11:00       15.614       36.235       -2.915       14.548       13.665       11.524      211.633      186.720      132.813        0.105        0.027       39.456        9.574        0.059      327.897       -6.341      855.799
12/04/2013  02:12:00      -37.876       29.770        2.745       44.185       29.291       16.264     1952.286      857.970      264.530        0.270        0.154       48.175       13.714        0.081      327.865       -6.394      855.824
12/04/2013  02:13:00     -100.166       28.280       -3.522       54.524       37.386       23.289     2972.883     1397.713      542.385        0.788        0.246      104.082       20.852        0.040      327.921       -6.302      855.842
12/04/2013  02:14:00      -11.074       89.180      -30.107       53.115       59.980       26.782     2821.183     3597.580      717.301        0.806        0.357       89.865       27.518        0.094      327.978       -6.210      855.849
12/04/2013  02:15:00      -70.839       22.459       -7.360       41.502       23.915       21.560     1722.390      571.907      464.813        0.417        0.138       74.314        9.322        0.016      327.954       -6.248      855.851
12/04/2013  02:16:00       -9.435        4.630        6.585       25.920       11.167       13.617      671.839      124.708      185.419        0.057        0.049       10.509       11.642        1.227      327.827       -6.454      855.839
12/04/2013  02:17:00      -22.796       79.382      -12.973       41.572       54.762       16.787     1728.193     2998.894      281.819        0.600        0.250       82.590       19.815        0.058      327.927       -6.292      855.846
12/04/2013  02:18:00      -70.868       82.768      -13.606       41.611       38.549       21.907     1731.499     1486.023      479.905        0.788        0.185      108.963       14.703        0.018      327.907       -6.325      855.851
12/04/2013  02:19:00     -115.303       36.640      -20.611       51.346       35.837       22.913     2636.382     1284.260      525.020        0.975        0.222      120.985       28.460        0.055      327.890       -6.352      855.866
12/04/2013  02:20:00     -186.006       13.270      -19.123       66.242       49.194       27.606     4387.951     2420.085      762.100        2.135        0.379      186.479       32.751        0.031      327.883       -6.364      855.886
12/04/2013  02:21:00     -118.390       44.047       -6.266       39.235       33.266       30.560     1539.388     1106.605      933.899        0.979        0.179      126.319       23.837        0.036      327.861       -6.399      855.909
12/04/2013  02:22:00      -81.051       12.010       -8.036       36.787       25.706       19.448     1353.280      660.794      378.240        0.458        0.120       81.936       16.154        0.039      327.872       -6.380      855.932
12/04/2013  02:23:00     -164.760       52.476      -22.503       52.210       49.222       26.360     2725.915     2422.809      694.861        1.812        0.292      172.915       16.378        0.009      327.863       -6.397      855.940
12/04/2013  02:24:00      -92.245       32.229       -8.106       40.892       48.349       26.967     1672.186     2337.651      727.225        0.717        0.237       97.713       17.066        0.031      327.846       -6.424      855.940
12/04/2013  02:25:00      -94.988       31.508       -7.128       36.892       40.683       27.433     1361.024     1655.126      752.554        0.692        0.188      100.077       20.862        0.043      327.915       -6.312      855.940
12/04/2013  02:26:00      -85.712       85.808      -17.996       35.404       57.063       23.979     1253.443     3256.209      574.981        1.006        0.254      121.283       28.942        0.057      327.916       -6.308      855.943
12/04/2013  02:27:00     -110.095       46.209      -10.451       36.278       29.518       23.572     1316.085      871.334      555.660        0.855        0.137      119.399       14.994        0.016      327.915       -6.311      855.952
12/04/2013  02:28:00     -100.611       37.226       -4.672       56.295       54.507       30.483     3169.082     2971.053      929.238        0.930        0.353      107.277       28.810        0.072      327.873       -6.379      855.954
12/04/2013  02:29:00     -134.424      108.434      -22.061       61.951       45.529       33.761     3837.896     2072.885     1139.795        1.868        0.353      172.707       22.857        0.018      327.841       -6.433      855.962
12/04/2013  02:30:00     -144.806       77.316      -13.580       48.370       61.178       36.502     2339.675     3742.793     1332.380        1.727        0.371      164.154       29.317        0.032      327.797       -6.503      855.972
12/04/2013  02:31:00     -137.701      105.594      -12.509       63.042       68.591       42.490     3974.250     4704.659     1805.387        2.037        0.524      173.527       33.956        0.038      327.806       -6.493      855.992
12/04/2013  02:32:00     -142.893      136.705      -26.796       67.979       81.275       39.748     4621.077     6605.704     1579.868        2.631        0.640      197.755       30.940        0.024      327.798       -6.505      856.008
12/04/2013  02:33:00      -72.024       66.155      -11.344      103.107       58.136       42.763    10631.029     3379.771     1828.666        1.276        0.792       97.795       55.348        0.320      327.853       -6.413      856.039
12/04/2013  02:34:00      -87.955      150.478      -15.866       55.426       73.845       40.498     3072.041     5453.118     1640.057        2.040        0.508      174.298       33.138        0.036      327.930       -6.287      856.052
12/04/2013  02:35:00      -89.781      148.360      -17.054       51.736       90.148       40.570     2676.630     8126.659     1645.911        2.140        0.622      173.411       38.143        0.048      327.943       -6.267      856.049
12/04/2013  02:36:00     -135.015      145.513      -27.756       69.936       78.616       43.708     4890.984     6180.408     1910.426        2.658        0.649      198.502       33.797        0.029      327.899       -6.341      856.041
12/04/2013  02:37:00     -149.493      198.955      -26.605       93.946       78.832       48.437     8825.871     6214.482     2346.174        4.001        0.869      248.860       49.618        0.040      327.848       -6.424      856.032
12/04/2013  02:38:00     -148.939      149.428      -31.877       69.874       67.708       46.942     4882.336     4584.353     2203.537        2.860        0.584      210.977       48.525        0.053      327.843       -6.432      856.035
12/04/2013  02:39:00     -125.255      176.301      -28.120       86.450       86.744       53.144     7473.668     7524.540     2824.285        3.269        0.891      216.266       47.104        0.047      327.883       -6.364      856.042
12/04/2013  02:40:00     -161.214      223.536      -35.014       56.932      126.149       47.481     3241.213    15913.467     2254.434        4.929        1.070      275.605       48.723        0.031      327.903       -6.335      856.041
12/04/2013  02:41:00     -108.422      154.155      -14.057       86.470       83.636       57.349     7477.000     6994.961     3288.942        2.674        0.888      188.465       54.464        0.084      327.953       -6.252      856.054
12/04/2013  02:42:00     -159.462      162.806      -31.312       68.444       74.746       49.627     4684.641     5586.971     2462.841        3.282        0.637      227.890       45.902        0.041      327.937       -6.278      856.053
12/04/2013  02:43:00     -128.310      230.662      -29.977       70.186      109.732       53.195     4926.025    12041.213     2829.699        4.518        0.990      263.947       53.136        0.041      327.978       -6.210      856.054
12/04/2013  02:44:00     -196.486      224.317      -46.509       74.489      102.745       52.338     5548.633    10556.577     2739.316        5.496        0.942      298.203       52.910        0.031      327.945       -6.264      856.063
12/04/2013  02:45:00     -127.183      135.034      -17.961       80.857       78.660       51.302     6537.847     6187.324     2631.938        2.504        0.768      185.499       45.678        0.061      327.960       -6.239      856.066
12/04/2013  02:46:00     -192.144      171.667      -36.100       73.566       82.594       50.492     5411.968     6821.706     2549.416        4.123        0.739      257.660       42.590        0.027      327.942       -6.271      856.082
12/04/2013  02:47:00     -162.778      246.604      -29.804       81.387      113.964       57.679     6623.763    12987.730     3326.923        5.556        1.147      295.483       54.426        0.034      327.921       -6.303      856.091
12/04/2013  02:48:00     -149.349      214.327      -23.869       76.439      112.818       70.630     5842.952    12727.918     4988.666        4.618        1.178      261.230       56.284        0.046      327.943       -6.268      856.099
12/04/2013  02:49:00     -103.809      185.645      -15.913       61.317      144.936       45.317     3759.727    21006.457     2053.633        3.615        1.341      212.697       49.032        0.053      328.047       -6.099      856.116
12/04/2013  02:50:00     -132.951      154.894      -25.779       59.371       59.495       35.628     3524.951     3539.685     1269.378        2.533        0.417      204.128       31.612        0.024      327.989       -6.193      856.117
12/04/2013  02:51:00     -147.381      205.519      -29.560       81.351      106.560       50.444     6617.982    11355.052     2544.566        4.267        1.026      252.901       48.185        0.036      327.936       -6.280      856.116
12/04/2013  02:52:00     -141.993      169.499      -21.308       60.054       97.556       48.045     3606.443     9517.146     2308.336        3.239        0.772      221.115       44.057        0.040      327.969       -6.224      856.119
12/04/2013  02:53:00      -99.137      160.226      -14.103       96.500      104.841       60.449     9312.260    10991.643     3654.115        2.982        1.198      188.416       64.462        0.117      328.017       -6.148      856.121
12/04/2013  02:54:00     -105.542      210.747      -25.358       64.811       76.780       51.885     4200.501     5895.150     2692.058        3.449        0.639      235.698       38.932        0.027      328.042       -6.108      856.129
12/04/2013  02:55:00      -82.855      222.315      -23.240       58.864       99.371       43.021     3464.941     9874.576     1850.774        3.601        0.760      237.252       46.532        0.038      327.997       -6.181      856.159
12/04/2013  02:56:00      -43.946      302.690      -31.008       42.263       68.699       35.265     1786.139     4719.610     1243.651        5.113        0.387      305.863       35.090        0.013      327.914       -6.317      856.174
12/04/2013  02:57:00      -21.425      264.258      -32.461       80.773      120.051       47.247     6524.199    14412.176     2232.240        4.725        1.158      265.125       56.500        0.045      327.931       -6.289      856.194
12/04/2013  02:58:00      -35.180      332.887      -42.862       58.027      116.145       43.703     3367.149    13489.547     1909.991        6.632        0.938      334.741       49.304        0.022      327.855       -6.414      856.196
12/04/2013  02:59:00      -58.396      245.464      -23.348       47.135       87.765       41.530     2221.720     7702.708     1724.713        3.793        0.582      252.314       49.270        0.038      327.904       -6.333      856.205
12/04/2013  03:00:00     -126.038      239.861      -41.636       69.221       86.130       37.157     4791.608     7418.386     1380.670        4.437        0.680      270.959       32.034        0.014      327.882       -6.369      856.193
12/04/2013  03:01:00      -24.861      237.290      -30.771       49.309      117.576       38.631     2431.415    13824.008     1492.392        3.781        0.887      238.589       45.086        0.036      327.935       -6.280      856.190
12/04/2013  03:02:00      -68.268      225.921      -30.489       81.437       67.960       44.099     6631.997     4618.504     1944.717        3.491        0.660      236.010       41.323        0.031      327.898       -6.343      856.190
12/04/2013  03:03:00      -70.635      223.703      -19.763       68.881       94.663       43.209     4744.558     8961.113     1867.016        3.549        0.779      234.589       41.874        0.032      327.932       -6.286      856.196
12/04/2013  03:04:00     -105.983      223.183      -23.234       70.263      111.406       44.781     4936.943    12411.401     2005.374        4.046        0.968      247.069       45.627        0.034      327.906       -6.330      856.207
12/04/2013  03:05:00      -94.232      210.489      -32.434       69.753      143.524       50.727     4865.541    20599.138     2573.242        4.113        1.402      230.619       64.890        0.079      327.942       -6.268      856.219
12/04/2013  03:06:00     -144.931      270.967      -42.961       81.959       82.852       49.856     6717.200     6864.536     2485.628        5.617        0.803      307.291       45.541        0.022      327.951       -6.255      856.212
12/04/2013  03:07:00     -168.704      192.742      -30.777       75.118       96.843       54.607     5642.734     9378.565     2981.926        4.228        0.900      256.145       43.670        0.029      327.936       -6.279      856.231
12/04/2013  03:08:00     -161.702      164.753      -21.959       85.409      144.491       57.982     7294.671    20877.605     3361.959        4.265        1.577      230.849       68.255        0.087      327.985       -6.200      856.240
12/04/2013  03:09:00     -133.072      101.990       -9.501       93.086       76.368       49.132     8664.921     5832.015     2413.961        2.255        0.846      167.661       47.634        0.081      328.004       -6.168      856.250
12/04/2013  03:10:00     -163.892      177.990      -37.360      116.621       93.126       46.867    13600.533     8672.387     2196.547        4.220        1.223      241.953       61.829        0.065      327.979       -6.207      856.258
12/04/2013  03:11:00      -49.144      139.307      -16.863       66.997       58.210       31.460     4488.642     3388.423      989.734        1.548        0.443      147.722       21.354        0.021      328.066       -6.064      856.268
12/04/2013  03:12:00      -64.214      149.866      -23.250       64.521       55.625       40.902     4163.008     3094.120     1672.963        1.803        0.447      163.044       37.746        0.054      328.078       -6.047      856.270
12/04/2013  03:13:00      -29.860      187.830       -1.921       54.192       93.755       43.442     2936.809     8790.022     1887.185        2.489        0.681      190.188       42.644        0.050      328.035       -6.117      856.275
12/04/2013  03:14:00      -72.485      192.979      -15.086       68.933       75.093       44.914     4751.727     5638.973     2017.223        2.756        0.620      206.143       47.594        0.053      328.021       -6.141      856.280
12/04/2013  03:15:00      -45.793      239.069      -23.600       71.273      123.553       51.848     5079.857    15265.276     2688.171        4.142        1.152      243.415       62.852        0.067      328.039       -6.111      856.279
12/04/2013  03:16:00      -63.702      180.005      -26.579       57.231       58.356       33.479     3275.396     3405.458     1120.835        2.248        0.390      190.945       24.228        0.016      328.016       -6.147      856.289
12/04/2013  03:17:00     -103.062      171.406      -25.477       71.555       71.706       40.537     5120.049     5141.709     1643.244        2.628        0.595      200.005       43.201        0.047      327.951       -6.254      856.293
12/04/2013  03:18:00      -91.664      224.498      -29.184       79.019       88.920       46.011     6243.956     7906.761     2117.050        3.796        0.813      242.491       42.774        0.031      327.938       -6.278      856.299
12/04/2013  03:19:00     -110.598      271.242      -33.462       77.856      134.633       57.742     6061.589    18126.047     3334.155        5.722        1.376      292.924       65.097        0.049      327.957       -6.245      856.307
12/04/2013  03:20:00     -169.792      161.002      -17.622       91.675       79.997       62.757     8404.303     6399.557     3938.487        3.690        0.937      233.989       45.079        0.037      327.929       -6.291      856.321
12/04/2013  03:21:00     -177.452      293.351      -41.957       91.345      113.281       57.605     8343.823    12832.616     3318.332        7.189        1.225      342.847       46.426        0.018      327.890       -6.356      856.310
12/04/2013  03:22:00     -151.413      205.794      -36.725       89.544       72.847       47.196     8018.125     5306.739     2227.485        4.109        0.778      255.494       44.193        0.030      327.897       -6.344      856.310
12/04/2013  03:23:00      -87.568      222.673      -32.335       64.445       95.892       47.029     4153.102     9195.231     2211.734        3.693        0.778      239.273       38.057        0.025      327.912       -6.318      856.312
12/04/2013  03:24:00      -87.166      116.015       -9.642       78.760      103.670       44.987     6203.134    10747.397     2023.870        2.006        0.949      145.111       50.294        0.120      328.018       -6.145      856.320
12/04/2013  03:25:00     -132.573      186.472      -38.951       80.734       57.033       40.597     6517.974     3252.795     1648.143        3.264        0.571      228.796       34.475        0.023      327.912       -6.319      856.321
12/04/2013  03:26:00      -87.672       89.418      -10.230       71.599       90.571       43.670     5126.431     8203.115     1907.032        1.551        0.762      125.228       50.575        0.163      328.025       -6.132      856.322
12/04/2013  03:27:00      -84.523       63.899       -5.087       72.845       65.314       40.822     5306.419     4265.877     1666.455        1.124        0.562      105.958       48.732        0.212      327.983       -6.201      856.326
12/04/2013  03:28:00     -108.158      184.867      -25.245       88.950       89.997       52.179     7912.107     8099.448     2722.692        3.262        0.937      214.182       55.275        0.067      327.957       -6.245      856.320
12/04/2013  03:29:00     -121.636      133.650      -11.153       75.903       81.835       52.793     5761.205     6697.029     2787.107        2.401        0.762      180.714       57.285        0.100      327.990       -6.191      856.318
12/04/2013  03:30:00     -134.422      143.182      -27.512       91.535      119.280       57.351     8378.723    14227.681     3289.111        3.261        1.295      196.393       67.831        0.119      327.981       -6.205      856.312
12/04/2013  03:31:00      -87.551      131.454       -8.174       71.015       87.402       42.504     5043.185     7639.102     1806.625        1.975        0.724      157.941       41.912        0.070      327.924       -6.297      856.293
12/04/2013  03:32:00     -142.969      189.188      -34.945       88.854       96.156       45.609     7895.008     9245.927     2080.177        3.833        0.961      237.134       46.177        0.038      327.927       -6.295      856.275
12/04/2013  03:33:00      -33.864      117.144       -4.195       41.964       48.590       36.717     1760.968     2361.003     1348.155        1.018        0.274      121.941       28.612        0.055      327.988       -6.193      856.262
12/04/2013  03:34:00      -73.825      109.111      -16.473       57.322       61.563       30.719     3285.784     3790.062      943.653        1.282        0.401      131.740       32.258        0.060      327.996       -6.179      856.247
12/04/2013  03:35:00     -105.079       90.452      -10.526       69.521       70.148       36.642     4833.204     4920.760     1342.671        1.521        0.555      138.648       26.125        0.036      327.975       -6.213      856.234
12/04/2013  03:36:00     -179.016      200.484      -50.253       83.926       89.793       46.584     7043.569     8062.781     2170.113        4.602        0.864      268.776       52.509        0.038      327.907       -6.328      856.226
12/04/2013  03:37:00     -168.158      169.227      -26.530       71.668       80.679       42.409     5136.303     6509.109     1798.553        3.553        0.672      238.568       34.290        0.021      327.883       -6.366      856.214
12/04/2013  03:38:00     -206.125      232.158      -56.952       64.225       70.754       35.647     4124.822     5006.118     1270.731        5.501        0.520      310.459       29.135        0.009      327.865       -6.398      856.213
12/04/2013  03:39:00     -131.898      124.780      -34.756       51.667       86.517       35.864     2669.429     7485.150     1286.233        2.281        0.572      181.569       38.838        0.046      327.889       -6.355      856.205
12/04/2013  03:40:00     -136.809      177.743      -22.755       88.173       86.806       60.630     7774.486     7535.270     3675.991        3.490        0.949      224.297       59.451        0.070      327.934       -6.282      856.205
12/04/2013  03:41:00     -151.695      197.141      -31.507       70.752       87.679       38.324     5005.832     7687.574     1468.757        3.851        0.708      248.749       43.123        0.030      327.899       -6.341      856.205
12/04/2013  03:42:00     -165.288      185.470      -37.686       78.224       70.432       40.254     6118.966     4960.645     1620.409        3.792        0.635      248.433       46.670        0.035      327.886       -6.363      856.219
12/04/2013  03:43:00     -129.636      175.924      -32.471       98.094      107.454       58.101     9622.477    11546.465     3375.754        3.667        1.227      218.529       64.116        0.086      327.957       -6.245      856.222
12/04/2013  03:44:00      -64.698      112.248      -17.017       60.462       81.765       41.234     3655.632     6685.582     1700.223        1.456        0.602      129.558       32.218        0.062      328.075       -6.052      856.226
12/04/2013  03:45:00     -121.313      147.623      -29.221       86.908       84.978       53.830     7553.072     7221.249     2897.657        2.751        0.884      191.074       44.293        0.054      328.021       -6.142      856.220
12/04/2013  03:46:00     -120.517      230.608      -35.314      103.544       80.752       46.851    10721.463     6520.897     2194.975        4.419        0.972      260.200       43.514        0.028      327.921       -6.305      856.219
12/04/2013  03:47:00      -58.710       89.778      -11.353       55.136       87.889       44.613     3039.951     7724.477     1990.362        1.219        0.638      107.270       23.103        0.046      328.064       -6.068      856.200
12/04/2013  03:48:00     -162.918      123.797      -24.838       67.176       88.772       41.707     4512.569     7880.382     1739.443        2.831        0.707      204.616       40.770        0.040      327.983       -6.203      856.203
12/04/2013  03:49:00     -147.903      189.782      -25.976      113.206       77.200       62.874    12815.693     5959.879     3953.125        4.064        1.136      240.609       70.422        0.086      327.945       -6.265      856.204
12/04/2013  03:50:00     -140.933      255.725      -43.676      104.678       89.261       59.682    10957.526     7967.584     3561.901        5.482        1.124      291.989       65.134        0.050      327.909       -6.324      856.217
12/04/2013  03:51:00      -53.287      169.783       -7.764       55.679       52.720       41.841     3100.141     2779.385     1750.676        1.968        0.382      177.949       27.840        0.024      328.039       -6.109      856.225
12/04/2013  03:52:00      -47.883      218.291      -16.571       46.555       85.146       47.206     2167.365     7249.893     2228.424        3.093        0.582      223.481       49.395        0.049      327.971       -6.224      856.237
12/04/2013  03:53:00     -125.539      205.090      -16.215       95.896      116.523       48.050     9196.117    13577.544     2308.778        4.158        1.254      240.462       50.811        0.045      327.963       -6.236      856.238
12/04/2013  03:54:00     -106.576      207.612      -30.199       55.819       87.172       41.748     3115.796     7598.984     1742.876        3.391        0.623      233.370       38.590        0.027      328.042       -6.107      856.234
12/04/2013  03:55:00      -88.365      129.325      -18.656       67.534       74.155       41.528     4560.799     5498.952     1724.597        1.833        0.589      156.631       49.935        0.102      328.038       -6.114      856.243
12/04/2013  03:56:00     -121.184      182.709      -27.832       71.202       79.191       44.970     5069.684     6271.220     2022.270        3.110        0.668      219.244       42.387        0.037      327.968       -6.228      856.252
12/04/2013  03:57:00      -94.602       67.444      -10.004       80.048       71.814       37.752     6407.729     5157.269     1425.238        1.329        0.650      116.182       34.868        0.090      328.015       -6.148      856.259
12/04/2013  03:58:00     -108.950      122.433      -35.047       80.849       95.089       43.301     6536.594     9041.991     1874.982        2.277        0.873      163.890       61.886        0.143      328.000       -6.174      856.274
12/04/2013  03:59:00     -106.252      100.879      -14.240       59.354       68.960       33.825     3522.956     4755.519     1144.125        1.554        0.471      146.513       24.208        0.027      327.947       -6.260      856.291
12/04/2013  04:00:00      -41.964       98.425       -2.331       52.067       69.585       32.821     2710.998     4842.136     1077.226        1.004        0.432      106.998       21.109        0.039      328.075       -6.052      856.302
12/04/2013  04:01:00      -78.274      110.262      -12.560       45.170       63.519       31.465     2040.284     4034.663      990.067        1.275        0.353      135.220       23.130        0.029      328.117       -5.983      856.317
12/04/2013  04:02:00      -85.720      169.841      -22.744       63.206       56.252       37.735     3995.058     3164.281     1423.913        2.265        0.429      190.247       39.754        0.044      328.005       -6.167      856.332
12/04/2013  04:03:00      -29.631      125.674       -2.171       40.698       64.690       28.856     1656.350     4184.846      832.661        1.167        0.334      129.120       28.387        0.048      328.056       -6.082      856.337
12/04/2013  04:04:00      -36.733      225.842      -21.301       48.001       98.161       31.944     2304.123     9635.531     1020.415        3.288        0.648      228.810       39.847        0.030      327.969       -6.227      856.364
12/04/2013  04:05:00      -29.878      235.706      -15.342       50.046       81.352       38.863     2504.564     6618.205     1510.320        3.366        0.532      237.592       44.356        0.035      327.954       -6.251      856.379
12/04/2013  04:06:00      -13.422      200.502      -14.764       49.161       66.153       33.455     2416.840     4376.211     1119.213        2.425        0.396      200.951       27.343        0.019      327.902       -6.333      856.386
12/04/2013  04:07:00      -21.612      247.585      -30.236       67.226       45.009       32.607     4519.343     2025.830     1063.213        3.514        0.380      248.527       19.612        0.006      327.892       -6.354      856.413
12/04/2013  04:08:00      -23.121      180.599      -16.257       56.700       64.132       41.111     3214.908     4112.894     1690.119        2.121        0.451      182.073       38.100        0.044      327.933       -6.284      856.452
12/04/2013  04:09:00       17.146      120.210        0.226       57.413       68.162       47.022     3296.275     4646.080     2211.077        1.245        0.508      121.427       47.024        0.150      327.883       -6.363      856.496
12/04/2013  04:10:00       18.059      133.720      -20.550       50.740       93.769       38.362     2574.560     8792.703     1471.641        1.573        0.642      134.934       30.134        0.050      327.847       -6.423      856.526
12/04/2013  04:11:00       13.290      127.061      -18.377       48.700       71.741       33.202     2371.666     5146.724     1102.349        1.264        0.431      127.754       33.813        0.070      327.894       -6.345      856.552
12/04/2013  04:12:00      -42.129      194.130      -23.823       60.306       89.124       41.722     3636.841     7943.065     1740.758        2.667        0.666      198.649       37.570        0.036      327.875       -6.379      856.580
12/04/2013  04:13:00      -52.757       74.227       -8.773       42.282       36.024       26.537     1787.751     1297.715      704.229        0.608        0.189       91.066       22.904        0.063      328.026       -6.131      856.591
12/04/2013  04:14:00        1.836       88.276        4.021       51.317       63.644       32.062     2633.387     4050.554     1027.980        0.776        0.386       88.296       39.715        0.202      328.012       -6.153      856.591
12/04/2013  04:15:00      -22.606      188.693       -9.080       62.759       80.956       45.078     3938.722     6553.937     2032.018        2.436        0.626      190.042       38.069        0.040      327.910       -6.321      856.591
12/04/2013  04:16:00      -51.317      196.606      -22.429       64.763       66.405       37.139     4194.192     4409.648     1379.341        2.588        0.499      203.193       32.574        0.026      327.923       -6.301      856.591
12/04/2013  04:17:00       -3.497      165.104      -14.387       42.961       49.591       35.376     1845.612     2459.253     1251.462        1.652        0.278      165.141       29.735        0.032      327.890       -6.353      856.593
12/04/2013  04:18:00      -27.440      218.885      -26.146       39.713       52.754       33.034     1577.159     2782.936     1091.248        2.740        0.273      220.598       29.916        0.018      327.870       -6.387      856.584
12/04/2013  04:19:00      -67.897      177.088      -12.624       42.002       73.280       30.530     1764.195     5369.959      932.104        2.210        0.403      189.658       31.459        0.028      327.901       -6.336      856.577
12/04/2013  04:20:00      -47.477      216.025      -22.425       53.756       88.754       36.389     2889.705     7877.275     1324.193        3.076        0.605      221.181       39.066        0.031      327.901       -6.337      856.571
12/04/2013  04:21:00      -90.591      181.095      -27.972       61.436       68.025       40.679     3774.359     4627.451     1654.763        2.592        0.503      202.489       35.547        0.031      327.969       -6.225      856.556
12/04/2013  04:22:00      -53.234      112.239       -4.131       77.743       83.469       36.323     6043.928     6967.025     1319.331        1.489        0.717      124.223       41.658        0.112      328.040       -6.109      856.549
12/04/2013  04:23:00      -68.445      132.446      -11.564       46.685      100.699       33.114     2179.510    10140.237     1096.535        1.789        0.671      149.086       31.263        0.044      327.899       -6.339      856.552
12/04/2013  04:24:00      -89.314      127.265      -23.023       83.687       65.448       37.499     7003.522     4283.484     1406.199        1.870        0.635      155.478       35.594        0.052      327.976       -6.214      856.557
12/04/2013  04:25:00     -114.483      145.588      -20.942       57.974       94.384       36.472     3360.995     8908.330     1330.234        2.417        0.680      185.209       35.594        0.037      327.962       -6.236      856.570
12/04/2013  04:26:00     -101.057      147.599      -37.079       65.442       59.587       31.610     4282.666     3550.619      999.185        2.110        0.442      178.880       29.456        0.027      327.832       -6.448      856.587
12/04/2013  04:27:00      -70.654       77.623       -0.844       77.401       46.480       36.952     5990.865     2160.396     1365.457        1.027        0.476      104.964       36.944        0.124      327.948       -6.258      856.600
12/04/2013  04:28:00       -6.812      118.126       16.650       43.048       86.120       47.606     1853.143     7416.659     2266.365        1.290        0.577      118.322       51.213        0.187      327.957       -6.243      856.624
12/04/2013  04:29:00      -26.403       80.384        0.344       21.543       95.857       24.336      464.095     9188.652      592.217        0.870        0.512       84.610       23.892        0.080      327.932       -6.283      856.651
12/04/2013  04:30:00      -57.501       99.389       -7.741       57.924       64.113       34.490     3355.135     4110.501     1189.540        1.095        0.433      114.824       34.336        0.089      327.852       -6.414      856.690
12/04/2013  04:31:00       -9.724      120.940        3.789       44.768       76.834       34.283     2004.130     5903.441     1175.354        1.191        0.454      121.330       37.052        0.093      327.900       -6.336      856.721
12/04/2013  04:32:00      -10.687      226.608      -25.914       53.967       84.681       38.215     2912.440     7170.787     1460.377        3.184        0.577      226.860       27.095        0.014      327.821       -6.466      856.751
12/04/2013  04:33:00      -37.609       90.777       -7.253       59.661       38.504       28.698     3559.489     1482.562      823.549        0.779        0.293       98.260       26.499        0.073      327.875       -6.377      856.788
12/04/2013  04:34:00       18.652       62.808        0.857       35.371       37.737       26.684     1251.072     1424.110      712.044        0.384        0.169       65.519       26.935        0.169      327.863       -6.396      856.797
12/04/2013  04:35:00       29.286       31.921       10.467       31.212       25.045       34.797      974.194      627.276     1210.834        0.240        0.141       43.320       23.041        0.283      327.878       -6.372      856.810
12/04/2013  04:36:00       13.741       45.573        1.329       39.634       38.414       23.717     1570.854     1475.651      562.502        0.294        0.180       47.600       16.670        0.123      327.855       -6.410      856.817
12/04/2013  04:37:00       74.806       46.726        6.648       41.004       19.507       25.187     1681.349      380.509      634.379        0.526        0.135       88.200       13.950        0.025      327.820       -6.467      856.817
12/04/2013  04:38:00       40.011       34.994        3.743       33.437       22.470       25.015     1118.049      504.880      625.742        0.254        0.112       53.155       15.446        0.084      327.832       -6.446      856.822
12/04/2013  04:39:00        2.979       22.599       24.590       16.606       23.252       20.220      275.764      540.670      408.848        0.117        0.061       22.794       14.044        0.380      327.896       -6.342      856.828
12/04/2013  04:40:00       39.337       42.528        4.075       36.533       36.588       28.003     1334.661     1338.686      784.174        0.341        0.173       57.931       19.995        0.119      327.807       -6.487      856.835
12/04/2013  04:41:00       48.583       35.521       -4.398       35.531       36.210       22.156     1262.460     1311.185      490.900        0.335        0.153       60.184       20.924        0.121      327.724       -6.622      856.844
12/04/2013  04:42:00       26.680       83.216       -8.350       29.543       46.848       25.529      872.817     2194.693      651.712        0.571        0.186       87.388       18.692        0.046      327.699       -6.664      856.864
12/04/2013  04:43:00       61.717       55.454       11.505       60.943       22.747       23.531     3714.028      517.411      553.722        0.590        0.239       82.970        7.055        0.007      327.726       -6.619      856.879
12/04/2013  04:44:00       90.048       46.544        6.670       21.840       21.672       16.273      476.988      469.657      264.800        0.577        0.061      101.366        8.643        0.007      327.681       -6.694      856.894
12/04/2013  04:45:00       18.723       51.310       29.147       38.084       34.635       30.982     1450.423     1199.577      959.856        0.372        0.180       54.619       23.517        0.185      327.811       -6.481      856.896
12/04/2013  04:46:00       71.666       32.209        2.452       37.761       26.698       21.877     1425.894      712.783      478.595        0.440        0.131       78.571        8.485        0.012      327.756       -6.570      856.900
12/04/2013  04:47:00       67.773       38.480       17.518       26.184       26.789       28.101      685.597      717.631      789.652        0.429        0.110       77.935       13.252        0.029      327.724       -6.622      856.905
12/04/2013  04:48:00      118.668       45.211        7.788       42.064       37.637       38.182     1769.360     1416.511     1457.897        1.041        0.232      126.989       28.608        0.051      327.708       -6.648      856.913
12/04/2013  04:49:00       54.658       90.243       -6.149       94.982       56.753       35.803     9021.544     3220.860     1281.840        1.234        0.676      105.505       33.164        0.099      327.692       -6.674      856.927
12/04/2013  04:50:00       -6.237      119.492      -13.454       25.951       44.597       18.593      673.433     1988.863      345.701        0.875        0.150      119.654       20.755        0.030      327.724       -6.622      856.937
12/04/2013  04:51:00        9.548      136.692      -21.882       19.379       32.096       17.583      375.546     1030.126      309.160        1.048        0.086      137.025       15.100        0.012      327.661       -6.725      856.949
12/04/2013  04:52:00       33.195      144.627      -16.345       54.522       51.053       34.636     2972.683     2606.418     1199.635        1.453        0.339      148.387       31.384        0.045      327.648       -6.747      856.954
12/04/2013  04:53:00       -7.474      109.734       -4.505       37.430       53.065       27.109     1401.019     2815.860      734.898        0.853        0.248      109.988       28.629        0.068      327.681       -6.692      856.970
12/04/2013  04:54:00       -1.508       68.726        9.757       68.451       58.810       30.710     4685.500     3458.619      943.102        0.695        0.454       68.743       34.602        0.253      327.751       -6.579      856.991
12/04/2013  04:55:00       58.142       58.936        9.299       42.972       36.968       33.788     1846.587     1366.647     1141.606        0.565        0.218       82.788       26.596        0.103      327.685       -6.686      857.011
12/04/2013  04:56:00       81.974       48.075       -0.747       38.599       42.335       31.640     1489.915     1792.218     1001.076        0.666        0.214       95.031       24.663        0.067      327.681       -6.693      857.045
12/04/2013  04:57:00      106.987       43.166       19.411       36.656       28.262       32.624     1343.662      798.766     1064.333        0.845        0.160      115.367       15.577        0.018      327.692       -6.673      857.068
12/04/2013  04:58:00      107.971       56.845       25.791       37.942       30.722       33.839     1439.622      943.826     1145.099        0.954        0.176      122.021       19.044        0.024      327.700       -6.662      857.071
12/04/2013  04:59:00       26.083       39.136       63.591       36.813       41.278       20.874     1355.196     1703.856      435.733        0.487        0.175       47.032       23.648        0.253      327.710       -6.644      857.069
12/04/2013  05:00:00       78.130       97.168       71.841       46.587       30.143       29.439     2170.362      908.623      866.665        1.233        0.197      124.683       23.011        0.034      327.720       -6.628      857.084
12/04/2013  05:01:00       35.511       55.550       86.220       37.956       51.071       34.224     1440.636     2608.271     1171.282        0.850        0.261       65.931       31.394        0.227      327.736       -6.603      857.087
12/04/2013  05:02:00       67.774       42.444       53.310       52.180       62.089       43.554     2722.749     3855.048     1896.974        0.885        0.424       79.968       40.931        0.262      327.735       -6.605      857.095
12/04/2013  05:03:00       54.407       43.000       62.596       54.394       45.788       36.763     2958.695     2096.521     1351.533        0.757        0.320       69.348       35.823        0.267      327.706       -6.652      857.119
12/04/2013  05:04:00       65.003       25.666       28.788       36.073       24.947       27.309     1301.245      622.346      745.773        0.419        0.133       69.886       23.431        0.112      327.644       -6.751      857.134
12/04/2013  05:05:00       90.286       69.335       44.320       38.745       33.982       35.133     1501.202     1154.745     1234.347        0.941        0.195      113.837       13.561        0.014      327.560       -6.888      857.135
12/04/2013  05:06:00       88.816       66.052       40.695       37.314       34.900       25.213     1392.324     1218.002      635.683        0.858        0.162      110.685       17.169        0.024      327.541       -6.918      857.145
12/04/2013  05:07:00      110.369       66.301       39.809       47.462       33.338       31.619     2252.673     1111.399      999.746        1.126        0.218      128.753       15.124        0.014      327.515       -6.960      857.146
12/04/2013  05:08:00       62.275       46.952       43.333       60.832       40.241       31.347     3700.567     1619.358      982.604        0.713        0.315       77.991       22.472        0.083      327.531       -6.934      857.140
12/04/2013  05:09:00       77.646       27.760       53.153       48.910       33.262       27.848     2392.147     1106.329      775.505        0.695        0.214       82.459       26.084        0.100      327.539       -6.922      857.139
12/04/2013  05:10:00       95.142       21.012       26.571       52.935       38.997       39.531     2802.150     1520.766     1562.662        0.804        0.294       97.434       25.911        0.071      327.500       -6.986      857.123
12/04/2013  05:11:00       94.945       55.395       66.038       49.827       50.919       41.150     2482.776     2592.737     1693.333        1.161        0.338      109.924       29.249        0.071      327.466       -7.041      857.112
12/04/2013  05:12:00       74.035       69.439       76.068       55.473       49.905       36.637     3077.247     2490.473     1342.258        1.150        0.345      101.503       34.301        0.114      327.488       -7.006      857.113
12/04/2013  05:13:00       87.338       77.242       67.334       59.309       46.181       45.734     3517.528     2132.702     2091.553        1.293        0.387      116.594       40.325        0.120      327.472       -7.031      857.123
12/04/2013  05:14:00       52.028       64.404       58.823       47.073       61.090       35.304     2215.887     3731.990     1246.402        0.875        0.360       82.793       34.270        0.171      327.541       -6.918      857.132
12/04/2013  05:15:00       18.488       16.354       40.330       39.072       45.137       35.471     1526.610     2037.357     1258.165        0.353        0.241       24.683       28.828        1.364      327.526       -6.944      857.150
12/04/2013  05:16:00       57.356       20.014       47.447       54.554       62.746       38.609     2976.119     3937.030     1490.668        0.717        0.420       60.748       45.508        0.561      327.524       -6.947      857.161
12/04/2013  05:17:00       34.846       43.522       78.212       42.530       38.269       23.201     1808.810     1464.537      538.270        0.652        0.191       55.754       27.069        0.236      327.551       -6.902      857.168
12/04/2013  05:18:00       89.920      111.655       86.172       55.675       47.254       33.884     3099.735     2232.900     1148.098        1.723        0.324      143.361       18.481        0.017      327.484       -7.014      857.177
12/04/2013  05:19:00       86.336       72.534       65.235       65.622       36.483       38.137     4306.310     1330.994     1454.413        1.203        0.355      112.762       35.433        0.099      327.458       -7.055      857.188
12/04/2013  05:20:00      127.994       85.830       45.764       38.670       26.997       37.305     1495.389      728.855     1391.687        1.473        0.181      154.108       26.192        0.029      327.405       -7.142      857.193
12/04/2013  05:21:00      136.529       72.996       26.191       40.518       32.044       33.967     1641.700     1026.793     1153.725        1.424        0.191      154.818       25.826        0.028      327.323       -7.274      857.197
12/04/2013  05:22:00      142.740       60.539       19.549       57.066       48.184       45.459     3256.496     2321.688     2066.512        1.603        0.382      155.048       28.758        0.034      327.300       -7.311      857.201
12/04/2013  05:23:00      121.154       64.890       31.162       49.227       39.780       29.257     2423.325     1582.488      855.988        1.236        0.243      137.438       17.730        0.017      327.262       -7.373      857.190
12/04/2013  05:24:00       97.448       58.643       11.756       32.340       31.459       23.383     1045.875      989.690      546.741        0.783        0.129      113.733       21.425        0.035      327.221       -7.441      857.196
12/04/2013  05:25:00       89.769       48.353       20.576       29.913       31.273       20.468      894.772      978.005      418.954        0.656        0.115      101.963       18.219        0.032      327.201       -7.473      857.218
12/04/2013  05:26:00       84.886       42.718       13.978       31.394       24.372       26.479      985.573      594.003      701.134        0.575        0.114       95.029       11.112        0.014      327.191       -7.489      857.231
12/04/2013  05:27:00       89.937       50.377        5.429       19.462       28.022       15.420      378.773      785.234      237.783        0.603        0.070      103.085        8.877        0.007      327.235       -7.417      857.231
12/04/2013  05:28:00       79.880       54.922       13.488       29.085       24.624       20.072      845.964      606.348      402.879        0.572        0.093       96.940       13.589        0.020      327.190       -7.490      857.236
12/04/2013  05:29:00       62.160       25.729        5.343       28.279       19.344       20.109      799.708      374.186      404.389        0.307        0.079       67.274       12.480        0.034      327.252       -7.391      857.235
12/04/2013  05:30:00       78.646       44.953       11.800       21.985       15.861       21.934      483.331      251.578      481.118        0.478        0.061       90.587        9.442        0.011      327.221       -7.442      857.231
12/04/2013  05:31:00       92.093       41.430        1.363       24.024       28.255       19.319      577.165      798.335      373.205        0.597        0.087      100.983        9.325        0.009      327.183       -7.502      857.233
12/04/2013  05:32:00       44.131       39.796       29.019       37.439       31.534       23.397     1401.676      994.409      547.402        0.366        0.147       59.424       18.291        0.095      327.183       -7.502      857.239
12/04/2013  05:33:00       79.505       42.944       31.989       32.741       25.390       25.351     1071.997      644.637      642.697        0.577        0.118       90.362       19.925        0.049      327.167       -7.528      857.249
12/04/2013  05:34:00      110.235       64.789       24.599       31.156       24.377       18.275      970.724      594.255      333.977        0.943        0.095      127.865       16.191        0.016      327.154       -7.549      857.245
12/04/2013  05:35:00       94.751       43.180       18.893       34.075       28.677       24.400     1161.094      822.354      595.359        0.689        0.129      104.126       17.248        0.027      327.157       -7.544      857.238
12/04/2013  05:36:00       99.615       54.805       18.162       37.998       22.899       25.244     1443.829      524.361      637.241        0.793        0.130      113.696       14.766        0.017      327.112       -7.617      857.237
12/04/2013  05:37:00       89.645       46.057        8.321       36.156       25.278       25.978     1307.227      638.985      674.834        0.642        0.131      100.785       20.257        0.040      327.117       -7.610      857.241
12/04/2013  05:38:00       72.308       42.730        6.191       24.894       23.160       14.567      619.735      536.371      212.208        0.423        0.068       83.990       12.745        0.023      327.082       -7.665      857.243
12/04/2013  05:39:00       71.346       56.031        5.076       39.989       25.848       21.629     1599.155      668.104      467.818        0.549        0.137       90.718       17.393        0.037      327.102       -7.634      857.248
12/04/2013  05:40:00       63.573       58.623       -0.542       39.053       36.090       33.518     1525.118     1302.519     1123.467        0.571        0.198       86.477       27.793        0.103      327.068       -7.686      857.249
12/04/2013  05:41:00       97.245       40.347        6.116       30.871       23.874       21.902      952.993      569.964      479.684        0.656        0.100      105.283       12.675        0.014      327.076       -7.675      857.256
12/04/2013  05:42:00       67.185       51.521       23.258       52.060       23.963       23.109     2710.205      574.219      534.021        0.576        0.191       84.665       17.028        0.040      327.085       -7.658      857.268
12/04/2013  05:43:00      128.125       67.936       21.363       35.573       32.122       27.224     1265.465     1031.791      741.173        1.226        0.152      145.022       19.450        0.018      327.053       -7.711      857.276
12/04/2013  05:44:00      113.374       76.950        8.665       29.820       26.497       24.467      889.258      702.096      598.656        1.052        0.110      137.022       17.309        0.016      327.043       -7.728      857.288
12/04/2013  05:45:00       99.020       56.619        2.992       19.491       20.474       13.722      379.912      419.173      188.288        0.700        0.049      114.065       11.662        0.010      327.027       -7.754      857.309
12/04/2013  05:46:00       86.719       51.227        3.784       24.423       24.871       19.439      596.501      618.563      377.884        0.588        0.080      100.719       13.719        0.019      326.984       -7.825      857.317
12/04/2013  05:47:00       68.991       62.614       17.024       24.300       21.940       23.199      590.489      481.352      538.194        0.529        0.081       93.168       16.446        0.031      326.978       -7.834      857.319
12/04/2013  05:48:00      112.885       58.333        2.575       29.629       24.602       24.419      877.854      605.277      596.284        0.912        0.104      127.066        5.432        0.002      327.026       -7.756      857.327
12/04/2013  05:49:00      117.907       75.513       11.211       32.803       22.732       24.789     1076.011      516.764      614.480        1.097        0.110      140.015       18.474        0.017      326.953       -7.874      857.327
12/04/2013  05:50:00      118.907       60.774       11.106       46.130       32.529       27.174     2127.994     1058.152      738.450        1.094        0.196      133.538       17.908        0.018      326.921       -7.926      857.310
12/04/2013  05:51:00       98.608       72.422        9.371       24.001       20.799       19.127      576.046      432.601      365.831        0.822        0.069      122.346       13.913        0.013      326.836       -8.062      857.290
12/04/2013  05:52:00       68.468       52.588       11.107       31.485       22.509       20.417      991.290      506.654      416.858        0.475        0.096       86.332       12.419        0.021      326.811       -8.105      857.273
12/04/2013  05:53:00       22.793       65.993       -4.822       22.506       45.569       23.778      506.531     2076.521      565.415        0.402        0.157       69.818       26.275        0.142      326.793       -8.133      857.265
12/04/2013  05:54:00       34.538       85.349       -3.799       24.558       39.399       29.495      603.083     1552.272      869.964        0.576        0.151       92.072       28.485        0.096      326.756       -8.195      857.257
12/04/2013  05:55:00       36.692       50.258       -6.488       23.459       27.159       19.259      550.342      737.598      370.922        0.279        0.083       62.226       14.045        0.051      326.727       -8.241      857.257
12/04/2013  05:56:00       74.296       60.307        1.945       40.836       23.664       19.880     1667.566      559.977      395.216        0.589        0.131       95.691       11.124        0.014      326.804       -8.116      857.262
12/04/2013  05:57:00       59.622       38.496        9.825       33.115       23.357       21.467     1096.599      545.542      460.835        0.362        0.105       70.970       15.685        0.049      326.831       -8.072      857.266
12/04/2013  05:58:00      111.798       45.423        5.051       30.883       24.418       18.228      953.743      596.261      332.267        0.823        0.094      120.673       14.678        0.015      326.851       -8.040      857.255
12/04/2013  05:59:00       78.492       38.617        4.143       33.031       22.049       21.528     1091.038      486.153      463.451        0.485        0.102       87.477       16.833        0.037      326.860       -8.026      857.252
12/04/2013  06:00:00       85.775       59.020       16.091       24.870       22.484       18.027      618.534      505.540      324.965        0.627        0.072      104.119        9.750        0.009      327.010       -7.781      857.235
12/04/2013  06:01:00       19.825       54.275       -2.120       29.250       28.048       18.348      855.584      786.709      336.639        0.266        0.099       57.782       18.856        0.106      326.920       -7.928      857.229
12/04/2013  06:02:00        6.629       94.285       -8.886       20.294       25.892       19.706      411.848      670.385      388.312        0.524        0.074       94.518       17.132        0.033      326.893       -7.973      857.231
12/04/2013  06:03:00       24.566      119.016      -18.062       13.166       11.863        8.705      173.353      140.729       75.782        0.774        0.019      121.525        6.482        0.003      326.999       -7.799      857.239
12/04/2013  06:04:00       26.985      110.669      -15.351       22.837       20.408       14.951      521.527      416.485      223.531        0.719        0.058      113.912       10.012        0.008      326.957       -7.868      857.258
12/04/2013  06:05:00       34.088      128.121      -20.049       16.817       16.873       15.450      282.820      284.692      238.714        0.939        0.040      132.578        8.414        0.004      326.852       -8.039      857.285
12/04/2013  06:06:00       32.859      123.656      -15.122       15.467       19.975       18.300      239.222      398.982      334.899        0.879        0.049      127.948       12.157        0.009      326.847       -8.046      857.308
12/04/2013  06:07:00       18.166       98.293      -12.529       24.309       26.297       18.056      590.923      691.520      326.026        0.588        0.080       99.957       13.305        0.018      326.856       -8.031      857.323
12/04/2013  06:08:00        7.507      109.624      -16.823       16.131       19.165       10.808      260.223      367.280      116.813        0.655        0.037      109.880        6.178        0.003      326.944       -7.888      857.317
12/04/2013  06:09:00       -7.296       93.631      -15.680       15.756       12.343        9.765      248.241      152.362       95.351        0.478        0.025       93.915        7.248        0.006      327.039       -7.732      857.303
12/04/2013  06:10:00      -23.303       86.280      -12.314       24.623       23.860       13.480      606.296      569.320      181.705        0.475        0.068       89.372       11.087        0.015      327.037       -7.738      857.279
12/04/2013  06:11:00      -48.024       28.333       -8.769       16.829       22.526       13.618      283.201      507.417      185.451        0.208        0.049       55.759        9.490        0.029      326.799       -8.124      857.266
12/04/2013  06:12:00      -69.029       10.785      -17.521       24.525       30.783       17.058      601.460      947.590      290.985        0.351        0.092       69.867       16.439        0.055      326.623       -8.409      857.260
12/04/2013  06:13:00      -66.185      -14.957       -9.641       31.144       25.088       20.035      969.971      629.401      401.413        0.335        0.100       67.854       17.605        0.067      326.548       -8.530      857.276
12/04/2013  06:14:00      -57.779       17.640      -13.094       28.064       19.276       12.966      787.562      371.582      168.112        0.257        0.066       60.411        6.023        0.010      326.425       -8.729      857.305
12/04/2013  06:15:00      -57.337       -8.243      -13.889       21.880       17.853       14.999      478.755      318.730      224.984        0.229        0.051       57.927        8.383        0.021      326.411       -8.753      857.324
12/04/2013  06:16:00      -67.101      -19.300      -14.391       16.898       19.826       14.739      285.530      393.087      217.225        0.299        0.045       69.821       11.886        0.029      326.445       -8.698      857.344
12/04/2013  06:17:00      -94.751      -18.204      -13.243       32.357       17.984       11.054     1046.998      323.442      122.202        0.549        0.075       96.484        3.427        0.001      326.278       -8.969      857.354
12/04/2013  06:18:00     -108.938       -3.588      -13.832       38.732       37.161       24.244     1500.174     1380.938      587.764        0.777        0.173      108.997       20.372        0.035      326.196       -9.101      857.358
12/04/2013  06:19:00      -69.559       -0.662      -13.293       39.412       28.135       24.537     1553.307      791.584      602.087        0.398        0.147       69.562       23.228        0.112      326.150       -9.176      857.375
12/04/2013  06:20:00      -77.659       -2.774      -21.982       36.625       32.303       23.370     1341.380     1043.477      546.157        0.473        0.147       77.708       22.525        0.084      326.133       -9.203      857.404
12/04/2013  06:21:00      -58.128       15.498      -19.144       26.272       27.048       21.521      690.241      731.613      463.173        0.293        0.094       60.159       16.222        0.073      326.107       -9.244      857.431
12/04/2013  06:22:00      -61.377       13.126      -13.586       23.803       20.084       19.166      566.579      403.383      367.320        0.273        0.067       62.765       15.500        0.061      326.110       -9.241      857.466
12/04/2013  06:23:00      -29.833        2.684      -11.614       21.384       11.452       12.891      457.288      131.159      166.184        0.089        0.038       29.953       12.315        0.169      326.187       -9.115      857.471
12/04/2013  06:24:00       -1.490       -3.910        0.057        6.911        9.303        5.876       47.767       86.538       34.522        0.009        0.008        4.184        2.803        0.449      326.236       -9.038      857.472
12/04/2013  06:25:00       30.977       35.477       -2.266       19.645       22.734       19.747      385.931      516.843      389.939        0.176        0.065       47.098       16.245        0.119      326.545       -8.537      857.472
12/04/2013  06:26:00       26.929       28.083        1.642       13.635       11.492        9.839      185.911      132.068       96.799        0.097        0.021       38.908        5.098        0.017      326.623       -8.409      857.465
12/04/2013  06:27:00       20.289       56.697       -5.278       13.586       21.487       11.090      184.593      461.683      122.990        0.221        0.038       60.218       11.162        0.034      326.670       -8.335      857.468
12/04/2013  06:28:00       38.441       34.659       -4.396       11.403       17.838       10.037      130.019      318.190      100.747        0.162        0.027       51.759        8.219        0.025      326.682       -8.316      857.486
12/04/2013  06:29:00       26.578       45.103       -7.140       15.152       17.056       12.160      229.570      290.906      147.873        0.173        0.033       52.352       10.396        0.039      326.680       -8.319      857.502
12/04/2013  06:30:00        9.320       49.562       -7.806        6.430       13.543        5.659       41.349      183.417       32.021        0.143        0.013       50.431        2.172        0.002      326.683       -8.314      857.511
12/04/2013  06:31:00       22.337       41.071        1.166       19.681       23.616       17.601      387.326      557.727      309.802        0.172        0.063       46.752       15.152        0.105      326.679       -8.319      857.529
12/04/2013  06:32:00       45.476       38.853        4.161       18.343       14.884       17.560      336.471      221.522      308.342        0.223        0.043       59.813       11.270        0.036      326.631       -8.397      857.554
12/04/2013  06:33:00       58.613       29.597       11.358       21.510       19.049       21.119      462.699      362.877      445.999        0.286        0.064       65.661       14.266        0.047      326.526       -8.568      857.593
12/04/2013  06:34:00       82.269       44.867       42.171       33.759       40.229       34.138     1139.645     1618.358     1165.430        0.724        0.196       93.709       23.718        0.064      326.332       -8.882      857.627
12/04/2013  06:35:00       99.778       84.688       56.970       38.973       44.161       41.954     1518.866     1950.229     1760.158        1.280        0.261      130.873       25.039        0.037      326.237       -9.033      857.677
12/04/2013  06:36:00      106.228       50.067       18.710       40.612       33.756       30.378     1649.297     1139.499      922.833        0.893        0.186      117.436       24.075        0.042      326.176       -9.133      857.722
12/04/2013  06:37:00      104.770       59.311       15.914       31.297       23.970       23.681      979.519      574.554      560.778        0.843        0.106      120.393       18.242        0.023      326.150       -9.175      857.746
12/04/2013  06:38:00       81.361       57.198       12.706       32.599       25.140       30.060     1062.716      632.036      903.576        0.633        0.130       99.455       13.225        0.018      326.136       -9.198      857.763
12/04/2013  06:39:00       86.985       67.318        3.507       31.087       21.347       22.907      966.412      455.712      524.709        0.703        0.097      109.992       12.612        0.013      326.108       -9.244      857.772
12/04/2013  06:40:00       96.225       81.417        6.813       42.892       31.391       31.374     1839.700      985.387      984.340        0.987        0.190      126.048       22.926        0.033      326.110       -9.240      857.774
12/04/2013  06:41:00       54.348       96.801       -4.964       39.072       44.289       33.992     1526.660     1961.513     1155.469        0.850        0.232      111.014       28.721        0.067      326.111       -9.238      857.788
12/04/2013  06:42:00       22.480      102.996      -16.233       40.047       68.854       29.080     1603.791     4740.829      845.663        0.928        0.360      105.420       37.296        0.125      326.190       -9.111      857.794
12/04/2013  06:43:00       26.182       93.340       -7.918       33.989       27.989       20.518     1155.271      783.407      420.984        0.591        0.118       96.942       15.302        0.025      326.207       -9.082      857.803
12/04/2013  06:44:00        4.370      104.521      -14.026       22.311       19.469       16.705      497.791      379.059      279.052        0.615        0.058      104.612       12.923        0.015      326.192       -9.109      857.805
12/04/2013  06:45:00      -10.358       97.984      -16.547       15.051       26.342       12.130      226.529      693.893      147.130        0.552        0.053       98.530       12.622        0.016      326.184       -9.122      857.790
12/04/2013  06:46:00      -28.277       65.320       -0.389       31.175       40.320       16.031      971.904     1625.684      256.984        0.396        0.143       71.177        9.142        0.016      326.164       -9.154      857.774
12/04/2013  06:47:00      -67.405       14.280       -9.530       26.981       16.361       15.229      727.972      267.679      231.936        0.303        0.061       68.901       14.426        0.044      326.098       -9.259      857.762
12/04/2013  06:48:00      -64.534       18.018      -10.611       18.631       17.682       13.587      347.128      312.658      184.596        0.272        0.042       67.002        9.121        0.019      326.203       -9.090      857.759
12/04/2013  06:49:00      -51.658       54.640       -5.098       25.490       36.285       19.033      649.732     1316.617      362.250        0.400        0.116       75.194       16.127        0.046      326.507       -8.598      857.761
12/04/2013  06:50:00      -40.625       36.812       -8.492       20.617       23.435       13.788      425.078      549.178      190.100        0.212        0.058       54.822        6.517        0.014      326.565       -8.504      857.775
12/04/2013  06:51:00       10.173       51.508        6.412       24.315       33.360       22.849      591.229     1112.857      522.064        0.251        0.111       52.503       20.807        0.157      326.562       -8.508      857.783
12/04/2013  06:52:00      -15.116      185.070      -28.632       32.867       46.510       16.758     1080.241     2163.188      280.814        1.941        0.176      185.687       17.054        0.008      326.510       -8.595      857.805
12/04/2013  06:53:00      -32.950      175.298      -25.586       32.753       29.421       20.395     1072.789      865.569      415.969        1.741        0.118      178.368       14.769        0.007      326.590       -8.463      857.822
12/04/2013  06:54:00      -25.229      178.869      -17.736       36.959       40.382       25.275     1365.961     1630.733      638.821        1.829        0.182      180.639       23.151        0.016      326.580       -8.480      857.844
12/04/2013  06:55:00      -21.608      201.607      -23.911       29.485       35.023       20.274      869.353     1226.595      411.021        2.209        0.125      202.762       17.010        0.007      326.527       -8.567      857.845
12/04/2013  06:56:00        5.489      220.709      -31.183       37.931       56.910       24.136     1438.764     3238.790      582.557        2.749        0.263      220.777       29.063        0.017      326.350       -8.855      857.844
12/04/2013  06:57:00        4.073      207.273      -31.068       43.178       37.853       25.317     1864.346     1432.832      640.928        2.394        0.197      207.314       16.641        0.006      326.228       -9.051      857.841
12/04/2013  06:58:00      -36.977      188.960      -22.353       34.019       38.505       19.491     1157.291     1482.603      379.898        2.030        0.151      192.544       14.981        0.006      326.310       -8.919      857.835
12/04/2013  06:59:00        4.552      173.583      -21.467       36.794       36.289       25.403     1353.765     1316.887      645.334        1.696        0.166      173.643       23.271        0.018      326.257       -9.003      857.826
12/04/2013  07:00:00       23.595      163.713      -20.744       33.742       45.728       26.296     1138.534     2091.091      691.496        1.585        0.196      165.405       22.926        0.019      326.170       -9.144      857.831
12/04/2013  07:01:00       15.815      133.707      -16.384       30.702       48.953       26.473      942.628     2396.410      700.829        1.122        0.202      134.639       23.042        0.029      326.154       -9.169      857.832
12/04/2013  07:02:00        9.789      135.271      -15.505       27.059       38.218       25.431      732.168     1460.610      646.756        1.074        0.142      135.625       24.806        0.033      326.153       -9.171      857.828
12/04/2013  07:03:00       18.603       39.306        4.291       30.781       28.069       21.299      947.451      787.866      453.658        0.205        0.109       43.486       15.034        0.120      326.177       -9.132      857.832
12/04/2013  07:04:00       29.493       40.881       -3.608       33.715       22.872       14.260     1136.670      523.126      203.351        0.221        0.093       50.410       15.308        0.092      326.177       -9.133      857.844
12/04/2013  07:05:00       51.049       41.874        9.636       22.150       14.800       17.708      490.611      219.042      313.586        0.274        0.051       66.026        7.688        0.014      326.147       -9.180      857.863
12/04/2013  07:06:00       86.550       34.057        9.132       34.520       17.512       23.346     1191.651      306.672      545.049        0.539        0.102       93.009       15.892        0.029      326.123       -9.219      857.865
12/04/2013  07:07:00       41.655       31.305       -4.364       33.248       20.974       16.150     1105.432      439.917      260.812        0.227        0.090       52.108       11.934        0.052      326.079       -9.289      857.859
12/04/2013  07:08:00       21.778      101.106      -15.152       22.962       67.240       25.052      527.264     4521.226      627.584        0.830        0.284      103.425       38.031        0.135      326.233       -9.042      857.850
12/04/2013  07:09:00       -4.023      160.174      -21.037       20.378       37.038       17.483      415.271     1371.790      305.660        1.410        0.105      160.225       15.516        0.009      326.358       -8.840      857.838
12/04/2013  07:10:00       13.792      153.797      -22.889       22.651       36.189       17.306      513.064     1309.673      299.496        1.324        0.106      154.414        8.761        0.003      326.384       -8.797      857.843
12/04/2013  07:11:00       20.374      116.950      -12.545       25.691       32.331       19.893      660.019     1045.324      395.745        0.818        0.105      118.712       13.546        0.013      326.315       -8.909      857.849
12/04/2013  07:12:00       19.857       71.642       -1.641       22.814       32.573       21.245      520.481     1061.026      451.339        0.378        0.102       74.343       21.686        0.085      326.317       -8.905      857.873
12/04/2013  07:13:00       10.503      132.602      -14.170       16.849       36.070       14.921      283.874     1301.051      222.650        0.985        0.090      133.017       17.430        0.017      326.360       -8.835      857.892
12/04/2013  07:14:00       10.110       75.818       -8.312       18.511       22.671       16.200      342.650      513.984      262.452        0.352        0.056       76.489       13.967        0.033      326.329       -8.885      857.906
12/04/2013  07:15:00       10.997       84.443      -11.927       21.472       30.954       15.886      461.053      958.130      252.353        0.453        0.084       85.156       16.648        0.038      326.364       -8.828      857.914
12/04/2013  07:16:00       31.526       45.630       -7.500       18.242       23.262       16.031      332.775      541.116      257.001        0.213        0.057       55.461       13.819        0.062      326.401       -8.771      857.918
12/04/2013  07:17:00       10.414       20.588       -0.624       14.450       17.224       10.738      208.792      296.652      115.301        0.058        0.031       23.072        6.650        0.083      326.425       -8.731      857.923
12/04/2013  07:18:00       15.357       68.173      -12.507       16.476       14.360       11.472      271.463      206.217      131.617        0.282        0.030       69.882        5.048        0.005      326.432       -8.718      857.924
12/04/2013  07:19:00        2.679       85.889      -15.657        8.920       11.748        7.472       79.568      138.004       55.835        0.395        0.014       85.931        3.441        0.002      326.541       -8.542      857.925
12/04/2013  07:20:00        2.551       98.391      -18.378       20.797       29.855       13.185      432.517      891.300      173.852        0.576        0.075       98.424       15.177        0.024      326.617       -8.421      857.932
12/04/2013  07:21:00       13.184       87.624       -4.792       19.171       21.720       19.090      367.521      471.756      364.422        0.454        0.060       88.610       13.646        0.024      326.641       -8.381      857.929
12/04/2013  07:22:00       21.197       52.841       -2.973       14.823       27.001       20.078      219.710      729.068      403.139        0.230        0.068       56.934       18.971        0.111      326.612       -8.427      857.934
12/04/2013  07:23:00        2.807       65.138       -8.340       16.404       47.594       19.557      269.093     2265.172      382.483        0.362        0.146       65.198       26.684        0.168      326.644       -8.376      857.947
12/04/2013  07:24:00        6.407       91.791       -4.862       18.320       24.248       15.814      335.627      587.972      250.096        0.483        0.059       92.014       13.421        0.021      326.695       -8.294      857.970
12/04/2013  07:25:00       12.376       75.271      -10.816       27.152       25.174       19.907      737.206      633.712      396.301        0.385        0.088       76.281       16.186        0.045      326.687       -8.306      858.008
12/04/2013  07:26:00        0.868       97.584      -15.868       18.154       25.239       15.029      329.551      637.001      225.880        0.548        0.060       97.588       12.952        0.018      326.762       -8.186      858.041
12/04/2013  07:27:00      -22.123       79.166       -4.661       27.573       50.442       23.106      760.280     2544.413      533.897        0.531        0.192       82.199       27.793        0.114      326.867       -8.013      858.072
12/04/2013  07:28:00       42.110       25.074        3.782       18.889       14.909       13.690      356.798      222.291      187.408        0.159        0.038       49.010        8.425        0.030      326.793       -8.133      858.079
12/04/2013  07:29:00       12.135       28.747       -5.178       15.355       21.959       10.587      235.785      482.212      112.075        0.092        0.042       31.203       13.747        0.194      326.798       -8.126      858.092
12/04/2013  07:30:00        8.774       19.191        0.993       12.096       13.027       10.355      146.311      169.693      107.232        0.043        0.021       21.101        3.272        0.024      326.902       -7.958      858.086
12/04/2013  07:31:00        1.887       27.204        0.716       20.390       21.132       11.726      415.765      446.545      137.503        0.087        0.050       27.269       10.598        0.151      326.861       -8.024      858.082
12/04/2013  07:32:00      -26.164       14.731        0.975       15.803       14.185       14.540      249.733      201.208      211.423        0.078        0.033       30.026        9.852        0.108      326.878       -7.997      858.071
12/04/2013  07:33:00       10.055       54.697        4.979       22.654       37.134       18.075      513.205     1378.898      326.719        0.267        0.111       55.614       21.944        0.156      326.931       -7.911      858.063
12/04/2013  07:34:00       19.529       62.202        1.188       34.044       34.997       19.852     1159.000     1224.757      394.091        0.351        0.139       65.195       17.449        0.072      326.893       -7.972      858.068
12/04/2013  07:35:00      -11.243       43.012        3.441       37.546       37.175       26.240     1409.674     1381.973      688.554        0.273        0.174       44.457       28.210        0.403      326.946       -7.885      858.080
12/04/2013  07:36:00       11.380      104.705      -13.111       37.443       33.768       22.298     1401.942     1140.301      497.206        0.715        0.152      105.321       17.085        0.026      326.932       -7.909      858.084
12/04/2013  07:37:00       48.827       80.013       -7.060       44.820       46.172       26.160     2008.816     2131.894      684.338        0.683        0.241       93.734       29.322        0.098      326.934       -7.905      858.096
12/04/2013  07:38:00       21.292       72.174        0.085       51.702       38.873       24.983     2673.113     1511.089      624.155        0.523        0.240       75.249       26.544        0.124      326.969       -7.848      858.095
12/04/2013  07:39:00       47.144       47.942       -2.561       50.194       46.842       24.940     2519.435     2194.146      622.017        0.493        0.267       67.238       24.032        0.128      326.942       -7.893      858.090
12/04/2013  07:40:00       46.156       86.249       -5.054       35.503       41.645       29.856     1260.450     1734.338      891.394        0.674        0.194       97.823       27.528        0.079      326.925       -7.920      858.088
12/04/2013  07:41:00       33.334       61.115        5.406       30.063       40.681       25.835      903.806     1654.979      667.448        0.405        0.161       69.615       23.619        0.115      327.017       -7.770      858.096
12/04/2013  07:42:00       64.610       41.308        8.582       34.946       23.064       16.910     1221.254      531.951      285.941        0.400        0.102       76.687       14.157        0.034      326.972       -7.843      858.097
12/04/2013  07:43:00       42.278       52.154        1.213       22.181       31.688       27.579      492.014     1004.126      760.615        0.338        0.113       67.138       22.752        0.115      327.032       -7.746      858.112
12/04/2013  07:44:00       50.186       61.123        1.843       28.176       32.148       21.834      793.875     1033.494      476.743        0.428        0.115       79.086       18.971        0.058      327.020       -7.766      858.123
12/04/2013  07:45:00       76.820       65.231       -2.481       27.425       24.823       22.855      752.111      616.182      522.364        0.603        0.095      100.779       18.238        0.033      326.968       -7.850      858.135
12/04/2013  07:46:00       89.963       49.731        8.491       14.777       21.719       15.857      218.365      471.695      251.457        0.579        0.047      102.793       14.138        0.019      326.932       -7.907      858.136
12/04/2013  07:47:00       92.299       65.666       12.977       22.713       20.284       19.746      515.867      411.437      389.894        0.716        0.066      113.275       15.182        0.018      326.986       -7.821      858.141
12/04/2013  07:48:00       88.588       65.201        9.140       31.089       18.624       22.515      966.510      346.861      506.930        0.700        0.091      109.996       18.666        0.029      326.993       -7.808      858.151
12/04/2013  07:49:00       29.783       52.430       61.225       30.870       32.731       19.701      952.944     1071.345      388.111        0.490        0.121       60.299       13.997        0.054      327.297       -7.316      858.160
12/04/2013  07:50:00       55.203       92.839       77.760       35.380       26.822       22.965     1251.723      719.416      527.394        1.011        0.125      108.011       18.524        0.029      327.033       -7.744      858.175
12/04/2013  07:51:00       66.597       49.189       44.802       34.500       36.289       27.755     1190.226     1316.919      770.326        0.607        0.164       82.793       24.895        0.090      327.038       -7.738      858.185
12/04/2013  07:52:00       31.133       65.613       85.905       40.626       47.723       28.132     1650.450     2277.441      791.383        0.869        0.236       72.624       27.738        0.146      327.163       -7.534      858.173
12/04/2013  07:53:00       61.414       75.474       55.989       33.871       37.103       31.690     1147.271     1376.604     1004.239        0.806        0.176       97.304       26.613        0.075      327.041       -7.731      858.172
12/04/2013  07:54:00       35.075      -59.514        4.916       38.266       44.516       32.834     1464.261     1981.714     1078.093        0.466        0.226       69.081       20.820        0.091      327.229       -7.427      858.156
12/04/2013  07:55:00        5.687        5.856       42.579       25.736       47.901       20.722      662.335     2294.500      429.395        0.263        0.169        8.163       22.171        7.377      327.339       -7.247      858.161
12/04/2013  07:56:00       66.808       52.005       48.631       62.398       44.241       30.853     3893.478     1957.275      951.913        0.817        0.340       84.663       24.732        0.085      327.094       -7.644      858.162
12/04/2013  07:57:00       66.862       70.353       41.069       57.618       42.545       36.364     3319.824     1810.037     1322.334        0.878        0.323       97.057       31.766        0.107      326.948       -7.883      858.175
12/04/2013  07:58:00       47.587       25.568       40.305       45.671       31.457       22.109     2085.846      989.529      488.817        0.405        0.178       54.021       20.955        0.150      327.150       -7.554      858.197
12/04/2013  07:59:00       45.403       32.536       33.840       47.615       32.027       33.749     2267.188     1025.736     1138.988        0.435        0.222       55.857       28.091        0.253      327.076       -7.675      858.226
12/04/2013  08:00:00       35.354       45.783       47.708       32.911       38.174       25.259     1083.153     1457.235      638.028        0.440        0.159       57.845       19.678        0.116      327.172       -7.519      858.249
12/04/2013  08:01:00       97.473       71.328       37.401       22.112       16.509       31.210      488.955      272.534      974.059        0.886        0.087      120.783       15.568        0.017      326.991       -7.811      858.258
12/04/2013  08:02:00       61.564       26.210       12.959       32.028       29.937       22.582     1025.762      896.246      509.926        0.354        0.122       66.911       14.723        0.048      327.076       -7.676      858.259
12/04/2013  08:03:00       57.094       71.663       41.782       34.687       26.539       29.928     1203.211      704.321      895.672        0.647        0.140       91.626       18.088        0.039      327.140       -7.571      858.257
12/04/2013  08:04:00       65.080       63.617       49.351       34.963       24.139       33.092     1222.394      582.675     1095.058        0.681        0.145       91.008       17.977        0.039      327.202       -7.470      858.260
12/04/2013  08:05:00      117.720       79.536       16.098       30.974       25.795       32.181      959.388      665.370     1035.616        1.155        0.133      142.071       19.088        0.018      326.948       -7.883      858.270
12/04/2013  08:06:00       78.524       55.200        1.017       46.493       26.990       24.249     2161.613      728.454      587.991        0.635        0.174       95.984       15.082        0.025      326.953       -7.874      858.281
12/04/2013  08:07:00       94.339       51.064        8.830       27.974       23.357       22.295      782.542      545.552      497.088        0.670        0.091      107.272        7.321        0.005      326.928       -7.915      858.298
12/04/2013  08:08:00       88.874       51.575        5.109       31.142       19.945       18.765      969.822      397.789      352.111        0.615        0.086      102.755        9.213        0.008      326.940       -7.897      858.300
12/04/2013  08:09:00       71.190       46.358        6.646       17.925       23.155       23.254      321.293      536.145      540.738        0.433        0.070       84.954        8.081        0.009      327.011       -7.781      858.310
12/04/2013  08:10:00       65.507       45.344       14.343       33.698       19.398       23.768     1135.533      376.277      564.897        0.431        0.104       79.670       20.408        0.066      327.186       -7.496      858.317
12/04/2013  08:11:00       65.657       46.582        6.949       29.171       23.600       22.307      850.934      556.956      497.590        0.422        0.095       80.503       14.557        0.033      327.245       -7.401      858.335
12/04/2013  08:12:00       76.773       57.815       21.883       47.602       28.689       31.307     2265.933      823.081      980.112        0.689        0.203       96.108       23.826        0.061      327.335       -7.254      858.355
12/04/2013  08:13:00       90.603       39.996        1.790       40.576       32.197       23.669     1646.421     1036.626      560.224        0.653        0.162       99.038       14.490        0.021      327.305       -7.302      858.372
12/04/2013  08:14:00      119.110       71.584       -1.212       43.214       30.505       28.408     1867.454      930.551      807.026        1.146        0.180      138.966       18.892        0.018      327.202       -7.470      858.390
12/04/2013  08:15:00       47.311       79.670       -5.469       47.965       47.324       31.161     2300.641     2239.591      971.012        0.706        0.276       92.659       30.462        0.108      327.366       -7.204      858.408
12/04/2013  08:16:00       49.693       81.194        6.959       45.180       54.156       43.768     2041.205     2932.878     1915.648        0.800        0.344       95.194       36.412        0.146      327.435       -7.092      858.432
12/04/2013  08:17:00       88.798       58.977        0.512       37.003       30.015       30.352     1369.244      900.881      921.270        0.728        0.160      106.599       10.354        0.009      327.416       -7.123      858.455
12/04/2013  08:18:00       76.360       56.679       21.448       56.667       28.842       31.669     3211.156      831.847     1002.900        0.727        0.252       95.096       26.068        0.075      327.487       -7.007      858.470
12/04/2013  08:19:00       60.359       86.639       -2.585       35.134       48.477       33.624     1234.373     2350.065     1130.562        0.793        0.236      105.591       25.097        0.056      327.501       -6.985      858.478
12/04/2013  08:20:00      100.544       94.763       -5.638       59.623       37.817       33.432     3554.871     1430.149     1117.720        1.261        0.305      138.163       20.924        0.023      327.376       -7.188      858.469
12/04/2013  08:21:00      155.339       85.113       44.464       59.457       49.010       47.904     3535.151     2401.988     2294.754        2.079        0.412      177.128       34.338        0.038      327.375       -7.191      858.449
12/04/2013  08:22:00      180.682      105.569       48.362       50.101       39.384       49.854     2510.086     1551.069     2485.380        2.634        0.327      209.263       25.624        0.015      327.185       -7.501      858.440
12/04/2013  08:23:00      169.436      123.296       18.329       54.755       42.767       42.055     2998.080     1828.993     1768.625        2.542        0.330      209.548       32.431        0.024      327.175       -7.518      858.448
12/04/2013  08:24:00      150.157       99.242       13.321       35.046       40.432       31.869     1228.202     1634.716     1015.660        1.823        0.194      179.989       14.328        0.006      327.261       -7.375      858.451
12/04/2013  08:25:00      146.275      108.109       33.287       38.275       40.087       48.493     1464.956     1606.962     2351.598        1.981        0.271      181.890       23.408        0.017      327.311       -7.294      858.466
12/04/2013  08:26:00      128.660       87.702       57.719       56.316       64.300       41.908     3171.502     4134.458     1756.288        1.832        0.453      155.708       34.418        0.049      327.386       -7.173      858.475
12/04/2013  08:27:00      177.516      120.054       43.766       71.594       40.530       58.490     5125.686     1642.656     3421.036        2.901        0.509      214.301       49.954        0.054      327.308       -7.302      858.488
12/04/2013  08:28:00      193.800      101.886       29.794       60.885       46.562       51.700     3707.016     2168.042     2672.878        2.869        0.427      218.950       38.127        0.030      327.170       -7.525      858.497
12/04/2013  08:29:00      101.282       74.228       37.501       64.708       47.980       45.167     4187.089     2302.121     2040.022        1.285        0.426      125.570       26.199        0.044      327.385       -7.173      858.488
12/04/2013  08:30:00      122.827       84.671       26.027       60.982       38.348       44.471     3718.841     1470.542     1977.681        1.505        0.358      149.184       29.971        0.040      327.373       -7.194      858.491
12/04/2013  08:31:00      169.656      117.013        5.968       63.285       53.021       39.028     4004.928     2811.256     1523.172        2.542        0.417      206.095       23.387        0.013      327.258       -7.382      858.501
12/04/2013  08:32:00      168.749       96.178       13.877       51.194       40.055       34.394     2620.817     1604.418     1182.953        2.166        0.270      194.233       30.028        0.024      327.261       -7.377      858.519
12/04/2013  08:33:00       78.792       77.135       22.656       78.065       46.264       53.941     6094.116     2140.324     2909.650        1.191        0.557      110.263       31.322        0.081      327.422       -7.114      858.553
12/04/2013  08:34:00      160.567      126.606       18.749       68.292       52.611       56.251     4663.743     2767.882     3164.225        2.638        0.530      204.477       32.681        0.026      327.305       -7.306      858.584
12/04/2013  08:35:00      171.937       93.675       29.254       80.501       63.810       45.956     6480.366     4071.768     2111.922        2.593        0.633      195.800       38.228        0.038      327.305       -7.305      858.617
12/04/2013  08:36:00      154.101      125.600       14.517       73.878       57.218       51.363     5457.917     3273.869     2638.120        2.555        0.568      198.803       29.685        0.022      327.353       -7.228      858.628
12/04/2013  08:37:00      150.841      114.632       16.606       69.058       56.043       44.793     4768.958     3140.864     2006.433        2.304        0.496      189.456       26.012        0.019      327.395       -7.159      858.645
12/04/2013  08:38:00      128.041       83.461       26.195       69.823       66.195       58.403     4875.257     4381.808     3410.967        1.835        0.633      152.841       53.272        0.121      327.452       -7.066      858.667
12/04/2013  08:39:00      162.255       87.871       48.556       89.346       56.604       62.742     7982.683     3204.043     3936.568        2.576        0.756      184.521       52.675        0.081      327.477       -7.026      858.661
12/04/2013  08:40:00      190.324      126.520       34.545       95.619       69.997       65.298     9142.962     4899.551     4263.777        3.586        0.915      228.540       34.141        0.022      327.334       -7.259      858.672
12/04/2013  08:41:00      180.949      128.511       17.576       86.877       66.708       38.904     7547.639     4450.001     1513.511        3.154        0.676      221.940       29.278        0.017      327.208       -7.465      858.674
12/04/2013  08:42:00      179.432      120.729       15.197       70.075       70.113       56.989     4910.491     4915.848     3247.779        3.004        0.654      216.267       39.734        0.034      327.347       -7.238      858.654
12/04/2013  08:43:00      165.122       98.910       22.042       81.407       48.856       58.469     6627.051     2386.876     3418.637        2.498        0.622      192.479       20.112        0.011      327.368       -7.203      858.656
12/04/2013  08:44:00      190.244      136.066       17.088       72.940       53.903       51.582     5320.310     2905.556     2660.729        3.294        0.544      233.895       28.440        0.015      327.256       -7.385      858.670
12/04/2013  08:45:00      168.574      117.016       24.802       78.470       59.401       52.967     6157.498     3528.456     2805.511        2.761        0.625      205.207       36.781        0.032      327.241       -7.411      858.660
12/04/2013  08:46:00      227.368      134.732       18.881       76.770       53.393       49.933     5893.650     2850.795     2493.327        4.072        0.562      264.290       34.389        0.017      327.243       -7.407      858.663
12/04/2013  08:47:00      162.275      111.793       15.691       72.589       55.256       46.711     5269.112     3053.219     2181.954        2.479        0.525      197.056       42.786        0.047      327.333       -7.261      858.670
12/04/2013  08:48:00      116.632       87.482       16.930       87.437       65.117       44.978     7645.281     4240.252     2023.064        1.772        0.695      145.795       36.543        0.063      327.446       -7.075      858.664
12/04/2013  08:49:00      153.836       77.860        5.742       48.975       31.659       30.781     2398.558     1002.284      947.462        1.705        0.217      172.417       16.637        0.009      327.289       -7.331      858.650
12/04/2013  08:50:00       88.353       94.295       20.594       56.121       44.419       37.148     3149.527     1973.055     1379.939        1.181        0.325      129.220       26.539        0.042      327.503       -6.982      858.646
12/04/2013  08:51:00       48.638       83.609        2.831       64.656       48.216       40.671     4180.340     2324.777     1654.135        0.876        0.408       96.727       34.018        0.124      327.641       -6.756      858.652
12/04/2013  08:52:00       97.274      109.094       -1.346       63.305       53.699       49.206     4007.525     2883.600     2421.224        1.534        0.466      146.163       38.749        0.070      327.506       -6.977      858.664
12/04/2013  08:53:00       82.770       83.129        5.441       73.426       53.960       39.182     5391.384     2911.721     1535.262        1.181        0.492      117.308       39.971        0.116      327.647       -6.748      858.668
12/04/2013  08:54:00      108.529       98.326        3.669       72.851       50.413       52.268     5307.273     2541.502     2731.932        1.602        0.529      146.446       32.778        0.050      327.466       -7.044      858.679
12/04/2013  08:55:00       96.061       78.323       12.298       69.622       49.835       40.563     4847.226     2483.515     1645.334        1.224        0.449      123.944       28.713        0.054      327.463       -7.046      858.693
12/04/2013  08:56:00       36.108       89.219       -7.159       39.820       67.462       37.626     1585.611     4551.175     1415.730        0.843        0.378       96.249       42.921        0.199      327.648       -6.745      858.703
12/04/2013  08:57:00       39.926       99.049        9.734       60.042       76.652       46.033     3605.002     5875.598     2119.004        1.155        0.580      106.793       45.830        0.184      327.681       -6.693      858.709
12/04/2013  08:58:00      133.070       89.595        6.731       89.819       53.015       44.374     8067.493     2810.634     1969.010        1.931        0.642      160.421       20.762        0.017      327.614       -6.802      858.728
12/04/2013  08:59:00      147.073       69.936        6.797       82.902       57.814       41.383     6872.670     3342.463     1712.571        1.925        0.596      162.854       22.161        0.019      327.501       -6.987      858.734
12/04/2013  09:00:00      114.085       85.527       -4.034       72.095       51.837       39.456     5197.671     2687.072     1556.812        1.489        0.472      142.584       25.091        0.031      327.525       -6.947      858.725
12/04/2013  09:01:00      105.766       92.776       10.946       89.326       70.497       54.941     7979.098     4969.826     3018.472        1.794        0.798      140.691       40.414        0.083      327.570       -6.874      858.725
12/04/2013  09:02:00      186.510      124.122        4.603      111.632       65.032       53.933    12461.642     4229.150     2908.724        3.490        0.980      224.036       36.382        0.026      327.541       -6.922      858.697
12/04/2013  09:03:00      193.596      129.836        7.712       70.684       59.134       51.725     4996.219     3496.817     2675.505        3.278        0.558      233.103       32.907        0.020      327.574       -6.869      858.682
12/04/2013  09:04:00      167.948      111.504       11.831       79.478       65.242       66.928     6316.720     4256.571     4479.310        2.791        0.753      201.593       46.266        0.053      327.469       -7.040      858.693
12/04/2013  09:05:00      115.465       87.552       29.428       53.061       40.060       37.102     2815.484     1604.780     1376.574        1.383        0.290      144.905       23.582        0.026      327.685       -6.685      858.699
12/04/2013  09:06:00      187.996      118.299        8.569       71.326       54.847       52.239     5087.404     3008.237     2728.947        3.012        0.541      222.120       24.740        0.012      327.654       -6.740      858.716
12/04/2013  09:07:00      145.207      107.805       21.202       66.098       52.805       48.350     4368.966     2788.340     2337.702        2.132        0.475      180.851       17.741        0.010      327.652       -6.741      858.736
12/04/2013  09:08:00      205.232      110.266       20.969       73.272       55.948       45.192     5368.851     3130.160     2042.352        3.263        0.527      232.978       30.965        0.018      327.665       -6.721      858.766
12/04/2013  09:09:00      192.874      112.586       25.510       61.419       62.557       55.632     3772.244     3913.410     3094.895        3.065        0.539      223.329       41.260        0.034      327.492       -7.002      858.784
12/04/2013  09:10:00      178.259      119.440       18.305       64.099       51.755       50.231     4108.654     2678.574     2523.132        2.784        0.466      214.574       29.806        0.019      327.630       -6.778      858.783
12/04/2013  09:11:00      203.539      146.263       25.515       68.787       57.022       54.526     4731.702     3251.486     2973.054        3.721        0.548      250.641       40.163        0.026      327.489       -7.008      858.792
12/04/2013  09:12:00      207.248      137.291       33.606       51.822       55.952       48.812     2685.536     3130.592     2382.650        3.556        0.410      248.597       34.218        0.019      327.450       -7.072      858.803
12/04/2013  09:13:00      168.634      121.905       47.642      101.058       61.825       76.904    10212.695     3822.296     5914.278        3.275        0.997      208.082       56.039        0.073      327.714       -6.642      858.804
12/04/2013  09:14:00      209.921      142.810       17.617       72.589       47.745       49.636     5269.225     2279.597     2463.727        3.739        0.501      253.893       35.021        0.019      327.469       -7.041      858.818
12/04/2013  09:15:00      154.882      109.428       -2.712       77.368       53.507       44.200     5985.833     2863.035     1953.599        2.338        0.540      189.639       37.350        0.039      327.602       -6.822      858.819
12/04/2013  09:16:00      103.779       79.988       28.333       61.034       51.271       38.695     3725.094     2628.758     1497.310        1.291        0.393      131.027       22.723        0.030      327.752       -6.576      858.813
12/04/2013  09:17:00      146.095       84.902       58.438       79.981       60.321       57.212     6396.913     3638.591     3273.185        2.264        0.665      168.973       38.275        0.051      327.694       -6.673      858.823
12/04/2013  09:18:00      204.770      126.341       14.677       44.852       52.635       40.721     2011.679     2770.440     1658.213        3.227        0.322      240.609       26.009        0.012      327.478       -7.027      858.816
12/04/2013  09:19:00      171.401      115.287       26.782       70.191       66.179       51.417     4926.817     4379.663     2643.758        2.767        0.598      206.566       22.021        0.011      327.623       -6.789      858.818
12/04/2013  09:20:00      144.287       99.919       10.204       64.645       61.503       63.501     4179.036     3782.665     4032.377        2.145        0.600      175.507       42.991        0.060      327.866       -6.393      858.817
12/04/2013  09:21:00      106.665      128.264        3.927       83.814       65.081       54.130     7024.778     4235.592     2930.023        2.101        0.710      166.821       46.232        0.077      327.706       -6.651      858.834
12/04/2013  09:22:00      148.138       94.030       19.622       77.833       46.686       42.052     6057.987     2179.548     1768.408        2.059        0.500      175.461       28.477        0.026      327.738       -6.601      858.858
12/04/2013  09:23:00      104.751       58.102       29.515       65.930       43.166       39.698     4346.709     1863.336     1575.930        1.150        0.389      119.786       32.178        0.072      327.803       -6.493      858.864
12/04/2013  09:24:00      129.131       77.425       28.683       50.799       48.749       48.670     2580.569     2376.434     2368.765        1.541        0.366      150.564       27.211        0.033      327.861       -6.400      858.874
12/04/2013  09:25:00      128.421       71.994       25.891       82.302       66.887       47.924     6773.630     4473.927     2296.737        1.794        0.677      147.225       40.422        0.075      327.843       -6.430      858.860
12/04/2013  09:26:00      166.695      126.998       42.933       56.113       46.058       56.873     3148.683     2121.344     3234.555        2.713        0.425      209.561       29.031        0.019      327.749       -6.585      858.861
12/04/2013  09:27:00      137.000      101.927       28.466       75.302       58.774       52.548     5670.335     3454.364     2761.315        2.092        0.594      170.757       34.600        0.041      327.743       -6.592      858.873
12/04/2013  09:28:00       79.834       83.609       18.260       70.282       52.708       55.080     4939.501     2778.095     3033.845        1.222        0.538      115.603       38.060        0.108      327.987       -6.193      858.859
12/04/2013  09:29:00       81.152      112.805        3.395       63.317       67.354       47.918     4008.980     4536.579     2296.100        1.508        0.542      138.963       38.478        0.077      327.934       -6.281      858.851
12/04/2013  09:30:00       56.823       80.711        5.296       65.304       69.565       51.516     4264.619     4839.296     2653.890        1.076        0.588       98.707       36.617        0.138      327.910       -6.319      858.858
12/04/2013  09:31:00       30.423      124.042        1.616       59.830       72.585       47.142     3579.647     5268.518     2222.369        1.369        0.554      127.718       48.585        0.145      327.916       -6.311      858.883
12/04/2013  09:32:00       70.329       71.441       21.485       78.450       49.645       42.173     6154.441     2464.652     1778.538        1.045        0.520      100.250       32.359        0.104      328.118       -5.980      858.912
12/04/2013  09:33:00      168.623       90.922       10.073       64.878       55.259       45.977     4209.157     3053.595     2113.891        2.309        0.469      191.574       37.163        0.038      328.061       -6.075      858.931
12/04/2013  09:34:00      104.701       78.197       28.947       83.315       78.369       60.317     6941.415     6141.711     3638.131        1.731        0.836      130.679       31.759        0.059      328.030       -6.125      858.938
12/04/2013  09:35:00       87.006      120.330        8.368       87.044       99.150       76.458     7576.583     9830.705     5845.766        2.268        1.163      148.490       66.429        0.200      327.887       -6.359      858.949
12/04/2013  09:36:00      126.791      120.348       15.581       91.131       65.266       59.721     8304.905     4259.605     3566.571        2.346        0.807      174.813       46.611        0.071      327.885       -6.362      858.945
12/04/2013  09:37:00      137.210       94.663       15.375       80.638       60.820       47.687     6502.555     3699.129     2274.082        2.025        0.624      166.696       31.556        0.036      328.054       -6.086      858.943
12/04/2013  09:38:00      178.400      111.839       28.048      105.663       69.120       56.147    11164.590     4777.629     3152.471        3.210        0.955      210.558       46.148        0.048      327.891       -6.353      858.958
12/04/2013  09:39:00       77.206      132.966       -3.628       62.941       82.303       56.839     3961.631     6773.847     3230.687        1.881        0.698      153.756       55.485        0.130      327.823       -6.462      858.983
12/04/2013  09:40:00      146.571      111.275       14.294      114.469       70.888       63.316    13103.228     5025.131     4008.869        2.810        1.107      184.025       45.352        0.061      327.968       -6.228      858.991
12/04/2013  09:41:00      155.298      124.192       25.055       86.805       69.086       50.987     7535.110     4772.919     2599.669        2.754        0.745      198.850       39.672        0.040      327.903       -6.333      858.994
12/04/2013  09:42:00      127.556       89.680       24.557       46.382       36.891       43.479     2151.287     1360.915     1890.451        1.516        0.270      155.926       14.379        0.009      328.041       -6.106      858.992
12/04/2013  09:43:00       33.987       48.606       26.659       46.183       47.056       39.438     2132.885     2214.257     1555.340        0.506        0.295       59.310       24.860        0.176      328.373       -5.565      858.999
12/04/2013  09:44:00       83.241       88.459      -14.303       65.220       62.590       31.635     4253.588     3917.498     1000.780        1.206        0.459      121.466       31.800        0.069      328.153       -5.923      859.022
12/04/2013  09:45:00      114.313      125.927        6.619      104.055       67.711       46.221    10827.541     4584.814     2136.408        2.326        0.877      170.074       34.389        0.041      327.936       -6.280      859.018
12/04/2013  09:46:00      214.666      161.221       -0.747       90.213       75.326       61.970     8138.447     5674.001     3840.341        4.486        0.883      268.465       39.131        0.021      327.726       -6.624      859.017
12/04/2013  09:47:00       85.854      184.613      -21.407       85.562       80.618       54.550     7320.885     6499.244     2975.712        2.935        0.840      203.600       50.702        0.062      327.748       -6.585      859.017
12/04/2013  09:48:00       78.776      104.503        4.082       76.330       68.889       56.918     5826.296     4745.750     3239.650        1.547        0.691      130.868       49.700        0.144      327.784       -6.525      859.015
12/04/2013  09:49:00       83.534      112.922       15.196      100.086       68.391       53.733    10017.234     4677.274     2887.272        1.877        0.879      140.461       37.295        0.070      327.914       -6.314      859.010
12/04/2013  09:50:00       86.237       84.502        9.965       73.736       60.037       41.504     5436.980     3604.457     1722.594        1.272        0.538      120.737       28.806        0.057      328.038       -6.111      859.011
12/04/2013  09:51:00      108.179       84.952       21.424      108.254       80.699       62.124    11718.862     6512.284     3859.416        2.073        1.105      137.549       42.339        0.095      328.083       -6.039      859.006
12/04/2013  09:52:00       48.782      120.932       -4.181       59.098       87.400       55.481     3492.536     7638.739     3078.109        1.561        0.710      130.401       46.766        0.129      327.973       -6.218      859.002
12/04/2013  09:53:00       45.502      141.929        1.414       78.438       83.904       49.616     6152.475     7039.899     2461.780        1.893        0.783      149.045       38.234        0.066      328.054       -6.086      859.007
12/04/2013  09:54:00       68.544       61.677      -16.927       72.018       59.261       37.718     5186.535     3511.872     1422.674        0.945        0.506       92.209       26.089        0.080      328.082       -6.039      859.018
12/04/2013  09:55:00       41.358      108.251       -5.536       57.428       76.823       43.511     3297.958     5901.716     1893.197        1.227        0.555      115.882       33.795        0.085      328.070       -6.060      859.028
12/04/2013  09:56:00       32.331       96.752        0.992       67.279       85.197       49.890     4526.502     7258.601     2489.035        1.234        0.714      102.011       51.803        0.258      327.973       -6.218      859.041
12/04/2013  09:57:00       64.102      153.112      -21.453       56.507       77.640       49.263     3193.029     6027.980     2426.848        1.983        0.582      165.989       45.114        0.074      327.752       -6.578      859.051
12/04/2013  09:58:00        9.490      265.268      -39.532       42.011       64.589       34.360     1764.915     4171.723     1180.637        3.957        0.356      265.438       22.918        0.007      327.721       -6.632      859.061
12/04/2013  09:59:00       15.098      197.505      -16.633       44.898       90.013       49.551     2015.819     8102.258     2455.258        2.604        0.629      198.081       57.105        0.083      327.863       -6.399      859.073
12/04/2013  10:00:00        8.700      237.414      -31.616       46.687       89.053       35.490     2179.656     7930.446     1259.506        3.440        0.568      237.573       42.426        0.032      327.756       -6.573      859.073
12/04/2013  10:01:00       36.057       87.126       -4.269       46.564       74.926       43.514     2168.196     5613.935     1893.475        0.929        0.484       94.292       47.494        0.254      328.265       -5.741      859.076
12/04/2013  10:02:00       95.719       91.770        1.539       63.703       81.688       51.825     4058.014     6673.001     2685.849        1.550        0.671      132.604       55.115        0.173      328.093       -6.023      859.080
12/04/2013  10:03:00      129.398       85.609        6.589       99.540       52.432       36.065     9908.271     2749.076     1300.700        1.903        0.698      155.154       25.660        0.027      328.230       -5.800      859.084
12/04/2013  10:04:00      171.912       86.169       12.768       66.155       56.690       44.606     4376.448     3213.748     1989.692        2.336        0.479      192.299       35.917        0.035      328.092       -6.026      859.092
12/04/2013  10:05:00      180.215      111.983       12.696       54.251       49.757       38.978     2943.121     2475.804     1519.311        2.606        0.347      212.174       28.615        0.018      327.799       -6.502      859.104
12/04/2013  10:06:00      125.270       93.368       61.220       94.269       62.078       58.351     8886.650     3853.719     3404.880        2.215        0.807      156.238       45.901        0.086      328.051       -6.090      859.098
12/04/2013  10:07:00       54.961       94.805       61.874       69.126       57.980       72.936     4778.355     3361.641     5319.600        1.465        0.673      109.584       47.553        0.188      328.180       -5.880      859.094
12/04/2013  10:08:00       92.069       67.350       37.114       72.349       64.007       48.069     5234.330     4096.959     2310.652        1.301        0.582      114.074       39.503        0.120      328.037       -6.113      859.095
12/04/2013  10:09:00      131.086       87.703        4.840      103.782       82.643       50.717    10770.638     6829.899     2572.243        2.253        1.009      157.719       33.029        0.044      328.103       -6.006      859.102
12/04/2013  10:10:00       38.506      163.978      -20.062       58.030      106.105       45.783     3367.527    11258.323     2096.082        2.274        0.836      168.439       51.532        0.094      328.066       -6.067      859.120
12/04/2013  10:11:00       63.043      172.074      -12.034       63.002       91.694       61.282     3969.191     8407.799     3755.540        2.493        0.807      183.259       57.184        0.097      327.964       -6.234      859.143
12/04/2013  10:12:00       89.125       71.110        4.670       77.113       74.585       51.136     5946.468     5562.971     2614.846        1.357        0.706      114.017       49.692        0.190      328.034       -6.119      859.142
12/04/2013  10:13:00       69.192       57.180       11.410       67.764       64.925       49.207     4592.019     4215.255     2421.347        0.971        0.561       89.761       33.183        0.137      328.147       -5.933      859.149
12/04/2013  10:14:00       48.278      138.808       -1.556       61.048      105.242       57.847     3726.909    11075.778     3346.291        1.987        0.907      146.964       64.002        0.190      327.969       -6.225      859.142
12/04/2013  10:15:00      124.065       82.359       10.644       75.453       40.240       46.794     5693.124     1619.254     2189.722        1.589        0.475      148.913       22.612        0.023      328.153       -5.924      859.142
12/04/2013  10:16:00      115.165       83.683       20.893       58.532       52.189       46.589     3425.978     2723.685     2170.581        1.451        0.416      142.358       15.669        0.012      328.194       -5.858      859.128
12/04/2013  10:17:00      116.991       79.250       38.957       47.907       43.238       46.149     2295.104     1869.544     2129.733        1.389        0.315      141.306       35.337        0.063      328.406       -5.512      859.101
12/04/2013  10:18:00      185.829       92.495       22.820       58.609       52.553       51.268     3435.068     2761.830     2628.406        2.622        0.441      207.576       32.917        0.025      328.141       -5.945      859.098
12/04/2013  10:19:00      123.904      104.711        3.648       86.064       56.302       45.732     7407.098     3169.954     2091.450        1.950        0.633      162.224       28.358        0.031      328.135       -5.955      859.072
12/04/2013  10:20:00      139.334       95.530       40.179       77.568       65.717       49.118     6016.828     4318.760     2412.539        2.145        0.637      168.938       35.455        0.044      328.214       -5.826      859.050
12/04/2013  10:21:00      210.386       99.966       30.640       77.825       71.173       60.865     6056.749     5065.662     3704.593        3.501        0.741      232.928       42.993        0.034      328.052       -6.091      859.031
12/04/2013  10:22:00       55.016       64.691       24.811       54.329       68.972       46.016     2951.598     4757.154     2117.479        0.882        0.491       84.922       33.513        0.156      328.525       -5.317      859.023
12/04/2013  10:23:00      189.622      103.084        9.031       80.440       53.781       44.426     6470.575     2892.403     1973.627        2.900        0.567      215.830       31.292        0.021      328.209       -5.836      859.026
12/04/2013  10:24:00       64.294       98.857        3.300       72.659       71.337       38.861     5279.360     5088.983     1510.163        1.290        0.594      117.925       36.659        0.097      328.333       -5.630      859.033
12/04/2013  10:25:00      128.846       95.657       53.419       97.283       64.394       68.694     9463.912     4146.613     4718.844        2.346        0.916      160.473       65.290        0.166      328.484       -5.385      859.024
12/04/2013  10:26:00       61.652       96.101       13.369       65.301       64.349       63.150     4264.256     4140.796     3987.936        1.280        0.620      114.177       43.175        0.143      328.627       -5.151      859.013
12/04/2013  10:27:00      102.440       82.406       -0.018       72.487       60.589       39.643     5254.347     3671.001     1571.598        1.389        0.525      131.471       23.974        0.033      328.405       -5.514      859.012
12/04/2013  10:28:00      128.273       82.021       31.508       97.743       50.447       57.864     9553.691     2544.932     3348.288        1.981        0.772      152.254       35.347        0.054      328.336       -5.627      859.006
12/04/2013  10:29:00      102.444       83.398       41.545       51.337       39.252       43.958     2635.447     1540.735     1932.340        1.264        0.305      132.098       31.505        0.057      328.675       -5.072      858.984
12/04/2013  10:30:00       94.983       60.806       42.209       64.385       50.575       49.340     4145.398     2557.862     2434.389        1.182        0.457      112.779       40.038        0.126      328.403       -5.516      858.980
12/04/2013  10:31:00       74.459       87.900       24.397       59.225       48.662       49.091     3507.631     2367.953     2409.900        1.107        0.414      115.198       34.076        0.087      328.564       -5.255      858.956
12/04/2013  10:32:00       57.364      131.537       12.957       64.451       81.655       57.927     4153.959     6667.598     3355.587        1.747        0.709      143.501       53.198        0.137      328.400       -5.522      858.950
12/04/2013  10:33:00       45.635      128.064       -8.457       65.361       70.355       49.070     4272.107     4949.799     2407.892        1.509        0.581      135.952       39.409        0.084      328.565       -5.253      858.944
12/04/2013  10:34:00       70.296      152.994       -9.682       65.483      101.743       50.232     4288.085    10351.597     2523.300        2.280        0.858      168.371       49.955        0.088      328.441       -5.457      858.966
12/04/2013  10:35:00       55.075      183.131      -17.109       63.522      103.958       55.810     4035.003    10807.234     3114.800        2.741        0.898      191.234       61.624        0.104      328.439       -5.459      858.976
12/04/2013  10:36:00      178.034      146.384       22.672      109.076       67.543       58.607    11897.659     4562.080     3434.762        3.676        0.995      230.487       34.384        0.022      328.212       -5.828      858.986
12/04/2013  10:37:00       97.966      161.616      -19.576       82.008      117.496       61.884     6725.320    13805.397     3829.610        3.023        1.218      188.990       60.927        0.104      328.133       -5.957      858.996
12/04/2013  10:38:00      104.732      148.184       -3.576       72.516       88.394       66.774     5258.518     7813.438     4458.783        2.523        0.877      181.459       59.894        0.109      328.231       -5.798      858.994
12/04/2013  10:39:00       47.031      130.397       -8.281       76.820       70.565       49.394     5901.373     4979.426     2439.722        1.630        0.666      138.619       45.158        0.106      328.346       -5.610      858.968
12/04/2013  10:40:00      109.695      176.971       -1.853       86.780       75.591       66.782     7530.824     5714.051     4459.856        3.053        0.885      208.211       50.816        0.060      328.308       -5.673      858.938
12/04/2013  10:41:00      114.668      169.933        4.723      114.356      110.215       70.502    13077.259    12147.430     4970.491        3.612        1.510      205.002       62.510        0.093      328.415       -5.500      858.913
12/04/2013  10:42:00      198.140      135.345       20.806      101.030       68.115       56.908    10206.992     4639.656     3238.509        3.804        0.904      239.954       36.287        0.023      328.207       -5.837      858.896
12/04/2013  10:43:00      173.345      123.327       13.289      112.590       86.217       56.378    12676.521     7433.445     3178.514        3.436        1.164      212.739       31.930        0.023      328.283       -5.713      858.867
12/04/2013  10:44:00       39.026       80.828       -5.209       51.451       48.134       37.261     2647.201     2316.914     1388.383        0.722        0.318       89.756       13.500        0.023      328.578       -5.231      858.855
12/04/2013  10:45:00       62.561      140.106       -3.618       59.772       86.773       57.798     3572.702     7529.572     3340.597        1.900        0.722      153.439       50.601        0.109      328.546       -5.285      858.840
12/04/2013  10:46:00       56.860      100.836        4.655       66.807       94.192       51.265     4463.189     8872.065     2628.127        1.469        0.798      115.763       39.895        0.119      328.648       -5.117      858.827
12/04/2013  10:47:00       58.439      108.992        5.634       67.763       75.793       66.195     4591.856     5744.505     4381.802        1.502        0.736      123.670       52.374        0.179      328.599       -5.198      858.786
12/04/2013  10:48:00       40.693      104.167        2.737       71.863      108.075       51.762     5164.308    11680.217     2679.295        1.602        0.976      111.833       58.850        0.277      328.706       -5.023      858.768
12/04/2013  10:49:00      102.835      124.298        4.268       83.891      102.253       59.758     7037.736    10455.678     3571.019        2.355        1.053      161.323       54.221        0.113      328.675       -5.074      858.754
12/04/2013  10:50:00       77.061      202.079      -13.695       86.502      101.267       66.543     7482.617    10255.053     4428.021        3.456        1.108      216.273       60.141        0.077      328.466       -5.415      858.739
12/04/2013  10:51:00      112.798      102.934       -1.824       74.964       52.839       51.883     5619.570     2791.945     2691.816        1.721        0.555      152.705       36.973        0.059      328.407       -5.512      858.739
12/04/2013  10:52:00       88.494       63.111        5.568       73.250       45.057       36.466     5365.526     2030.101     1329.760        1.028        0.436      108.693       28.310        0.068      328.702       -5.029      858.742
12/04/2013  10:53:00       70.532       71.266        8.849       70.366       70.900       51.713     4951.425     5026.740     2674.193        1.139        0.633      100.268       44.049        0.193      328.819       -4.838      858.746
12/04/2013  10:54:00      133.628       87.126       24.373       93.654       59.937       54.945     8771.057     3592.427     3018.969        2.071        0.769      159.523       39.126        0.060      328.527       -5.316      858.727
12/04/2013  10:55:00      141.210       91.330       10.589       93.294       57.729       59.607     8703.689     3332.582     3552.992        2.199        0.779      168.171       31.206        0.034      328.494       -5.371      858.725
12/04/2013  10:56:00      144.136      109.893       41.306       87.815       74.792       70.362     7711.469     5593.770     4950.857        2.640        0.913      181.251       50.922        0.079      328.668       -5.086      858.723
12/04/2013  10:57:00      191.374       95.478       19.480      103.437       70.970       66.537    10699.141     5036.677     4427.182        3.314        1.008      213.869       56.180        0.069      328.575       -5.240      858.710
12/04/2013  10:58:00      136.490       70.823       43.601       61.920       64.944       46.484     3834.097     4217.780     2160.761        1.788        0.511      153.770       23.819        0.024      328.766       -4.925      858.701
12/04/2013  10:59:00      191.851      100.227       25.097       94.463       89.105       75.545     8923.291     7939.788     5707.053        3.502        1.129      216.453       50.403        0.054      328.851       -4.787      858.694
12/04/2013  11:00:00      139.561       89.983       70.566      108.511      107.567       90.548    11774.733    11570.652     8198.890        3.204        1.577      166.055       72.351        0.190      328.690       -5.051      858.667
12/04/2013  11:01:00      118.330       97.537       68.105       96.553       63.984       47.804     9322.439     4093.995     2285.224        2.192        0.785      153.348       42.791        0.078      328.610       -5.182      858.657
12/04/2013  11:02:00      135.337      -46.395       49.912       93.988       78.181       53.401     8833.657     6112.203     2851.661        2.038        0.890      143.068       48.922        0.117      328.662       -5.096      858.631
12/04/2013  11:03:00       72.538       56.691       37.239       65.268       62.915       47.502     4259.891     3958.346     2256.396        1.017        0.524       92.063       29.669        0.104      329.007       -4.530      858.607
12/04/2013  11:04:00       79.723      112.276       94.337       73.294       63.493       66.422     5371.951     4031.402     4411.906        2.084        0.691      137.701       56.592        0.169      328.908       -4.695      858.608
12/04/2013  11:05:00       88.915       54.909      110.351       98.057      139.128       95.190     9615.251    19356.596     9061.219        3.056        1.902      104.502      100.680        0.928      328.933       -4.652      858.594
12/04/2013  11:06:00      140.501        3.645      105.184       89.759      187.235       91.643     8056.676    35057.011     8398.484        4.115        2.576      140.548      118.691        0.713      328.720       -5.001      858.586
12/04/2013  11:07:00      112.802       72.059      104.785       80.855       77.496       63.989     6537.491     6005.581     4094.547        2.276        0.832      133.854       58.850        0.193      328.627       -5.154      858.627
12/04/2013  11:08:00      145.581      139.490      102.767       76.394       84.260       65.698     5836.110     7099.831     4316.289        3.423        0.863      201.622       64.186        0.101      328.410       -5.508      858.623
12/04/2013  11:09:00       91.997       76.869       76.420      109.922       88.317       61.704    12082.781     7799.971     3807.352        2.195        1.185      119.885       50.046        0.174      328.753       -4.946      858.626
12/04/2013  11:10:00      226.356      109.551      123.437      119.758      102.700       94.305    14341.859    10547.309     8893.516        5.612        1.689      251.473       85.840        0.117      328.428       -5.480      858.643
12/04/2013  11:11:00      162.236      174.504      123.165       74.249       69.459       66.070     5512.951     4824.522     4365.268        4.332        0.735      238.269       46.726        0.038      328.495       -5.370      858.666
12/04/2013  11:12:00       62.040      112.960      120.408       74.041       87.135       60.984     5481.996     7592.461     3719.078        2.395        0.840      128.875       62.085        0.232      328.683       -5.062      858.667
12/04/2013  11:13:00      156.067      109.305       84.287       85.743       87.346       63.898     7351.931     7629.278     4083.008        3.123        0.953      190.538       57.960        0.093      328.618       -5.168      858.658
12/04/2013  11:14:00       78.747       69.248       85.105       86.032       78.710       65.528     7401.564     6195.278     4293.902        1.806        0.895      104.863       58.512        0.311      328.751       -4.949      858.666
12/04/2013  11:15:00      122.338       98.573       73.601       80.470       66.241       65.740     6475.477     4387.878     4321.781        2.264        0.759      157.109       50.655        0.104      328.526       -5.317      858.662
12/04/2013  11:16:00       92.673       76.228       99.341       72.423       82.808       55.086     5245.031     6857.112     3034.484        1.970        0.757      119.996       58.232        0.235      328.602       -5.193      858.651
12/04/2013  11:17:00       11.647       93.848      117.549       42.018       58.618       28.787     1765.472     3436.017      828.689        1.439        0.302       94.568       36.639        0.150      328.636       -5.137      858.654
12/04/2013  11:18:00       53.486       61.819       90.730       56.914       60.988       47.396     3239.210     3719.565     2246.374        1.206        0.460       81.745       46.038        0.317      328.813       -4.847      858.651
12/04/2013  11:19:00      112.273      114.385      117.768      127.303       75.850       81.433    16206.154     5753.149     6631.255        3.407        1.430      160.278       83.402        0.271      328.711       -5.016      858.633
12/04/2013  11:20:00      116.274       75.372       32.750       60.993       51.378       43.997     3720.090     2639.693     1935.693        1.428        0.415      138.566       31.138        0.050      328.679       -5.067      858.638
12/04/2013  11:21:00      128.042       61.359        8.420       71.433       49.582       43.106     5102.633     2458.370     1858.158        1.482        0.471      141.985       18.804        0.018      328.639       -5.132      858.624
12/04/2013  11:22:00      149.597       80.792       57.681       57.185       42.357       45.151     3270.150     1794.108     2038.638        1.967        0.355      170.020       30.094        0.031      328.822       -4.833      858.617
12/04/2013  11:23:00      101.882       82.013       41.429       38.938       27.791       31.314     1516.167      772.364      980.597        1.105        0.163      130.790       18.510        0.020      328.566       -5.250      858.598
12/04/2013  11:24:00      131.985      107.319       39.328       58.119       39.862       42.292     3377.787     1588.941     1788.652        1.862        0.338      170.110       29.826        0.031      328.780       -4.903      858.584
12/04/2013  11:25:00      192.777      127.393       17.153       73.851       55.422       54.185     5453.988     3071.612     2936.064        3.257        0.573      231.067       15.606        0.005      328.688       -5.055      858.589
12/04/2013  11:26:00      147.446      113.430       15.386       83.408       65.791       45.438     6956.887     4328.468     2064.614        2.409        0.667      186.029       31.204        0.028      328.571       -5.245      858.595
12/04/2013  11:27:00       92.445      107.359       10.880       91.574       60.414       47.847     8385.809     3649.808     2289.327        1.725        0.716      141.676       38.880        0.075      328.493       -5.370      858.593
12/04/2013  11:28:00      175.607      106.936       24.208       56.752       47.956       39.589     3220.838     2299.763     1567.262        2.497        0.354      205.605       21.896        0.011      328.421       -5.488      858.598
12/04/2013  11:29:00      158.986      111.717       19.776       63.261       42.506       42.170     4001.909     1806.718     1778.327        2.287        0.379      194.312       16.798        0.007      328.434       -5.468      858.605
12/04/2013  11:30:00      137.448       74.773       43.516       72.869       49.443       45.742     5309.963     2444.626     2092.325        1.811        0.492      156.470       28.553        0.033      328.600       -5.197      858.603
12/04/2013  11:31:00      166.409       85.582       46.484       58.844       47.109       48.533     3462.626     2219.272     2355.478        2.261        0.402      187.127       23.411        0.016      328.526       -5.318      858.595
12/04/2013  11:32:00       72.107        9.188       21.910       70.343       68.074       43.828     4948.127     4634.127     1920.910        0.863        0.575       72.690       44.383        0.373      328.906       -4.696      858.591
12/04/2013  11:33:00      112.420       83.482       65.616       63.362       51.539       44.670     4014.797     2656.314     1995.424        1.629        0.433      140.027       26.436        0.036      328.887       -4.727      858.573
12/04/2013  11:34:00       57.685      -31.345       23.737       79.707       67.771       49.275     6353.129     4592.881     2427.999        0.912        0.669       65.651       46.949        0.511      328.947       -4.629      858.554
12/04/2013  11:35:00       84.223      -34.425       29.029       72.829       66.173       38.187     5303.997     4378.890     1458.283        1.013        0.557       90.986       48.273        0.281      329.027       -4.497      858.543
12/04/2013  11:36:00      106.541       88.553       83.214       96.715       83.471       49.267     9353.696     6967.479     2427.193        2.243        0.937      138.538       37.429        0.073      328.995       -4.553      858.535
12/04/2013  11:37:00       68.411       49.862       37.332       87.484       56.861       54.105     7653.520     3233.166     2927.401        1.118        0.691       84.654       48.288        0.325      328.962       -4.604      858.526
12/04/2013  11:38:00      138.768      145.364      104.126       89.459       82.939       71.542     8002.868     6878.897     5118.215        3.561        1.000      200.966       57.380        0.082      328.889       -4.726      858.518
12/04/2013  11:39:00      166.457      229.282      182.663      106.034       88.167       78.122    11243.313     7773.363     6103.055        6.938        1.256      283.334       70.115        0.061      328.590       -5.215      858.493
12/04/2013  11:40:00      140.732      134.270      133.876       91.694       89.369       76.209     8407.738     7986.896     5807.832        3.898        1.110      194.509       54.815        0.079      328.660       -5.101      858.494
12/04/2013  11:41:00       76.462       -9.332       52.428       99.623      103.980       62.512     9924.658    10811.918     3907.807        1.666        1.232       77.029       56.523        0.538      328.903       -4.704      858.497
12/04/2013  11:42:00      238.748     -253.831      -31.352       81.780       84.487       55.835     6687.981     7138.038     3117.534        6.968        0.847      348.469       50.966        0.021      328.674       -5.078      858.484
12/04/2013  11:43:00      176.914     -153.104       -5.232       79.718       93.696       55.722     6355.032     8778.865     3104.990        3.650        0.912      233.965       71.338        0.093      328.781       -4.903      858.480
12/04/2013  11:44:00      160.906     -214.619      -16.081       82.150       77.847       50.410     6748.564     6060.161     2541.182        4.378        0.767      268.239       32.750        0.015      328.828       -4.826      858.481
12/04/2013  11:45:00      115.991     -190.225        8.218       87.410      117.745       59.307     7640.517    13863.776     3517.337        3.736        1.251      222.799       75.837        0.116      328.901       -4.707      858.453
12/04/2013  11:46:00       70.217       37.349      101.322       92.028       85.466       55.891     8469.242     7304.517     3123.749        1.774        0.945       79.532       48.844        0.377      329.164       -4.276      858.449
12/04/2013  11:47:00       84.615       16.769       72.322       70.135       66.363       43.679     4918.888     4404.103     1907.830        1.195        0.562       86.261       39.399        0.209      328.806       -4.859      858.443
12/04/2013  11:48:00       38.442       58.343       89.541       59.289       64.286       54.561     3515.161     4132.705     2976.900        1.176        0.531       69.869       46.850        0.450      329.109       -4.364      858.433
12/04/2013  11:49:00      135.306       34.825       75.013      114.887       55.468       54.651    13199.112     3076.705     2986.712        2.220        0.963      139.715       52.006        0.139      328.901       -4.706      858.417
12/04/2013  11:50:00      129.055       93.412       97.845       74.871       71.535       55.964     5605.653     5117.313     3131.915        2.440        0.693      159.314       52.443        0.108      328.832       -4.819      858.397
12/04/2013  11:51:00      168.054       91.339       61.542       67.389       62.024       42.637     4541.276     3846.956     1817.889        2.529        0.510      191.272       32.160        0.028      328.689       -5.051      858.394
12/04/2013  11:52:00      132.127       72.225       44.471       96.057       75.158       70.997     9226.903     5648.786     5040.623        2.228        0.996      150.578       64.437        0.183      328.849       -4.790      858.366
12/04/2013  11:53:00       68.038       -8.649       52.160       78.200       90.614       59.334     6115.314     8210.889     3520.560        1.263        0.892       68.586       50.606        0.544      329.032       -4.492      858.357
12/04/2013  11:54:00       29.452      -16.635       44.333       39.859       39.699       38.663     1588.728     1575.999     1494.818        0.388        0.233       33.825       23.527        0.484      329.160       -4.281      858.348
12/04/2013  11:55:00       42.522        8.039       43.421       58.231       61.270       42.996     3390.811     3753.998     1848.659        0.637        0.450       43.275       48.856        1.275      329.097       -4.383      858.340
12/04/2013  11:56:00       93.076      105.274       65.271       72.169       52.033       60.309     5208.373     2707.443     3637.169        1.778        0.578      140.519       44.575        0.101      328.709       -5.019      858.344
12/04/2013  11:57:00       77.501       46.744       34.877       50.518       30.473       45.032     2552.046      928.577     2027.868        0.746        0.275       90.507       22.081        0.060      328.870       -4.753      858.340
12/04/2013  11:58:00       61.978       39.202       48.216       47.584       52.460       47.571     2264.230     2752.084     2262.997        0.749        0.364       73.335       29.357        0.160      329.198       -4.220      858.336
12/04/2013  11:59:00      103.097       65.269       28.253       54.806       49.906       35.632     3003.648     2490.623     1269.616        1.122        0.338      122.021       17.847        0.021      329.193       -4.228      858.351
12/04/2013  12:00:00       43.524       76.892       78.498       69.953       75.521       60.798     4893.473     5703.420     3696.455        1.413        0.715       88.355       39.746        0.202      329.286       -4.075      858.338
12/04/2013  12:01:00       59.728       38.204       60.041       85.143       67.068       63.641     7249.397     4498.179     4050.223        1.221        0.790       70.901       53.001        0.559      329.198       -4.219      858.343
12/04/2013  12:02:00      158.893      125.596       14.519       78.097       56.790       46.782     6099.127     3225.139     2188.523        2.637        0.576      202.537       23.224        0.013      328.751       -4.951      858.372
12/04/2013  12:03:00      123.130       98.546        3.156       40.402       34.671       38.310     1632.306     1202.076     1467.681        1.459        0.215      157.710       22.755        0.021      328.605       -5.186      858.378
12/04/2013  12:04:00       98.134       95.663        4.945       65.865       55.950       55.005     4338.250     3130.451     3025.505        1.465        0.525      137.046       43.460        0.101      328.741       -4.966      858.386
12/04/2013  12:05:00      162.597      118.396        2.880       42.194       42.755       37.517     1780.353     1828.006     1407.515        2.274        0.251      201.136       22.842        0.013      328.605       -5.188      858.380
12/04/2013  12:06:00       93.227       81.826       35.824       64.636       38.887       44.437     4177.854     1512.232     1974.628        1.217        0.383      124.043       40.869        0.109      329.004       -4.536      858.372
12/04/2013  12:07:00      126.350      112.595       30.495       50.748       51.532       44.523     2575.349     2655.553     1982.335        1.839        0.361      169.240       33.575        0.039      328.929       -4.660      858.375
12/04/2013  12:08:00       86.310       64.871       56.030       67.489       50.632       47.979     4554.832     2563.579     2301.947        1.211        0.471      107.971       38.667        0.128      329.075       -4.421      858.365
12/04/2013  12:09:00       93.229       -1.652       68.455       76.108      118.054       68.530     5792.402    13936.783     4696.398        1.890        1.221       93.244       78.983        0.718      329.134       -4.323      858.355
12/04/2013  12:10:00      128.504      -32.909       47.217       79.081      127.740       68.019     6253.725    16317.486     4626.640        2.351        1.360      132.651       80.464        0.368      328.987       -4.565      858.352
12/04/2013  12:11:00      103.111      117.513      103.003       83.459       75.999       59.382     6965.332     5775.887     3526.178        2.566        0.813      156.337       59.002        0.142      329.051       -4.462      858.341
12/04/2013  12:12:00      117.300       16.696       83.504      103.771       74.568       58.997    10768.453     5560.317     3480.670        2.041        0.990      118.483       50.680        0.183      328.982       -4.573      858.341
12/04/2013  12:13:00       59.082       60.111       80.587       84.477       76.934       67.650     7136.396     5918.804     4576.462        1.561        0.882       84.286       55.622        0.436      329.087       -4.400      858.321
12/04/2013  12:14:00      101.036       78.252       89.899       86.279       66.430       52.207     7444.129     4412.925     2725.610        1.950        0.729      127.795       48.045        0.141      329.030       -4.495      858.299
12/04/2013  12:15:00      140.358       84.951       63.629       77.207       64.533       56.585     5960.895     4164.543     3201.906        2.214        0.666      164.065       46.218        0.079      328.930       -4.657      858.263
12/04/2013  12:16:00      137.055       57.887       45.629       77.861       83.967       68.748     6062.362     7050.509     4726.276        2.102        0.892      148.778       57.953        0.152      328.764       -4.930      858.232
12/04/2013  12:17:00      149.754      110.119       51.068       95.449       43.735       58.226     9110.490     1912.761     3390.318        2.578        0.721      185.883       44.321        0.057      328.757       -4.941      858.199
12/04/2013  12:18:00      137.876       58.610       35.927       63.325       62.231       50.239     4010.021     3872.646     2523.995        1.707        0.520      149.816       36.429        0.059      328.852       -4.785      858.183
12/04/2013  12:19:00      104.494       84.016       79.225       71.284       51.156       54.719     5081.403     2616.923     2994.149        1.747        0.535      134.081       46.005        0.118      328.961       -4.606      858.167
12/04/2013  12:20:00       37.052       57.395       72.593       39.682       39.282       30.986     1574.656     1543.071      960.141        0.701        0.204       68.316       25.331        0.137      329.147       -4.302      858.147
12/04/2013  12:21:00       67.192      -77.833       12.503       48.149       90.697       50.514     2318.328     8225.963     2551.699        1.191        0.655      102.824       61.474        0.357      329.222       -4.179      858.150
12/04/2013  12:22:00      119.185     -139.684      -19.343       48.812       44.680       28.277     2382.573     1996.301      799.566        1.963        0.259      183.620       17.424        0.009      328.832       -4.819      858.143
12/04/2013  12:23:00       64.296      -21.855       48.946       70.273       81.868       62.579     4938.279     6702.288     3916.147        1.128        0.778       67.909       71.563        1.111      329.223       -4.178      858.123
12/04/2013  12:24:00      160.494      114.183       77.429       69.051       75.916       64.596     4768.108     5763.298     4172.598        2.974        0.735      196.968       49.949        0.064      328.959       -4.612      858.116
12/04/2013  12:25:00       99.800       84.661       95.043       74.110       73.879       52.171     5492.262     5458.076     2721.822        1.991        0.684      130.872       52.485        0.161      329.059       -4.447      858.117
12/04/2013  12:26:00      105.768       58.954       52.043       48.817       39.273       39.415     2383.138     1542.370     1553.517        1.142        0.274      121.089       24.019        0.039      328.933       -4.651      858.121
12/04/2013  12:27:00      116.855      100.780      105.232       87.523       79.799       62.619     7660.313     6367.880     3921.124        2.641        0.897      154.310       59.934        0.151      329.043       -4.473      858.110
12/04/2013  12:28:00      110.564      105.183       50.421      107.297       72.774       66.037    11512.592     5295.992     4360.845        2.350        1.058      152.604       69.195        0.206      328.935       -4.650      858.117
12/04/2013  12:29:00      164.967       80.721       18.996       70.856       47.148       48.639     5020.626     2222.979     2365.796        2.185        0.480      183.657       25.184        0.019      328.880       -4.740      858.117
12/04/2013  12:30:00      128.157       83.085       14.572       65.461       53.539       40.960     4285.114     2866.413     1677.732        1.618        0.441      152.733       32.167        0.044      329.026       -4.501      858.108
12/04/2013  12:31:00       69.317       51.454       24.137       52.892       30.279       29.129     2797.563      916.839      848.477        0.630        0.228       86.327       19.012        0.049      328.964       -4.600      858.105
12/04/2013  12:32:00      138.066      105.478       49.621       92.212       68.680       74.605     8503.064     4716.922     5565.968        2.571        0.939      173.747       54.424        0.098      329.041       -4.478      858.096
12/04/2013  12:33:00      196.091      129.798       36.786       74.410       70.155       57.123     5536.849     4921.756     3263.059        3.518        0.686      235.158       34.954        0.022      328.938       -4.647      858.087
12/04/2013  12:34:00      177.318      106.949       82.674      121.577       94.460       87.247    14780.961     8922.764     7612.041        4.051        1.566      207.074       76.231        0.136      329.046       -4.470      858.070
12/04/2013  12:35:00       82.998      132.143      163.426       88.095       86.499       58.822     7760.675     7482.027     3460.008        3.488        0.935      156.046       61.771        0.157      328.873       -4.752      858.083
12/04/2013  12:36:00       72.021       37.258       73.087       75.323       83.560       55.155     5673.545     6982.259     3042.066        1.380        0.785       81.087       58.707        0.524      328.925       -4.664      858.087
12/04/2013  12:37:00       26.188       25.065       59.398       55.811       64.467       41.552     3114.833     4156.000     1726.591        0.692        0.450       36.250       33.596        0.859      329.177       -4.253      858.086
12/04/2013  12:38:00       42.663       31.015       24.762       64.672       53.093       44.699     4182.500     2818.873     1998.043        0.620        0.450       52.745       27.522        0.272      329.251       -4.133      858.086
12/04/2013  12:39:00      215.510      134.368       22.850       76.647       47.035       60.126     5874.816     2212.334     3615.170        3.836        0.585      253.967       36.780        0.021      328.909       -4.696      858.099
12/04/2013  12:40:00      124.470       96.410       15.694       68.631       50.206       42.606     4710.178     2520.674     1815.310        1.704        0.452      157.441       29.102        0.034      329.034       -4.488      858.109
12/04/2013  12:41:00      136.855       86.162       18.781       80.085       67.551       46.498     6413.602     4563.195     2162.061        1.982        0.657      161.719       44.555        0.076      329.021       -4.509      858.111
12/04/2013  12:42:00      195.439      133.602       14.987       44.494       40.179       33.379     1979.754     1614.387     1114.166        3.049        0.235      236.741       15.110        0.004      328.722       -4.999      858.116
12/04/2013  12:43:00       90.335       74.180       12.766       55.486       35.252       34.224     3078.746     1242.703     1171.310        0.966        0.275      116.889       15.759        0.018      328.860       -4.771      858.124
12/04/2013  12:44:00       57.482       34.247        4.951       31.640       28.703       27.034     1001.120      823.886      730.863        0.353        0.128       66.911       18.173        0.074      329.033       -4.488      858.118
12/04/2013  12:45:00      141.655      121.828       12.521       96.689       64.063       52.637     9348.700     4104.075     2770.682        2.564        0.811      186.837       28.272        0.023      328.978       -4.580      858.117
12/04/2013  12:46:00       70.304      103.552       11.528       85.606       70.870       60.230     7328.392     5022.549     3627.700        1.589        0.799      125.163       45.378        0.131      328.904       -4.700      858.122
12/04/2013  12:47:00      162.889      103.143       20.579       99.108       80.139       52.717     9822.491     6422.263     2779.130        2.831        0.951      192.798       28.582        0.022      328.986       -4.567      858.110
12/04/2013  12:48:00      210.382      162.423        9.634       68.341       55.057       62.876     4670.547     3031.227     3953.417        4.119        0.583      265.785       30.899        0.014      328.837       -4.812      858.097
12/04/2013  12:49:00      148.034       92.340       18.990       70.236       61.137       46.950     4933.038     3737.744     2204.280        2.084        0.544      174.473       36.714        0.044      328.966       -4.598      858.087
12/04/2013  12:50:00      111.427       67.891        8.347       84.752       51.904       44.680     7182.875     2694.008     1996.339        1.448        0.594      130.481       36.448        0.078      329.153       -4.292      858.079
12/04/2013  12:51:00       88.838      102.103       11.050       79.633       65.817       53.504     6341.371     4331.870     2862.680        1.598        0.677      135.341       47.616        0.124      328.998       -4.547      858.088
12/04/2013  12:52:00      179.299      146.939       24.303       99.522       61.297       60.639     9904.710     3757.305     3677.054        3.583        0.867      231.817       41.472        0.032      328.880       -4.742      858.101
12/04/2013  12:53:00      100.690      147.668       -9.026       98.892       86.089       63.520     9779.563     7411.248     4034.760        2.662        1.061      178.730       56.541        0.100      328.892       -4.721      858.087
12/04/2013  12:54:00       40.803      170.115        2.156       64.927      111.215       69.376     4215.574    12368.848     4813.079        2.600        1.070      174.939       66.577        0.145      328.903       -4.703      858.066
12/04/2013  12:55:00      118.361      154.670        5.934      108.826       70.853       61.083    11843.065     5020.132     3731.150        2.928        1.030      194.762       51.850        0.071      328.938       -4.646      858.035
12/04/2013  12:56:00      114.124       77.586       -9.019       88.746       68.904       44.667     7875.900     4747.700     1995.167        1.687        0.731      137.999       34.344        0.062      328.999       -4.545      858.015
12/04/2013  12:57:00       87.646       80.007       -4.887       66.255       57.353       33.950     4389.690     3289.346     1152.611        1.147        0.442      118.671       24.437        0.042      329.153       -4.293      858.009
12/04/2013  12:58:00      249.620      198.081       15.993      137.767       74.320       72.748    18979.717     5523.426     5292.215        6.579        1.490      318.663       37.784        0.014      328.896       -4.716      858.010
12/04/2013  12:59:00      115.274      142.011        6.641      122.977      120.476       61.608    15123.267    14514.390     3795.552        3.346        1.672      182.908       57.045        0.097      328.865       -4.764      857.992
12/04/2013  13:00:00      154.596       94.438       21.689       95.409       66.959       50.151     9102.848     4483.563     2515.160        2.469        0.805      181.159       21.852        0.015      328.918       -4.678      857.994
12/04/2013  13:01:00       45.868      145.637       -0.759       57.718       98.036       54.346     3331.402     9611.113     2953.477        1.960        0.795      152.689       60.617        0.158      328.976       -4.583      857.993
12/04/2013  13:02:00       47.312      160.039      -14.177       79.286      109.568       63.923     6286.271    12005.170     4086.141        2.521        1.119      166.886       59.708        0.128      328.889       -4.724      857.987
12/04/2013  13:03:00       71.962      124.924        7.583       83.849       94.234       58.162     7030.716     8879.957     3382.865        2.006        0.965      144.168       54.094        0.141      328.911       -4.687      857.998
12/04/2013  13:04:00      227.317      193.746        5.090      128.086       90.332       72.305    16405.994     8159.804     5227.941        5.951        1.490      298.681       38.929        0.017      328.817       -4.844      857.996
12/04/2013  13:05:00       77.654      106.592       23.662       71.717       97.084       58.781     5143.302     9425.254     3455.247        1.798        0.901      131.879       53.672        0.166      328.931       -4.657      857.992
12/04/2013  13:06:00       43.524      136.949       -8.060       63.446       88.723       55.134     4025.358     7871.785     3039.749        1.782        0.747      143.699       49.496        0.119      328.930       -4.658      857.985
12/04/2013  13:07:00      151.804      132.149       14.321      106.310       63.695       55.484    11301.789     4057.099     3078.500        2.957        0.922      201.266       38.705        0.037      328.885       -4.733      857.989
12/04/2013  13:08:00       99.811      200.361       -2.122       91.552      111.077       64.525     8381.824    12338.077     4163.460        3.749        1.244      223.845       71.047        0.101      328.836       -4.813      857.970
12/04/2013  13:09:00      107.320       86.235        0.916       72.026       50.525       45.319     5187.724     2552.803     2053.845        1.437        0.490      137.674       23.994        0.030      328.967       -4.599      857.960
12/04/2013  13:10:00       54.978       77.224       -3.951       57.859       77.644       40.174     3347.682     6028.598     1613.927        0.999        0.550       94.795       38.378        0.164      328.959       -4.610      857.950
12/04/2013  13:11:00       57.965       67.673       11.992       69.388       70.486       37.930     4814.751     4968.267     1438.697        0.965        0.561       89.105       37.533        0.177      329.017       -4.515      857.946
12/04/2013  13:12:00       63.972       98.269        4.118       59.519       67.651       50.343     3542.486     4576.633     2534.441        1.221        0.533      117.257       42.857        0.134      328.944       -4.633      857.939
12/04/2013  13:13:00       86.115      185.681      -30.865       64.922       90.265       50.818     4214.929     8147.832     2582.497        2.889        0.747      204.679       48.155        0.055      328.928       -4.663      857.922
12/04/2013  13:14:00      163.660       98.724       11.951       90.992       61.809       50.338     8279.484     3820.306     2533.906        2.565        0.732      191.131       25.978        0.018      328.965       -4.601      857.925
12/04/2013  13:15:00      184.343      125.918        7.707       98.621       63.779       53.349     9726.173     4067.811     2846.111        3.327        0.832      223.243       36.969        0.027      328.877       -4.746      857.924
12/04/2013  13:16:00       94.645      120.529      -11.458       75.929       87.454       38.090     5765.176     7648.209     1450.842        1.924        0.743      153.248       42.258        0.076      328.973       -4.589      857.910
12/04/2013  13:17:00       50.436      220.620      -26.964       55.234       95.891       55.621     3050.743     9195.161     3093.717        3.364        0.767      226.312       58.533        0.067      328.870       -4.757      857.898
12/04/2013  13:18:00        4.383      180.150      -20.308       55.878       56.859       36.239     3122.364     3232.981     1313.246        2.028        0.383      180.204       36.359        0.041      328.971       -4.591      857.894
12/04/2013  13:19:00       55.666      131.333       -3.037       67.419       91.810       57.358     4545.275     8429.145     3289.986        1.831        0.813      142.643       55.380        0.151      328.948       -4.629      857.873
12/04/2013  13:20:00       35.590      141.282      -14.684       48.336       72.674       49.972     2336.403     5281.500     2497.225        1.578        0.506      145.696       42.492        0.085      328.926       -4.664      857.841
12/04/2013  13:21:00       47.835       47.099        2.681       64.455       47.571       33.012     4154.412     2263.033     1089.777        0.601        0.375       67.131       21.519        0.103      329.052       -4.457      857.837
12/04/2013  13:22:00        2.795      135.971       -3.159       63.880       80.638       41.431     4080.615     6502.479     1716.553        1.540        0.615      136.000       39.010        0.082      328.982       -4.573      857.815
12/04/2013  13:23:00       59.498      195.098      -17.851       68.972      101.246       58.886     4757.125    10250.799     3467.613        3.020        0.924      203.969       60.095        0.087      328.917       -4.680      857.783
12/04/2013  13:24:00      -14.816      143.167        7.782       72.081      105.151       47.029     5195.633    11056.766     2211.731        1.962        0.923      143.931       58.255        0.164      328.970       -4.593      857.769
12/04/2013  13:25:00       35.732      129.941        1.100       65.300       86.771       54.113     4264.073     7529.226     2928.249        1.644        0.736      134.765       55.442        0.169      329.049       -4.464      857.763
12/04/2013  13:26:00       57.293       67.288       20.971       62.272       62.305       57.446     3877.814     3881.934     3300.044        0.965        0.553       88.375       45.693        0.267      329.002       -4.539      857.761
12/04/2013  13:27:00       82.823      150.288       -7.090       68.712       73.364       55.303     4721.367     5382.224     3058.374        2.133        0.658      171.599       47.577        0.077      328.965       -4.601      857.753
12/04/2013  13:28:00       57.782       97.990       14.972       71.778       89.351       51.251     5152.062     7983.634     2626.681        1.446        0.788      113.758       51.881        0.208      328.975       -4.585      857.737
12/04/2013  13:29:00       26.424      219.029      -32.368       45.777       77.844       36.966     2095.495     6059.688     1366.452        2.962        0.476      220.617       41.017        0.035      328.925       -4.668      857.721
12/04/2013  13:30:00       83.639      147.209       -8.905       72.017       80.378       49.537     5186.439     6460.630     2453.896        2.142        0.705      169.310       47.179        0.078      328.991       -4.557      857.714
12/04/2013  13:31:00      129.144      143.589      -11.923       82.215       86.153       49.977     6759.355     7422.301     2497.697        2.706        0.834      193.122       45.050        0.054      328.924       -4.669      857.687
12/04/2013  13:32:00       56.232       51.832       -0.051       70.955       45.086       34.859     5034.669     2032.780     1215.156        0.706        0.414       76.476       28.176        0.136      329.025       -4.502      857.669
12/04/2013  13:33:00       24.924      123.911       -7.384       47.594       74.176       34.673     2265.217     5502.136     1202.205        1.250        0.448      126.392       35.277        0.078      329.055       -4.452      857.651
12/04/2013  13:34:00       42.145      126.386        4.899       64.431       92.779       50.115     4151.399     8607.916     2511.465        1.652        0.764      133.227       46.400        0.121      329.033       -4.490      857.636
12/04/2013  13:35:00       40.436       42.053        8.760       56.600       52.649       33.673     3203.554     2771.939     1133.848        0.529        0.355       58.340       26.066        0.200      329.096       -4.386      857.640
12/04/2013  13:36:00       50.521       98.911       10.466       58.383       66.449       37.030     3408.531     4415.532     1371.186        1.082        0.460      111.067       33.806        0.093      329.136       -4.322      857.647
12/04/2013  13:37:00       54.692      133.898      -11.114       55.742       79.427       40.540     3107.143     6308.671     1643.509        1.605        0.553      144.637       40.357        0.078      329.023       -4.506      857.651
12/04/2013  13:38:00       49.660      102.155       -3.350       66.653       73.959       56.528     4442.631     5469.986     3195.436        1.301        0.655      113.586       42.383        0.139      328.997       -4.547      857.643
12/04/2013  13:39:00       96.638       96.768       -1.222       95.285       70.753       50.372     9079.156     5005.980     2537.296        1.766        0.831      136.759       42.786        0.098      328.956       -4.616      857.636
12/04/2013  13:40:00      155.132      111.060        5.784       75.430       62.235       40.635     5689.675     3873.204     1651.221        2.382        0.561      190.789       23.926        0.016      328.898       -4.713      857.618
12/04/2013  13:41:00       45.358       90.402      -12.300       55.756       40.992       29.668     3108.720     1680.310      880.195        0.802        0.283      101.143       15.749        0.024      329.060       -4.445      857.611
12/04/2013  13:42:00       52.492      127.404        3.292       54.911       87.129       47.791     3015.205     7591.421     2284.023        1.594        0.645      137.794       48.259        0.123      329.072       -4.426      857.600
12/04/2013  13:43:00       42.731       89.336       -3.372       65.864       74.581       52.737     4338.003     5562.323     2781.144        1.125        0.634       99.029       41.684        0.177      329.062       -4.442      857.596
12/04/2013  13:44:00       56.408      128.513      -16.759       44.993       68.645       44.490     2024.364     4712.125     1979.322        1.435        0.436      140.348       42.938        0.094      328.991       -4.558      857.587
12/04/2013  13:45:00       38.462      183.317      -20.520       43.954       79.777       44.168     1931.942     6364.290     1950.850        2.287        0.512      187.308       46.615        0.062      328.999       -4.546      857.588
12/04/2013  13:46:00       60.154       97.357        7.493       76.460       68.381       42.113     5846.169     4675.937     1773.476        1.272        0.615      114.442       41.441        0.131      328.988       -4.562      857.584
12/04/2013  13:47:00       66.218      105.981        0.479       64.504       73.886       38.718     4160.785     5459.095     1499.081        1.337        0.556      124.967       36.666        0.086      329.091       -4.395      857.584
12/04/2013  13:48:00       43.917      113.627      -16.529       55.727       93.364       40.409     3105.487     8716.823     1632.906        1.428        0.673      121.819       40.897        0.113      329.016       -4.517      857.579
12/04/2013  13:49:00       19.183      145.683       -7.560       50.557      100.233       47.969     2555.988    10046.708     2301.065        1.827        0.745      146.940       52.506        0.128      329.045       -4.470      857.580
12/04/2013  13:50:00       11.233      147.778       -8.916       42.996       67.400       35.601     1848.647     4542.696     1267.441        1.485        0.383      148.204       32.961        0.049      328.975       -4.583      857.570
12/04/2013  13:51:00       55.224       87.750       -3.043       49.056       54.353       37.066     2406.462     2954.235     1373.858        0.875        0.337      103.681       29.649        0.082      328.995       -4.550      857.568
12/04/2013  13:52:00       61.121       56.016        7.781       46.013       48.638       33.288     2117.194     2365.656     1108.067        0.626        0.280       82.907       24.467        0.087      329.012       -4.522      857.553
12/04/2013  13:53:00       33.050       93.400       11.574       47.122       63.606       43.540     2220.518     4045.668     1895.725        0.905        0.408       99.075       40.014        0.163      328.984       -4.569      857.534
12/04/2013  13:54:00       50.995       80.718        3.947       60.062       57.629       49.014     3607.484     3321.091     2402.370        0.923        0.467       95.477       37.312        0.153      328.985       -4.566      857.518
12/04/2013  13:55:00       44.309       97.896        3.692       51.441       89.236       48.681     2646.225     7962.998     2369.834        1.227        0.649      107.457       51.534        0.230      328.961       -4.607      857.499
12/04/2013  13:56:00       48.230       96.246        0.746       50.446       74.953       35.251     2544.755     5617.928     1242.603        1.050        0.470      107.654       39.183        0.132      329.056       -4.451      857.490
12/04/2013  13:57:00       38.727      181.049      -15.407       54.647       94.802       48.681     2986.330     8987.492     2369.841        2.443        0.717      185.145       56.579        0.093      328.953       -4.621      857.488
12/04/2013  13:58:00       30.970      138.265      -20.497       63.442       97.372       50.404     4024.890     9481.363     2540.522        1.827        0.802      141.691       51.555        0.132      328.900       -4.708      857.510
12/04/2013  13:59:00       38.668      126.541       -9.272       42.167       54.966       31.779     1778.089     3021.258     1009.899        1.170        0.290      132.317       33.308        0.063      328.958       -4.610      857.529
12/04/2013  14:00:00       50.588       99.560       -3.002       46.150       71.284       43.194     2129.864     5081.350     1865.720        1.078        0.454      111.675       41.925        0.141      329.000       -4.544      857.536
12/04/2013  14:01:00       10.841      102.572        2.357       44.090       81.178       38.956     1943.958     6589.903     1517.554        1.035        0.503      103.143       41.205        0.160      329.045       -4.471      857.543
12/04/2013  14:02:00       34.515      168.373      -25.873       39.517       69.161       32.340     1561.565     4783.294     1045.873        1.880        0.370      171.874       33.661        0.038      328.904       -4.700      857.541
12/04/2013  14:03:00        0.006      215.175      -24.962       54.834       45.633       30.785     3006.814     2082.341      947.708        2.648        0.302      215.175       24.225        0.013      329.038       -4.483      857.540
12/04/2013  14:04:00       27.108       85.774       -4.799       57.419       60.126       53.834     3296.981     3615.151     2898.148        0.896        0.491       89.955       44.291        0.242      329.052       -4.458      857.541
12/04/2013  14:05:00       20.582       92.390        7.725       50.581       62.101       42.051     2558.426     3856.539     1768.317        0.860        0.409       94.655       39.016        0.170      329.057       -4.449      857.545
12/04/2013  14:06:00       16.290      102.356       -5.549       46.333       92.444       38.788     2146.774     8545.949     1504.530        1.148        0.610      103.644       45.149        0.190      329.023       -4.505      857.545
12/04/2013  14:07:00       -4.134      157.889      -23.363       46.658       58.439       33.701     2176.925     3415.060     1135.782        1.611        0.336      157.943       25.306        0.026      329.035       -4.486      857.555
12/04/2013  14:08:00      -29.538      241.123      -31.199       49.028       42.037       30.309     2403.775     1767.075      918.656        3.254        0.254      242.925       23.582        0.009      328.868       -4.761      857.562
12/04/2013  14:09:00      -30.899      281.261      -42.416       50.193       58.555       21.859     2519.334     3428.667      477.801        4.414        0.321      282.954       10.304        0.001      328.803       -4.867      857.559
12/04/2013  14:10:00      -13.924      210.857      -26.664       54.384       43.708       33.923     2957.575     1910.406     1150.742        2.569        0.301      211.317       27.813        0.017      328.993       -4.556      857.557
12/04/2013  14:11:00        1.719      169.074       -2.973       83.896      108.755       62.742     7038.458    11827.542     3936.554        2.570        1.140      169.083       63.943        0.143      329.006       -4.535      857.556
12/04/2013  14:12:00       78.418      129.157       -7.373       74.202       87.950       61.237     5505.974     7735.115     3749.909        1.993        0.850      151.099       51.793        0.117      328.900       -4.707      857.557
12/04/2013  14:13:00      100.668      116.320        1.940       67.950       67.739       60.300     4617.216     4588.578     3636.129        1.825        0.642      153.832       46.981        0.093      328.854       -4.781      857.555
12/04/2013  14:14:00       98.341      119.152        9.884       79.299       57.630       43.328     6288.314     3321.203     1877.302        1.772        0.574      154.493       37.042        0.057      328.930       -4.659      857.562
12/04/2013  14:15:00       46.530       75.870        6.282       56.795       62.450       47.299     3225.656     3900.018     2237.151        0.866        0.468       89.001       34.437        0.150      328.961       -4.606      857.574
12/04/2013  14:16:00       62.910      118.328       -1.281       74.450       68.557       55.179     5542.786     4700.102     3044.713        1.562        0.664      134.012       41.160        0.094      328.990       -4.560      857.588
12/04/2013  14:17:00       57.621      125.935       -0.733       60.451       86.475       42.610     3654.380     7478.002     1815.598        1.606        0.647      138.491       46.043        0.111      329.018       -4.514      857.590
12/04/2013  14:18:00        9.495      220.132      -19.852       51.846       94.558       50.102     2688.044     8941.171     2510.189        3.154        0.707      220.337       56.071        0.065      328.910       -4.693      857.578
12/04/2013  14:19:00        1.296      289.285      -35.318       54.649       58.779       30.265     2986.492     3454.949      915.944        4.614        0.368      289.288       27.064        0.009      328.916       -4.683      857.561
12/04/2013  14:20:00       57.576      104.783        9.025       66.726       62.394       45.563     4452.319     3893.032     2075.946        1.240        0.521      119.559       41.213        0.119      329.115       -4.356      857.557
12/04/2013  14:21:00       53.193       45.347        4.540       65.297       49.159       38.778     4263.682     2416.631     1503.714        0.654        0.409       69.899       27.988        0.160      329.045       -4.468      857.565
12/04/2013  14:22:00       99.769       67.515        2.984       87.511       60.860       35.977     7658.249     3703.977     1294.366        1.359        0.633      120.466       27.587        0.052      329.159       -4.284      857.570
12/04/2013  14:23:00      165.480       97.237       27.991       74.269       62.790       53.081     5515.958     3942.554     2817.617        2.495        0.614      191.934       34.128        0.032      328.974       -4.587      857.567
12/04/2013  14:24:00      214.583      142.274       43.847       66.765       60.724       47.582     4457.518     3687.443     2264.022        3.931        0.520      257.464       39.345        0.023      328.924       -4.670      857.567
12/04/2013  14:25:00      210.808      158.003       12.027       99.542       58.383       69.746     9908.603     3408.561     4864.573        4.386        0.909      263.448       44.598        0.029      328.879       -4.745      857.569
12/04/2013  14:26:00      135.920      135.551        4.777       91.392       57.936       60.881     8352.573     3356.533     3706.466        2.614        0.771      191.959       40.557        0.045      328.932       -4.655      857.574
12/04/2013  14:27:00      167.089      129.517       15.401       75.612       57.531       52.294     5717.232     3309.804     2734.681        2.834        0.588      211.409       38.782        0.034      328.906       -4.697      857.570
12/04/2013  14:28:00      150.813       79.411       16.859       84.892       63.989       46.454     7206.601     4094.619     2158.017        2.139        0.673      170.442       19.131        0.013      329.023       -4.506      857.561
12/04/2013  14:29:00       92.592       81.665       17.429       64.909       59.374       49.124     4213.124     3525.318     2413.198        1.285        0.508      123.460       35.814        0.084      329.051       -4.460      857.565
12/04/2013  14:30:00       44.469       38.144        9.049       67.937       48.202       50.624     4615.440     2323.435     2562.765        0.651        0.475       58.587       24.437        0.174      329.118       -4.350      857.562
12/04/2013  14:31:00       46.904       40.077       10.730       31.885       25.373       28.900     1016.632      643.775      835.208        0.321        0.125       61.694       13.358        0.047      329.048       -4.464      857.565
12/04/2013  14:32:00       59.566       96.289       16.642       70.590       67.082       47.871     4982.903     4499.978     2291.639        1.243        0.589      113.224       44.329        0.153      329.106       -4.370      857.570
12/04/2013  14:33:00       34.463       54.890       -3.278       40.684       45.516       22.232     1655.165     2071.751      494.256        0.422        0.211       64.812       16.452        0.064      329.218       -4.187      857.575
12/04/2013  14:34:00       33.291       45.877       -1.123       41.723       34.934       18.732     1740.799     1220.392      350.903        0.326        0.166       56.683       16.218        0.082      329.261       -4.115      857.580
12/04/2013  14:35:00      104.105      129.664       14.272       90.793       55.191       49.123     8243.335     3046.085     2413.105        2.078        0.685      166.285       42.000        0.064      329.054       -4.455      857.594
12/04/2013  14:36:00       22.915       79.848       -6.510       51.457       55.425       33.361     2647.808     3071.983     1112.944        0.689        0.342       83.071       30.378        0.134      329.081       -4.410      857.622
12/04/2013  14:37:00       79.910       94.177        9.557       89.481       48.782       37.375     8006.824     2379.717     1396.924        1.356        0.589      123.511       27.702        0.050      329.006       -4.533      857.640
12/04/2013  14:38:00        5.477      128.697       -9.845       40.162       52.857       28.553     1612.979     2793.905      815.268        1.095        0.261      128.813       20.416        0.025      329.103       -4.375      857.654
12/04/2013  14:39:00       17.123      225.905      -25.951       43.501       83.253       32.051     1892.336     6931.119     1027.235        3.092        0.493      226.553       36.573        0.026      329.025       -4.505      857.658
12/04/2013  14:40:00        7.249      147.990      -11.310       53.220       96.521       42.129     2832.316     9316.279     1774.840        1.800        0.696      148.168       45.519        0.094      329.056       -4.452      857.658
12/04/2013  14:41:00      -31.590      223.648      -19.266       41.074       60.841       34.154     1687.046     3701.610     1166.467        2.897        0.328      225.868       31.255        0.019      328.997       -4.551      857.664
12/04/2013  14:42:00      -14.257      183.975      -12.446       53.868       64.650       37.333     2901.716     4179.636     1393.722        2.134        0.424      184.527       35.016        0.036      329.073       -4.424      857.662
12/04/2013  14:43:00       45.412       77.666        8.694       50.111       63.300       31.217     2511.103     4006.949      974.524        0.783        0.375       89.968       31.435        0.122      329.112       -4.358      857.660
12/04/2013  14:44:00       61.166       61.322       15.925       64.745       42.079       43.875     4191.918     1770.677     1925.014        0.782        0.394       86.612       27.251        0.099      329.133       -4.325      857.653
12/04/2013  14:45:00       69.698       69.166      -12.878       31.170       28.505       16.862      971.556      812.529      284.325        0.594        0.103       98.192       11.183        0.013      329.222       -4.179      857.661
12/04/2013  14:46:00       60.247      133.593       -4.669       59.581       89.098       39.560     3549.847     7938.447     1564.959        1.727        0.653      146.550       48.222        0.108      329.098       -4.384      857.667
12/04/2013  14:47:00       13.576      119.161      -15.079       34.736       58.246       21.779     1206.624     3392.642      474.315        0.984        0.254      119.932       16.913        0.020      329.164       -4.274      857.665
12/04/2013  14:48:00       54.226      129.669       -0.258       47.031       81.430       41.129     2211.954     6630.889     1691.578        1.514        0.527      140.551       47.337        0.113      329.060       -4.445      857.670
12/04/2013  14:49:00       30.286      122.409       -9.561       55.289       86.357       35.842     3056.885     7457.451     1284.678        1.389        0.590      126.100       36.018        0.082      329.057       -4.452      857.673
12/04/2013  14:50:00       37.217       32.947        8.777       69.011       48.756       34.083     4762.473     2377.178     1161.623        0.542        0.415       49.705       31.378        0.399      329.090       -4.395      857.670
12/04/2013  14:51:00       91.586       83.908       10.421       82.489       58.365       44.861     6804.505     3406.522     2012.523        1.388        0.611      124.212       31.368        0.064      329.129       -4.331      857.664
12/04/2013  14:52:00       52.259       82.367       12.435       59.896       61.359       50.336     3587.581     3764.899     2533.726        0.978        0.494       97.547       46.938        0.232      328.968       -4.597      857.654
12/04/2013  14:53:00      183.657      136.294       -0.387       73.394       52.839       44.328     5386.636     2791.966     1964.946        3.122        0.507      228.705       34.079        0.022      328.877       -4.746      857.639
12/04/2013  14:54:00      190.194      150.948       23.939      120.091       66.871       52.174    14421.800     4471.737     2722.148        4.057        1.081      242.815       20.743        0.007      328.919       -4.677      857.625
12/04/2013  14:55:00      205.795      127.156       21.551       94.065       79.799       54.567     8848.225     6367.830     2977.612        3.859        0.910      241.910       30.872        0.016      328.876       -4.748      857.624
12/04/2013  14:56:00      214.400      155.484       13.039       95.414       59.670       55.803     9103.759     3560.483     3113.986        4.304        0.789      264.844       25.630        0.009      328.820       -4.839      857.626
12/04/2013  14:57:00      183.170      141.721       13.820       62.168       51.225       56.080     3864.846     2623.989     3145.017        3.173        0.482      231.595       33.996        0.022      328.837       -4.811      857.629
12/04/2013  14:58:00      109.034      123.616       11.002       86.231       78.062       56.264     7435.804     6093.719     3165.634        2.199        0.835      164.831       42.829        0.068      328.901       -4.705      857.625
12/04/2013  14:59:00       35.862      137.843      -13.947       51.584       70.936       39.222     2660.939     5031.857     1538.348        1.485        0.462      142.431       36.720        0.066      328.865       -4.765      857.634
12/04/2013  15:00:00       91.900       81.375       11.875       67.343       48.585       38.658     4535.103     2360.535     1494.415        1.180        0.420      122.750       26.965        0.048      328.968       -4.596      857.641
12/04/2013  15:01:00      138.827       73.959       -0.246       50.360       45.910       34.882     2536.098     2107.745     1216.730        1.530        0.293      157.298       26.499        0.028      328.948       -4.629      857.649
12/04/2013  15:02:00       77.562       91.532        7.692       64.369       59.645       43.629     4143.375     3557.472     1903.519        1.203        0.480      119.975       41.962        0.122      328.947       -4.630      857.658
12/04/2013  15:03:00       53.524       55.923        7.984       55.063       41.073       32.727     3031.913     1686.976     1071.028        0.592        0.289       77.410       25.032        0.105      329.024       -4.503      857.661
12/04/2013  15:04:00       45.919      134.483       -9.154       62.773      106.201       48.326     3940.486    11278.732     2335.359        1.891        0.878      142.106       50.874        0.128      328.922       -4.671      857.670
12/04/2013  15:05:00       47.878      103.282       -1.945       57.094       87.475       49.918     3259.772     7651.825     2491.841        1.318        0.670      113.840       44.660        0.154      328.937       -4.646      857.677
12/04/2013  15:06:00       70.539      129.713       -3.639       60.396       87.946       40.168     3647.659     7734.519     1613.508        1.740        0.650      147.652       46.667        0.100      328.898       -4.710      857.676
12/04/2013  15:07:00       51.916      167.155      -15.187       54.247       78.140       46.000     2942.734     6105.792     2115.991        2.101        0.558      175.032       41.356        0.056      328.894       -4.718      857.671
12/04/2013  15:08:00       67.312       99.197       -4.232       66.018       63.080       36.375     4358.351     3979.139     1323.162        1.202        0.483      119.878       34.136        0.081      329.002       -4.540      857.678
12/04/2013  15:09:00       41.893      107.074      -10.641       41.643       45.009       27.241     1734.119     2025.779      742.090        0.892        0.225      114.978       25.446        0.049      328.906       -4.696      857.678
12/04/2013  15:10:00       90.514       94.388       -0.897       63.347       62.685       39.589     4012.856     3929.398     1567.290        1.330        0.475      130.774       38.245        0.086      329.033       -4.489      857.682
12/04/2013  15:11:00      122.948       73.909       15.388       56.160       47.346       33.985     3153.987     2241.598     1155.001        1.368        0.328      143.453       20.138        0.020      328.965       -4.601      857.691
12/04/2013  15:12:00      151.065      117.868       -8.812       76.205       51.375       50.407     5807.252     2639.436     2540.909        2.389        0.549      191.608       24.837        0.017      328.889       -4.726      857.700
12/04/2013  15:13:00       35.315      192.281      -12.290       80.752       94.366       42.386     6520.812     8905.001     1796.572        2.779        0.861      195.497       54.042        0.076      328.868       -4.760      857.713
12/04/2013  15:14:00       49.307      110.519      -13.298       53.303       60.957       36.314     2841.229     3715.716     1318.724        1.135        0.394      121.019       19.578        0.026      329.004       -4.536      857.716
12/04/2013  15:15:00       96.951       83.848        9.547       73.360       52.184       39.325     5381.673     2723.141     1546.429        1.308        0.483      128.179       36.143        0.080      328.960       -4.607      857.741
12/04/2013  15:16:00      167.527      126.201       19.923       83.871       59.572       56.630     7034.280     3548.796     3206.912        2.909        0.689      209.742       40.000        0.036      328.855       -4.782      857.751
12/04/2013  15:17:00       42.905      118.719       -5.574       44.626       69.224       44.625     1991.460     4791.950     1991.374        1.237        0.439      126.234       43.008        0.116      328.894       -4.715      857.752
12/04/2013  15:18:00       50.543       80.525       -2.388       57.539       43.766       34.005     3310.700     1915.453     1156.353        0.771        0.319       95.073       27.630        0.084      328.913       -4.684      857.749
12/04/2013  15:19:00       76.236      102.248       -9.129       56.965       65.620       36.719     3244.962     4306.044     1348.255        1.262        0.445      127.541       29.645        0.054      328.989       -4.561      857.753
12/04/2013  15:20:00       90.975      112.596       15.185       86.342       83.031       53.194     7454.953     6894.146     2829.605        1.918        0.859      144.756       48.591        0.113      328.964       -4.603      857.747
12/04/2013  15:21:00       70.400       66.334       15.153       71.533       37.869       31.745     5116.906     1434.061     1007.751        0.857        0.378       96.729       20.846        0.046      329.069       -4.430      857.739
12/04/2013  15:22:00       30.072      106.574        2.654       36.181       71.678       35.370     1309.073     5137.734     1251.038        0.998        0.385      110.736       41.937        0.143      329.044       -4.471      857.734
12/04/2013  15:23:00       51.428       83.073        6.031       43.077       56.850       45.505     1855.665     3231.958     2070.675        0.837        0.358       97.703       36.797        0.142      328.982       -4.571      857.737
12/04/2013  15:24:00       12.085      108.419       -5.789       44.734       59.471       33.456     2001.124     3536.778     1119.281        0.929        0.333      109.090       36.474        0.112      328.982       -4.571      857.730
12/04/2013  15:25:00       -3.119       88.372       11.602       48.614       72.042       33.853     2363.360     5189.992     1146.008        0.832        0.435       88.427       38.618        0.191      329.063       -4.439      857.721
12/04/2013  15:26:00       36.797       53.187       15.213       54.563       46.713       36.862     2977.174     2182.067     1358.824        0.546        0.326       64.676       27.350        0.179      329.032       -4.489      857.719
12/04/2013  15:27:00        8.629      123.593       -5.091       37.209       70.600       29.239     1384.546     4984.298      854.890        1.130        0.361      123.894       32.629        0.069      329.084       -4.407      857.734
12/04/2013  15:28:00       14.426       95.897        1.765       40.019       54.514       29.876     1601.519     2971.779      892.593        0.744        0.273       96.976       31.926        0.108      329.116       -4.353      857.735
12/04/2013  15:29:00       96.394       76.046       -6.152       49.919       47.982       28.378     2491.954     2302.301      805.299        1.036        0.280      122.780       16.286        0.018      329.050       -4.461      857.750
12/04/2013  15:30:00      152.178      105.295       11.734       55.813       50.720       34.007     3115.074     2572.540     1156.507        2.061        0.342      185.055        8.889        0.002      328.907       -4.696      857.774
12/04/2013  15:31:00       81.567      102.240       -2.288       62.524       57.163       52.823     3909.294     3267.630     2790.251        1.354        0.498      130.790       42.338        0.105      328.906       -4.696      857.794
12/04/2013  15:32:00       76.667       98.144        2.005       56.755       55.022       36.638     3221.173     3027.465     1342.374        1.155        0.380      124.540       31.426        0.064      328.917       -4.679      857.795
12/04/2013  15:33:00       97.789       76.519        1.596       51.094       40.635       30.965     2610.622     1651.208      958.814        1.032        0.261      124.169       21.038        0.029      328.943       -4.637      857.797
12/04/2013  15:34:00      139.594       88.495       20.441       63.884       52.503       44.333     4081.158     2756.572     1965.417        1.827        0.440      165.281       30.270        0.034      328.953       -4.621      857.804
12/04/2013  15:35:00      113.400       78.834       27.736       59.408       43.674       37.533     3529.278     1907.435     1408.696        1.334        0.342      138.110       34.219        0.061      329.008       -4.529      857.809
12/04/2013  15:36:00       80.895       77.607       19.672       38.840       29.947       29.411     1508.544      896.844      864.992        0.811        0.164      112.102       14.863        0.018      329.045       -4.469      857.805
12/04/2013  15:37:00      121.556       67.687        3.766       49.790       33.478       34.880     2479.062     1120.798     1216.602        1.209        0.241      139.131       20.277        0.021      329.001       -4.541      857.802
12/04/2013  15:38:00       47.794       34.335        6.468       41.702       39.452       26.703     1739.043     1556.490      713.043        0.376        0.200       58.848       21.926        0.139      329.089       -4.397      857.811
12/04/2013  15:39:00       61.062      133.522      -19.624       53.026       62.947       44.344     2811.784     3962.322     1966.427        1.534        0.437      146.822       40.776        0.077      328.950       -4.625      857.807
12/04/2013  15:40:00       67.698      102.239       -5.305       64.889       70.957       46.057     4210.590     5034.944     2121.286        1.321        0.568      122.621       45.084        0.135      328.906       -4.696      857.807
12/04/2013  15:41:00      106.289       92.477       -2.193       49.546       45.943       41.299     2454.767     2110.762     1705.628        1.306        0.314      140.888       24.574        0.030      328.907       -4.695      857.809
12/04/2013  15:42:00       52.805       54.841       26.982       46.207       35.817       29.217     2135.133     1282.875      853.640        0.540        0.214       76.131       12.118        0.025      328.932       -4.653      857.816
12/04/2013  15:43:00       48.786       83.961        1.759       75.414       47.913       32.187     5687.290     2295.633     1035.983        0.922        0.451       97.106       28.155        0.084      328.935       -4.648      857.817
12/04/2013  15:44:00       33.968       88.489      -10.936       33.712       54.337       28.769     1136.517     2952.502      827.668        0.701        0.246       94.785       25.664        0.073      328.892       -4.719      857.822
12/04/2013  15:45:00       54.272       72.971        2.850       72.094       50.221       34.932     5197.567     2522.103     1220.242        0.861        0.447       90.941       25.731        0.080      328.985       -4.566      857.822
12/04/2013  15:46:00      143.143       72.823       27.259       80.095       48.459       38.804     6415.222     2348.318     1505.712        1.840        0.513      160.603       29.355        0.033      328.936       -4.648      857.832
12/04/2013  15:47:00       63.479       92.405        1.281       53.887       59.998       40.103     2903.842     3599.756     1608.214        1.034        0.406      112.108       37.627        0.113      328.931       -4.654      857.856
12/04/2013  15:48:00       68.085       89.098       -0.273       51.571       62.555       38.785     2659.521     3913.102     1504.244        1.032        0.404      112.134       34.039        0.092      328.917       -4.677      857.861
12/04/2013  15:49:00      106.741       69.122       16.144       58.419       41.993       35.100     3412.753     1763.382     1232.013        1.142        0.320      127.167       19.743        0.024      328.941       -4.639      857.858
12/04/2013  15:50:00       42.914      138.313      -10.640       41.195       80.372       44.361     1697.040     6459.583     1967.855        1.560        0.506      144.817       48.304        0.111      328.896       -4.715      857.871
12/04/2013  15:51:00       10.896      139.272      -17.561       34.145       50.245       31.964     1165.862     2524.518     1021.673        1.227        0.236      139.698       28.894        0.043      328.836       -4.812      857.886
12/04/2013  15:52:00      -14.767      180.758      -26.449       27.481       29.891       23.192      755.204      893.491      537.851        1.789        0.109      181.360       17.357        0.009      328.934       -4.649      857.905
12/04/2013  15:53:00       20.371      192.500      -21.972       33.500       81.041       29.888     1122.217     6567.676      893.298        2.327        0.429      193.575       42.598        0.048      328.879       -4.741      857.923
12/04/2013  15:54:00       34.134      132.358       -6.978       48.200       66.610       42.508     2323.285     4436.837     1806.946        1.365        0.428      136.689       45.294        0.110      328.887       -4.726      857.935
12/04/2013  15:55:00       13.545       71.072        6.028       49.056       40.523       31.649     2406.520     1642.151     1001.658        0.516        0.253       72.351       20.112        0.077      328.972       -4.588      857.954
12/04/2013  15:56:00       48.385       71.711       11.550       56.887       57.006       43.354     3236.101     3249.733     1879.585        0.799        0.418       86.508       29.778        0.118      328.901       -4.704      857.948
12/04/2013  15:57:00       51.364       79.818        0.656       54.617       47.669       42.766     2983.033     2272.310     1828.908        0.805        0.354       94.917       33.580        0.125      328.840       -4.803      857.934
12/04/2013  15:58:00       33.220       85.267       -6.490       33.934       50.937       28.673     1151.550     2594.585      822.157        0.649        0.228       91.510       31.746        0.120      328.877       -4.744      857.921
12/04/2013  15:59:00       57.317      137.963      -13.126       49.192       61.700       40.089     2419.835     3806.866     1607.115        1.516        0.392      149.395       35.404        0.056      328.833       -4.816      857.906
12/04/2013  16:00:00       42.824       93.108       -9.718       50.686       55.733       33.712     2569.097     3106.220     1136.480        0.870        0.341      102.484       32.756        0.102      328.809       -4.855      857.904
12/04/2013  16:01:00       20.454      104.861      -13.014       36.150       70.759       23.334     1306.806     5006.793      544.476        0.922        0.343      106.838       30.261        0.080      328.856       -4.778      857.894
12/04/2013  16:02:00       18.819       78.380       -2.536       31.044       63.992       29.475      963.699     4095.018      868.765        0.621        0.296       80.607       35.727        0.196      328.885       -4.730      857.892
12/04/2013  16:03:00       -4.824      110.797       -6.822       44.680       55.813       31.316     1996.266     3115.109      980.696        0.922        0.305      110.902       32.856        0.088      328.955       -4.617      857.912
12/04/2013  16:04:00      -14.189      164.343      -25.372       38.770       36.502       19.760     1503.129     1332.380      390.450        1.554        0.161      164.955        9.188        0.003      328.901       -4.704      857.919
12/04/2013  16:05:00       -6.677      158.904      -13.948       27.367       40.464       25.068      748.961     1637.346      628.413        1.425        0.151      159.045       15.983        0.010      328.866       -4.761      857.926
12/04/2013  16:06:00      -12.159      140.020      -14.059       27.983       29.085       19.707      783.052      845.931      388.348        1.098        0.101      140.547       12.774        0.008      328.880       -4.740      857.928
12/04/2013  16:07:00      -15.840      187.865      -21.006       35.041       37.759       19.915     1227.901     1425.759      396.624        1.952        0.153      188.531        9.945        0.003      328.817       -4.842      857.931
12/04/2013  16:08:00        1.517      190.507      -21.789       36.045       37.476       23.332     1299.269     1404.465      544.402        2.001        0.162      190.513       20.287        0.011      328.734       -4.978      857.941
12/04/2013  16:09:00       -7.997      151.531      -18.429       53.779       60.107       28.613     2892.175     3612.881      818.729        1.534        0.366      151.741       24.481        0.026      328.847       -4.794      857.941
12/04/2013  16:10:00        5.188      101.790        4.127       50.094       52.312       33.837     2509.417     2736.504     1144.935        0.840        0.320      101.922       34.511        0.115      328.909       -4.691      857.950
12/04/2013  16:11:00        5.055      128.191       -8.179       34.625       81.647       29.305     1198.894     6666.178      858.809        1.262        0.436      128.290       35.013        0.074      328.915       -4.682      857.961
12/04/2013  16:12:00       -6.634      165.685      -20.408       45.793       47.102       26.127     2097.042     2218.559      682.639        1.645        0.250      165.817       24.591        0.022      328.841       -4.802      857.975
12/04/2013  16:13:00      -28.290      202.623      -20.646       51.723       75.186       29.344     2675.255     5652.974      861.048        2.573        0.459      204.589       37.930        0.034      328.835       -4.815      857.972
12/04/2013  16:14:00      -31.208      225.848      -30.051       29.242       37.047       19.974      855.110     1372.494      398.980        2.776        0.131      227.994       11.459        0.003      328.744       -4.963      857.977
12/04/2013  16:15:00      -13.300      198.414      -28.533       46.925       44.931       26.270     2201.968     2018.817      690.098        2.263        0.246      198.859       27.470        0.019      328.811       -4.852      857.996
12/04/2013  16:16:00        6.027      144.165      -12.502       44.543       68.248       33.327     1984.111     4657.794     1110.687        1.436        0.388      144.291       33.516        0.054      328.840       -4.805      858.017
12/04/2013  16:17:00       72.567      116.032       -9.056       55.893       71.372       37.774     3124.058     5093.971     1426.838        1.423        0.482      136.855       43.392        0.101      328.860       -4.771      858.032
12/04/2013  16:18:00       53.954       54.271        0.592       49.313       42.648       34.965     2431.791     1818.841     1222.517        0.566        0.274       76.527       25.966        0.115      328.903       -4.702      858.043
12/04/2013  16:19:00       82.756       84.987       15.998       50.970       54.646       46.101     2597.901     2986.228     2125.273        1.102        0.385      118.623       36.754        0.096      328.833       -4.815      858.059
12/04/2013  16:20:00       67.037      130.050       -6.589       73.128       66.464       45.357     5347.727     4417.483     2057.272        1.663        0.591      146.311       39.628        0.073      328.786       -4.892      858.057
12/04/2013  16:21:00      101.562      109.205        7.250       79.740       67.114       52.952     6358.522     4504.319     2803.952        1.798        0.683      149.133       43.193        0.084      328.771       -4.918      858.050
12/04/2013  16:22:00      136.753       89.797       17.065       65.151       48.053       43.257     4244.668     2309.111     1871.188        1.774        0.421      163.599       25.445        0.024      328.804       -4.863      858.040
12/04/2013  16:23:00       85.610       89.221        5.884       62.619       43.380       43.216     3921.084     1881.818     1867.582        1.150        0.384      123.651       27.127        0.048      328.783       -4.896      858.040
12/04/2013  16:24:00       19.898      159.550      -18.896       46.891       49.833       29.394     2198.730     2483.373      864.014        1.588        0.277      160.786       18.807        0.014      328.786       -4.891      858.045
12/04/2013  16:25:00       44.737      132.348      -12.031       43.132       54.983       33.474     1860.399     3023.150     1120.527        1.283        0.300      139.704       29.718        0.045      328.807       -4.857      858.054
12/04/2013  16:26:00       38.307       74.704        9.238       43.788       75.939       39.898     1917.371     5766.764     1591.865        0.820        0.464       83.953       39.881        0.226      328.833       -4.816      858.049
12/04/2013  16:27:00       45.829      137.345       -0.621       51.634       86.563       49.514     2666.112     7493.155     2451.601        1.679        0.631      144.790       56.039        0.150      328.786       -4.893      858.048
12/04/2013  16:28:00        4.459      182.534      -15.268       35.547       48.897       32.802     1263.617     2390.954     1076.001        1.915        0.237      182.589       32.201        0.031      328.797       -4.875      858.052
12/04/2013  16:29:00       54.168       57.950        4.406       39.315       50.371       24.200     1545.659     2537.277      585.620        0.549        0.233       79.324       27.828        0.123      328.883       -4.734      858.054
12/04/2013  16:30:00       87.308      122.444       -7.284       72.925       66.056       44.087     5318.037     4363.357     1943.659        1.714        0.581      150.383       31.252        0.043      328.781       -4.901      858.061
12/04/2013  16:31:00      101.882       85.802       11.739       90.675       73.117       55.596     8222.043     5346.127     3090.964        1.727        0.833      133.199       43.777        0.108      328.749       -4.954      858.065
12/04/2013  16:32:00      114.044      127.641        1.308       75.068       67.015       65.857     5635.196     4490.970     4337.154        2.188        0.723      171.168       51.365        0.090      328.702       -5.030      858.057
12/04/2013  16:33:00      116.973       92.093       12.195       85.183       53.457       42.650     7256.076     2857.673     1819.041        1.712        0.597      148.875        9.405        0.004      328.743       -4.964      858.050
12/04/2013  16:34:00      201.097      140.946       23.829       70.793       46.447       54.534     5011.600     2157.351     2973.946        3.551        0.507      245.573       34.463        0.020      328.709       -5.020      858.049
12/04/2013  16:35:00      100.771       69.371       10.293       67.576       52.327       35.602     4566.510     2738.125     1267.488        1.182        0.429      122.341       25.774        0.044      328.774       -4.911      858.056
12/04/2013  16:36:00       70.044       99.604        1.427       48.946       66.934       40.006     2395.706     4480.134     1600.448        1.165        0.424      121.767       42.557        0.122      328.756       -4.940      858.078
12/04/2013  16:37:00       69.471       90.147        7.590       62.112       49.260       43.962     3857.960     2426.550     1932.686        1.061        0.411      113.810       36.154        0.101      328.761       -4.932      858.099
12/04/2013  16:38:00      184.072      144.623        6.930       59.974       43.739       42.294     3596.831     1913.117     1788.764        3.107        0.365      234.091       26.510        0.013      328.670       -5.083      858.127
12/04/2013  16:39:00      119.172       75.060       13.833       64.212       35.800       33.474     4123.117     1281.668     1120.485        1.328        0.326      140.840       27.446        0.038      328.741       -4.964      858.148
12/04/2013  16:40:00       90.441       70.161        3.066       44.689       52.254       36.110     1997.130     2730.490     1303.948        0.957        0.302      114.464       30.922        0.073      328.747       -4.956      858.166
12/04/2013  16:41:00      117.141      127.581        9.225       76.293       55.644       46.070     5820.608     3096.249     2122.442        2.056        0.552      173.202       40.380        0.054      328.663       -5.093      858.171
12/04/2013  16:42:00       70.338       88.350        6.507       56.042       63.732       47.102     3140.682     4061.753     2218.591        1.111        0.471      112.930       43.142        0.146      328.722       -4.995      858.176
12/04/2013  16:43:00       68.997       63.571       -3.889       53.010       49.890       30.786     2810.027     2488.989      947.752        0.753        0.312       93.818       33.750        0.129      328.734       -4.977      858.177
12/04/2013  16:44:00       66.209       60.826        0.162       50.025       43.456       42.763     2502.500     1888.431     1828.706        0.715        0.311       89.908       26.103        0.084      328.751       -4.950      858.160
12/04/2013  16:45:00      110.314       71.636       12.105       50.675       33.895       33.782     2567.987     1148.853     1141.230        1.115        0.243      131.533       23.947        0.033      328.757       -4.938      858.159
12/04/2013  16:46:00       56.511      125.918      -14.475       39.611       50.819       35.835     1569.059     2582.548     1284.163        1.235        0.272      138.018       27.056        0.038      328.736       -4.973      858.152
12/04/2013  16:47:00      105.023       68.648       11.008       72.880       66.907       48.454     5311.553     4476.560     2347.802        1.400        0.607      125.469       39.303        0.098      328.745       -4.959      858.164
12/04/2013  16:48:00       67.451       94.673       -4.180       53.345       44.116       32.262     2845.690     1946.224     1040.827        0.968        0.292      116.244       24.185        0.043      328.689       -5.052      858.181
12/04/2013  16:49:00      108.562       95.669        4.003       80.583       43.273       33.065     6493.544     1872.588     1093.295        1.521        0.473      144.701       29.137        0.041      328.698       -5.036      858.183
12/04/2013  16:50:00       63.787       52.400        4.911       65.189       38.506       29.303     4249.582     1482.691      858.687        0.671        0.330       82.550       20.619        0.062      328.742       -4.964      858.193
12/04/2013  16:51:00       60.677       74.075       12.932       45.985       43.048       35.428     2114.608     1853.088     1255.157        0.728        0.261       95.754       28.002        0.086      328.690       -5.050      858.195
12/04/2013  16:52:00       79.140       86.235        4.454       68.638       54.032       41.021     4711.120     2919.468     1682.697        1.151        0.466      117.045       33.803        0.083      328.661       -5.097      858.185
12/04/2013  16:53:00      100.969       79.922       19.812       60.605       42.915       30.698     3672.991     1841.696      942.393        1.171        0.323      128.772       18.901        0.022      328.673       -5.076      858.191
12/04/2013  16:54:00       83.747       99.115        7.563       74.116       64.773       35.824     5493.113     4195.500     1283.365        1.393        0.549      129.759       37.380        0.083      328.718       -5.004      858.193
12/04/2013  16:55:00      108.136       53.728        1.853       42.887       36.576       31.801     1839.292     1337.809     1011.296        0.939        0.209      120.748       24.163        0.040      328.771       -4.917      858.194
12/04/2013  16:56:00       85.982       59.742       10.142       66.443       36.181       30.158     4414.638     1309.078      909.497        0.885        0.332      104.700       22.546        0.046      328.768       -4.921      858.207
12/04/2013  16:57:00       50.497       42.918       20.356       60.783       33.508       40.252     3694.627     1122.811     1620.203        0.562        0.322       66.271       31.507        0.226      328.831       -4.820      858.199
12/04/2013  16:58:00       69.668       46.680       13.359       49.790       45.943       35.474     2479.076     2110.803     1258.372        0.653        0.292       83.861       27.741        0.109      328.805       -4.861      858.186
12/04/2013  16:59:00       67.378       60.674       12.804       36.928       49.022       31.613     1363.699     2403.159      999.368        0.657        0.238       90.671       28.925        0.102      328.817       -4.840      858.193
12/04/2013  17:00:00       81.538       53.104        9.485       46.765       34.044       30.555     2186.955     1158.994      933.587        0.692        0.214       97.306       12.677        0.017      328.805       -4.861      858.201
12/04/2013  17:01:00      105.579       79.453        4.849       60.598       46.933       37.741     3672.161     2202.662     1424.364        1.239        0.365      132.135       23.771        0.032      328.773       -4.913      858.207
12/04/2013  17:02:00       74.970       85.699        5.304       51.382       46.151       45.861     2640.090     2129.924     2103.217        0.993        0.344      113.864       33.260        0.085      328.742       -4.964      858.208
12/04/2013  17:03:00      146.833      118.161       17.322       51.898       45.947       39.600     2693.438     2111.113     1568.132        2.110        0.319      188.473       31.109        0.027      328.696       -5.040      858.229
12/04/2013  17:04:00      155.464      103.304        9.748       50.473       47.719       36.497     2547.520     2277.065     1332.043        2.054        0.308      186.657       20.598        0.012      328.684       -5.061      858.230
12/04/2013  17:05:00      129.788       96.976       13.579       38.179       31.247       34.762     1457.658      976.367     1208.422        1.504        0.182      162.017       21.208        0.017      328.663       -5.093      858.225
12/04/2013  17:06:00      102.026       65.089       16.208       43.180       41.844       31.463     1864.555     1750.943      989.916        0.976        0.230      121.020       21.119        0.030      328.731       -4.981      858.220
12/04/2013  17:07:00       59.830       76.239       10.172       41.165       27.678       24.688     1694.556      766.087      609.506        0.628        0.154       96.913       14.792        0.023      328.794       -4.879      858.216
12/04/2013  17:08:00       79.203       81.792        1.625       47.739       33.764       31.600     2279.008     1140.026      998.590        0.869        0.221      113.855       20.877        0.034      328.770       -4.918      858.196
12/04/2013  17:09:00      102.164       67.729       11.903       43.369       41.531       29.989     1880.901     1724.824      899.359        0.983        0.225      122.575       14.160        0.013      328.730       -4.982      858.200
12/04/2013  17:10:00       42.857       60.364        5.874       44.557       53.478       36.649     1985.357     2859.949     1343.157        0.585        0.309       74.031       32.078        0.188      328.747       -4.955      858.217
12/04/2013  17:11:00       62.593       74.566        4.538       59.266       52.604       40.568     3512.499     2767.184     1645.766        0.871        0.396       97.355       32.812        0.114      328.727       -4.989      858.230
12/04/2013  17:12:00       72.590      108.505       -3.291       59.427       49.110       42.293     3531.531     2411.773     1788.697        1.239        0.387      130.547       25.935        0.039      328.677       -5.071      858.231
12/04/2013  17:13:00       74.490       80.427        2.253       64.986       47.984       32.189     4223.117     2302.478     1036.150        0.979        0.378      109.623       25.072        0.052      328.684       -5.059      858.234
12/04/2013  17:14:00       73.310       70.869        7.398       58.795       36.445       28.888     3456.808     1328.218      834.502        0.803        0.281      101.965       25.183        0.061      328.711       -5.013      858.224
12/04/2013  17:15:00       73.916       52.591        8.029       48.312       33.304       25.154     2334.095     1109.150      632.740        0.618        0.204       90.716       12.340        0.019      328.780       -4.901      858.208
12/04/2013  17:16:00       76.073       47.369       10.271       60.463       27.670       26.664     3655.755      765.603      710.965        0.663        0.257       89.615       24.272        0.073      328.731       -4.981      858.202
12/04/2013  17:17:00       60.185       40.906        2.292       34.302       27.124       23.877     1176.628      735.733      570.096        0.389        0.124       72.771       12.223        0.028      328.767       -4.921      858.195
12/04/2013  17:18:00       39.458       87.179        0.145       46.354       58.490       42.282     2148.697     3421.049     1787.781        0.826        0.368       95.693       40.398        0.178      328.731       -4.982      858.185
12/04/2013  17:19:00       85.075       84.108        6.712       49.811       42.204       38.454     2481.174     1781.177     1478.722        1.005        0.287      119.633       29.742        0.062      328.716       -5.006      858.189
12/04/2013  17:20:00       80.282       66.567        5.613       40.428       31.958       34.352     1634.460     1021.309     1180.055        0.737        0.192      104.290       21.663        0.043      328.754       -4.944      858.190
12/04/2013  17:21:00      123.039       79.884       19.877       57.625       38.587       34.695     3320.616     1488.948     1203.712        1.396        0.301      146.697       19.702        0.018      328.732       -4.980      858.191
12/04/2013  17:22:00       60.669      101.110      -19.274       28.158       59.594       27.325      792.848     3551.450      746.650        0.968        0.255      117.915       30.470        0.067      328.720       -4.999      858.182
12/04/2013  17:23:00       64.344       62.362       10.733       41.996       26.058       24.949     1763.653      679.009      622.449        0.560        0.153       89.605       21.870        0.060      328.781       -4.901      858.167
12/04/2013  17:24:00       39.811      119.599      -12.657       28.523       45.634       28.740      813.573     2082.452      826.005        0.988        0.186      126.051       27.700        0.048      328.735       -4.975      858.170
12/04/2013  17:25:00       68.863       94.231       -7.607       60.210       44.075       37.578     3625.294     1942.577     1412.123        1.033        0.349      116.711       30.242        0.067      328.736       -4.972      858.175
12/04/2013  17:26:00       72.904       68.889        0.332       72.006       37.125       36.293     5184.923     1378.263     1317.159        0.897        0.394      100.303       22.276        0.049      328.691       -5.047      858.190
12/04/2013  17:27:00       51.184       93.862       -9.119       42.134       39.700       28.729     1775.239     1576.071      825.329        0.784        0.209      106.911       25.193        0.056      328.691       -5.046      858.203
12/04/2013  17:28:00       98.375       52.993        3.048       51.249       37.000       36.971     2626.485     1369.013     1366.852        0.893        0.268      111.740       26.846        0.058      328.725       -4.990      858.209
12/04/2013  17:29:00       59.602       92.242       -4.972       32.016       66.486       28.247     1025.017     4420.361      797.891        0.916        0.312      109.822       32.391        0.087      328.750       -4.951      858.208
12/04/2013  17:30:00       65.040       76.520       10.346       56.160       45.493       39.596     3153.958     2069.658     1567.842        0.849        0.340      100.426       33.789        0.113      328.733       -4.978      858.210
12/04/2013  17:31:00       86.712       70.141       14.863       46.835       36.762       36.685     2193.551     1351.470     1345.764        0.877        0.245      111.529       27.564        0.061      328.766       -4.926      858.221
12/04/2013  17:32:00       56.314       80.203       -6.333       55.104       63.974       35.981     3036.419     4092.661     1294.628        0.903        0.421       97.999       33.612        0.118      328.716       -5.007      858.243
12/04/2013  17:33:00       37.858       79.614        5.838       42.543       36.107       31.749     1809.912     1303.687     1008.004        0.596        0.206       88.156       26.506        0.090      328.739       -4.969      858.276
12/04/2013  17:34:00       22.014      110.099      -12.646       46.412       45.006       27.571     2154.079     2025.516      760.148        0.885        0.247      112.278       23.257        0.043      328.783       -4.896      858.298
12/04/2013  17:35:00       12.136       59.156        3.024       31.076       50.846       26.452      965.727     2585.360      699.726        0.395        0.213       60.388       30.421        0.254      328.837       -4.808      858.310
12/04/2013  17:36:00       51.297       87.521       -3.480       45.895       43.530       36.359     2106.361     1894.842     1321.994        0.781        0.266      101.446       31.241        0.095      328.811       -4.850      858.311
12/04/2013  17:37:00      135.856      102.257       12.358       78.875       55.269       47.885     6221.250     3054.705     2292.949        2.032        0.578      170.039       32.433        0.036      328.697       -5.038      858.303
12/04/2013  17:38:00       76.460       69.157       15.934       45.648       47.088       35.638     2083.717     2217.290     1270.042        0.823        0.279      103.096       20.523        0.040      328.723       -4.995      858.288
12/04/2013  17:39:00       57.333       56.607        0.203       40.520       43.507       26.985     1641.834     1892.884      728.202        0.538        0.213       80.569       23.379        0.084      328.751       -4.947      858.283
12/04/2013  17:40:00      115.841       78.326       16.676       35.420       36.598       32.255     1254.587     1339.390     1040.381        1.173        0.182      139.836       25.533        0.033      328.713       -5.010      858.285
12/04/2013  17:41:00       87.787       66.233       -2.963       41.098       31.949       27.827     1689.042     1020.737      774.337        0.779        0.174      109.970       19.873        0.033      328.791       -4.885      858.278
12/04/2013  17:42:00       76.299       63.890       -1.413       46.982       36.273       31.173     2207.309     1315.737      971.758        0.720        0.225       99.516       24.769        0.062      328.749       -4.952      858.284
12/04/2013  17:43:00       52.072       27.836       13.526       27.682       25.036       17.927      766.281      626.787      321.381        0.269        0.086       59.046        3.934        0.004      328.784       -4.896      858.281
12/04/2013  17:44:00       56.153       44.002        4.131       28.442       24.345       22.668      808.975      592.673      513.838        0.351        0.096       71.339       20.144        0.080      328.771       -4.916      858.266
12/04/2013  17:45:00       50.305       33.741        6.322       36.588       29.452       23.509     1338.691      867.414      552.681        0.323        0.138       60.573       12.770        0.044      328.814       -4.845      858.256
12/04/2013  17:46:00       70.719       45.180        9.365       46.387       36.428       30.929     2151.712     1326.971      956.609        0.578        0.222       83.919       20.774        0.061      328.783       -4.896      858.254
12/04/2013  17:47:00      125.930       88.443       10.269       59.027       47.986       45.656     3484.219     2302.689     2084.453        1.583        0.394      153.885       35.412        0.053      328.765       -4.927      858.259
12/04/2013  17:48:00      197.747      146.643       27.338       57.625       38.374       38.824     3320.648     1472.527     1507.280        3.383        0.315      246.187       34.517        0.020      328.701       -5.035      858.262
12/04/2013  17:49:00      135.986      102.375       25.391       54.302       40.699       37.874     2948.659     1656.404     1434.463        1.783        0.302      170.214       31.389        0.034      328.718       -5.003      858.263
12/04/2013  17:50:00       75.067       67.619       41.865       52.386       32.080       33.727     2744.256     1029.150     1137.486        0.843        0.246      101.032       13.559        0.018      328.786       -4.891      858.255
12/04/2013  17:51:00      154.889      104.021       21.613       36.451       44.623       30.538     1328.704     1991.255      932.549        1.976        0.213      186.577       17.743        0.009      328.707       -5.021      858.244
12/04/2013  17:52:00       73.130       64.460       47.133       57.456       39.726       27.901     3301.199     1578.168      778.455        0.869        0.283       97.484       28.213        0.084      328.795       -4.877      858.232
12/04/2013  17:53:00      157.186      113.494       27.363       73.701       53.710       45.012     5431.897     2884.806     2026.082        2.434        0.517      193.877       23.901        0.015      328.722       -4.998      858.239
12/04/2013  17:54:00      121.546      110.630       19.865       91.707       79.345       57.683     8410.106     6295.702     3327.316        2.272        0.902      164.354       35.304        0.046      328.698       -5.038      858.248
12/04/2013  17:55:00      121.165       90.379       17.043       67.471       56.203       46.322     4552.286     3158.792     2145.720        1.650        0.493      151.160       35.641        0.056      328.723       -4.995      858.269
12/04/2013  17:56:00      102.185      102.143        7.462       68.209       46.972       49.835     4652.405     2206.382     2483.572        1.513        0.467      144.482       36.005        0.062      328.669       -5.083      858.291
12/04/2013  17:57:00      104.898       61.528       18.156       43.509       32.586       31.637     1892.991     1061.825     1000.881        0.954        0.198      121.611       16.759        0.019      328.706       -5.022      858.304
12/04/2013  17:58:00       83.989       30.131       22.407       49.020       44.503       31.748     2402.927     1980.478     1007.913        0.693        0.270       89.231       26.777        0.090      328.797       -4.873      858.309
12/04/2013  17:59:00      130.747       62.135       17.778       59.312       39.126       31.604     3517.972     1530.847      998.839        1.366        0.302      144.760       25.161        0.030      328.747       -4.957      858.308
12/04/2013  18:00:00       82.082       42.875        1.021       54.214       28.318       20.068     2939.180      801.936      402.705        0.636        0.207       92.605       15.335        0.027      328.765       -4.926      858.305
12/04/2013  18:01:00       48.938       52.568       -2.847       32.343       45.554       27.363     1046.081     2075.130      748.717        0.452        0.193       71.821       27.300        0.144      328.765       -4.925      858.309
12/04/2013  18:02:00       39.541       66.965       -5.432       32.402       42.610       24.419     1049.873     1815.582      596.303        0.477        0.173       77.768       20.891        0.072      328.712       -5.012      858.318
12/04/2013  18:03:00       70.153       70.828        9.601       62.623       39.105       31.594     3921.632     1529.183      998.212        0.824        0.322       99.690       19.632        0.039      328.677       -5.070      858.307
12/04/2013  18:04:00       20.859      124.270      -16.102       35.409       46.298       21.839     1253.770     2143.522      476.944        1.001        0.194      126.009       22.030        0.031      328.632       -5.142      858.302
12/04/2013  18:05:00       45.506      135.420      -11.212       38.000       75.270       34.123     1443.998     5665.624     1164.389        1.440        0.414      142.861       32.466        0.052      328.666       -5.088      858.298
12/04/2013  18:06:00       64.484       64.104       10.131       65.162       47.506       41.420     4246.033     2256.831     1715.579        0.829        0.411       90.926       29.823        0.108      328.675       -5.073      858.299
12/04/2013  18:07:00       71.148       91.892        5.979       52.711       68.599       50.188     2778.435     4705.867     2518.793        1.177        0.500      116.216       41.746        0.129      328.653       -5.109      858.297
12/04/2013  18:08:00      133.502       76.195       37.100       84.808       70.763       47.714     7192.312     5007.403     2276.648        1.974        0.724      153.715       17.727        0.013      328.701       -5.033      858.303
12/04/2013  18:09:00      134.378       83.005       14.291       59.388       43.986       39.187     3526.916     1934.752     1535.633        1.607        0.350      157.947       14.045        0.008      328.685       -5.057      858.303
12/04/2013  18:10:00       76.164       66.300       -2.034       62.755       43.247       32.296     3938.253     1870.317     1043.004        0.852        0.343      100.978       17.269        0.029      328.659       -5.100      858.309
12/04/2013  18:11:00       26.696       54.345        6.674       61.444       44.532       35.352     3775.335     1983.136     1249.771        0.536        0.350       60.548       20.502        0.115      328.588       -5.214      858.312
12/04/2013  18:12:00      101.876      109.256        6.306       76.555       47.996       41.393     5860.729     2303.658     1713.421        1.611        0.494      149.384       32.624        0.048      328.546       -5.284      858.310
12/04/2013  18:13:00       66.955      122.171      -15.700       42.922       70.050       42.100     1842.283     4907.061     1772.387        1.409        0.426      139.316       37.073        0.071      328.564       -5.255      858.319
12/04/2013  18:14:00       57.853       66.249        7.849       61.397       43.924       30.180     3769.651     1929.291      910.802        0.720        0.330       87.953       25.859        0.086      328.591       -5.210      858.322
12/04/2013  18:15:00       62.247       92.920        6.697       65.465       51.461       32.113     4285.693     2648.234     1031.236        1.026        0.398      111.843       32.669        0.085      328.567       -5.250      858.330
12/04/2013  18:16:00       38.022       82.694        2.652       48.660       70.956       40.528     2367.766     5034.758     1642.489        0.867        0.452       91.016       37.562        0.170      328.552       -5.274      858.330
12/04/2013  18:17:00       66.288      118.644       -4.933       71.181       89.890       45.116     5066.776     8080.230     2035.450        1.684        0.759      135.906       48.709        0.128      328.529       -5.311      858.324
12/04/2013  18:18:00       62.698      102.855       -5.962       56.741       60.884       35.440     3219.524     3706.861     1255.976        1.136        0.409      120.458       26.878        0.050      328.509       -5.345      858.320
12/04/2013  18:19:00       39.099       60.804        1.465       41.267       42.452       33.547     1702.972     1802.165     1125.420        0.493        0.232       72.290       31.670        0.192      328.567       -5.248      858.316
12/04/2013  18:20:00       54.496       62.876        1.726       52.306       49.777       36.931     2735.895     2477.736     1363.913        0.675        0.329       83.206       34.622        0.173      328.594       -5.204      858.324
12/04/2013  18:21:00       30.027      115.049       -0.814       52.014       73.049       41.504     2705.405     5336.172     1722.622        1.195        0.488      118.903       43.612        0.135      328.515       -5.335      858.327
12/04/2013  18:22:00       51.741      100.338        6.789       63.099       74.986       51.865     3981.503     5622.898     2689.981        1.254        0.615      112.893       49.230        0.190      328.531       -5.308      858.336
12/04/2013  18:23:00       56.873       86.012        2.523       42.532       57.628       45.152     1808.964     3320.931     2038.697        0.890        0.358      103.114       38.581        0.140      328.496       -5.367      858.348
12/04/2013  18:24:00       47.837       93.163       -1.943       48.960       45.155       43.672     2397.068     2038.955     1907.260        0.866        0.317      104.727       31.218        0.089      328.518       -5.330      858.360
12/04/2013  18:25:00       59.515       88.581       -3.721       37.610       53.849       37.885     1414.528     2899.698     1435.305        0.857        0.287      106.718       31.068        0.085      328.506       -5.349      858.377
12/04/2013  18:26:00       48.104       89.908       -5.143       39.250       68.158       38.980     1540.562     4645.539     1519.444        0.906        0.385      101.968       38.399        0.142      328.511       -5.342      858.388
12/04/2013  18:27:00       25.861       65.135       -5.875       52.876       40.584       40.761     2795.829     1647.038     1661.468        0.552        0.305       70.081       21.489        0.094      328.528       -5.313      858.382
12/04/2013  18:28:00       24.395       81.070       -0.619       29.150       61.638       29.877      849.719     3799.279      892.657        0.635        0.277       84.661       30.670        0.131      328.570       -5.243      858.370
12/04/2013  18:29:00       12.907       37.519        7.458       30.020       25.992       23.903      901.209      675.605      571.373        0.189        0.107       39.677       18.591        0.220      328.570       -5.242      858.351
12/04/2013  18:30:00       36.630      131.333      -19.269       26.555       36.499       23.834      705.173     1332.183      568.074        1.078        0.130      136.345       17.436        0.016      328.524       -5.320      858.356
12/04/2013  18:31:00       56.431      121.568       -4.788       52.019       77.865       43.088     2706.015     6063.023     1856.582        1.430        0.531      134.027       48.683        0.132      328.515       -5.334      858.368
12/04/2013  18:32:00       33.034       71.139       -0.724       51.788       50.600       31.272     2682.010     2560.354      977.913        0.619        0.311       78.434       28.279        0.130      328.523       -5.320      858.373
12/04/2013  18:33:00       57.844      125.670      -11.839       39.948       64.786       39.908     1595.867     4197.247     1592.617        1.333        0.369      138.344       36.878        0.071      328.514       -5.336      858.373
12/04/2013  18:34:00       21.035      110.360       -0.387       68.959       59.399       47.029     4755.303     3528.189     2211.686        1.156        0.525      112.347       40.429        0.129      328.527       -5.314      858.374
12/04/2013  18:35:00       21.814       99.702       -1.462       45.176       71.340       38.673     2040.836     5089.348     1495.600        0.952        0.431      102.060       41.982        0.169      328.560       -5.262      858.377
12/04/2013  18:36:00       28.230       92.276       -3.225       42.103       62.529       38.870     1772.695     3909.876     1510.866        0.826        0.360       96.497       36.381        0.142      328.523       -5.321      858.390
12/04/2013  18:37:00       28.422      123.690      -17.994       38.422       45.644       29.394     1476.269     2083.415      864.015        1.043        0.221      126.914        8.522        0.005      328.533       -5.304      858.408
12/04/2013  18:38:00       46.683       80.815        9.655       43.197       63.745       45.570     1865.995     4063.485     2076.639        0.840        0.400       93.329       46.517        0.248      328.527       -5.315      858.424
12/04/2013  18:39:00       26.341       52.225        1.548       42.217       44.096       30.978     1782.303     1944.427      959.620        0.405        0.234       58.492       26.470        0.205      328.562       -5.257      858.437
12/04/2013  18:40:00       33.628       50.795        3.108       39.550       44.275       32.081     1564.219     1960.233     1029.174        0.414        0.228       60.918       25.117        0.170      328.548       -5.279      858.452
12/04/2013  18:41:00       42.105      106.852       -9.948       52.273       53.220       35.225     2732.459     2832.319     1240.804        1.005        0.340      114.848       34.471        0.090      328.517       -5.330      858.468
12/04/2013  18:42:00        9.729      190.695      -13.852       47.292       62.076       37.250     2236.493     3853.476     1387.598        2.206        0.374      190.943       37.787        0.039      328.517       -5.333      858.481
12/04/2013  18:43:00       41.440      170.515      -26.449       37.912       67.154       34.438     1437.307     4509.596     1185.950        1.931        0.357      175.478       36.476        0.043      328.505       -5.351      858.496
12/04/2013  18:44:00       27.460      199.079      -21.530       33.951       74.023       39.680     1152.660     5479.374     1574.525        2.453        0.410      200.963       44.004        0.048      328.506       -5.350      858.512
12/04/2013  18:45:00       19.333       94.737        4.446       65.844       56.914       46.643     4335.492     3239.208     2175.583        0.956        0.488       96.689       42.125        0.190      328.586       -5.218      858.519
12/04/2013  18:46:00       35.904      171.707      -20.234       43.219       58.154       31.577     1867.867     3381.937      997.095        1.871        0.312      175.420       30.978        0.031      328.536       -5.301      858.521
12/04/2013  18:47:00       38.391      140.563      -16.241       48.217       92.528       40.390     2324.853     8561.504     1631.315        1.700        0.626      145.712       50.447        0.120      328.529       -5.314      858.520
12/04/2013  18:48:00       63.072      112.488      -13.749       35.451       51.738       32.638     1256.761     2676.837     1065.239        1.091        0.250      128.964       30.328        0.055      328.526       -5.315      858.511
12/04/2013  18:49:00       26.573       42.584        7.025       31.307       36.631       24.981      980.139     1341.833      624.055        0.276        0.147       50.195       18.812        0.140      328.563       -5.256      858.506
12/04/2013  18:50:00       40.560      101.326       -3.505       41.851       61.678       36.442     1751.502     3804.226     1327.990        0.940        0.344      109.143       36.951        0.115      328.543       -5.289      858.501
12/04/2013  18:51:00       29.630       84.968      -11.327       31.840       67.869       26.704     1013.803     4606.202      713.098        0.728        0.317       89.986       29.266        0.106      328.537       -5.298      858.499
12/04/2013  18:52:00       48.686      196.365      -26.349       46.162       68.431       39.133     2130.909     4682.836     1531.416        2.498        0.417      202.311       42.103        0.043      328.500       -5.360      858.501
12/04/2013  18:53:00       55.077       88.275        0.741       48.083       39.010       42.404     2311.928     1521.763     1798.070        0.823        0.282      104.048       25.372        0.059      328.499       -5.362      858.508
12/04/2013  18:54:00       29.409      104.876       -7.213       30.143       58.239       29.649      908.575     3391.768      879.045        0.855        0.259      108.922       33.584        0.095      328.538       -5.296      858.522
12/04/2013  18:55:00       35.946      115.621      -15.183       39.787       58.546       30.330     1583.015     3427.628      919.887        1.041        0.297      121.080       31.043        0.066      328.505       -5.350      858.539
12/04/2013  18:56:00       37.608       72.059        9.423       50.647       49.721       38.199     2565.100     2472.219     1459.129        0.659        0.325       81.282       30.645        0.142      328.531       -5.309      858.547
12/04/2013  18:57:00       73.013       54.792       12.257       50.124       35.964       29.239     2512.422     1293.437      854.926        0.657        0.233       91.286       21.326        0.055      328.501       -5.356      858.559
12/04/2013  18:58:00       62.478       54.354       16.473       36.586       29.116       31.951     1338.544      847.766     1020.867        0.517        0.160       82.813       19.161        0.054      328.560       -5.260      858.566
12/04/2013  18:59:00        8.862       86.012       -2.791       36.985       66.418       32.150     1367.924     4411.324     1033.619        0.715        0.341       86.467       39.425        0.208      328.561       -5.258      858.571
12/04/2013  19:00:00       47.954      108.851       -4.423       41.839       68.484       37.508     1750.517     4690.037     1406.862        1.101        0.392      118.946       37.007        0.097      328.539       -5.295      858.589
12/04/2013  19:01:00       43.931      114.040       -9.557       49.736       53.891       39.220     2473.714     2904.191     1538.173        1.097        0.346      122.209       36.195        0.088      328.504       -5.351      858.601
12/04/2013  19:02:00       38.840      136.619      -16.904       47.692       70.883       34.146     2274.529     5024.456     1165.928        1.446        0.423      142.033       32.530        0.052      328.510       -5.343      858.621
12/04/2013  19:03:00       29.852      226.691      -32.382       40.229       59.884       28.841     1618.338     3586.083      831.807        2.968        0.302      228.648       31.806        0.019      328.507       -5.350      858.631
12/04/2013  19:04:00       36.359      113.048       -4.641       49.865       54.626       36.857     2486.562     2984.018     1358.473        1.047        0.341      118.751       32.326        0.074      328.538       -5.297      858.646
12/04/2013  19:05:00       40.834      151.982      -21.731       43.453       76.267       41.473     1888.132     5816.657     1720.025        1.733        0.471      157.373       40.442        0.066      328.509       -5.346      858.649
12/04/2013  19:06:00       57.430      114.955       -5.014       57.173       66.694       32.208     3268.801     4448.028     1037.368        1.264        0.438      128.503       38.245        0.089      328.524       -5.318      858.648
12/04/2013  19:07:00       88.427       80.323        7.720       48.344       44.721       36.669     2337.150     1999.940     1344.630        1.001        0.284      119.461       31.851        0.071      328.521       -5.324      858.650
12/04/2013  19:08:00       41.658      117.766       -8.432       47.531       73.110       38.447     2259.238     5345.105     1478.204        1.238        0.454      124.917       42.446        0.115      328.527       -5.314      858.650
12/04/2013  19:09:00       37.183       83.615       -1.099       48.043       50.099       36.754     2308.101     2509.959     1350.875        0.727        0.308       91.510       27.422        0.090      328.543       -5.288      858.647
12/04/2013  19:10:00       65.147      106.163        8.891       47.747       74.228       48.201     2279.792     5509.826     2323.311        1.285        0.506      124.558       39.505        0.101      328.531       -5.309      858.631
12/04/2013  19:11:00       31.913      171.375      -25.328       34.485       42.909       26.773     1189.197     1841.213      716.799        1.739        0.187      174.321       17.815        0.010      328.458       -5.427      858.618
12/04/2013  19:12:00       32.518       74.621       -6.774       38.793       45.940       27.971     1504.884     2110.463      782.390        0.553        0.220       81.398       23.169        0.081      328.526       -5.316      858.602
12/04/2013  19:13:00        8.380       75.071       12.059       37.670       77.975       34.146     1419.005     6080.139     1165.974        0.726        0.433       75.537       43.240        0.328      328.613       -5.176      858.589
12/04/2013  19:14:00      -11.635      167.064      -13.214       28.317       64.553       24.425      801.874     4167.083      596.600        1.689        0.278      167.468       26.207        0.024      328.643       -5.125      858.590
12/04/2013  19:15:00      -29.742      184.536      -21.867       28.931       37.348       19.315      837.013     1394.906      373.070        1.901        0.130      186.917       11.573        0.004      328.582       -5.225      858.600
12/04/2013  19:16:00      -19.990      226.107      -27.213       20.709       33.020       14.301      428.861     1090.320      204.516        2.699        0.086      226.989        9.243        0.002      328.445       -5.450      858.612
12/04/2013  19:17:00       16.598      172.575      -28.275       38.223       75.256       29.965     1461.025     5663.459      897.879        1.944        0.401      173.371       40.259        0.054      328.479       -5.393      858.619
12/04/2013  19:18:00       -4.975      138.284      -16.395       37.713       61.845       24.196     1422.249     3824.802      585.452        1.262        0.292      138.373       25.716        0.035      328.610       -5.180      858.637
12/04/2013  19:19:00       -6.061      139.364      -22.076       34.937       52.740       24.482     1220.591     2781.457      599.349        1.227        0.230      139.496       27.578        0.039      328.565       -5.251      858.651
12/04/2013  19:20:00       12.859      111.033       -7.391       35.668       62.883       28.852     1272.186     3954.240      832.412        0.930        0.303      111.775       32.490        0.084      328.568       -5.247      858.658
12/04/2013  19:21:00       48.885      114.216      -19.314       39.757       52.714       27.869     1580.629     2778.734      776.688        1.047        0.257      124.238       27.114        0.048      328.495       -5.367      858.673
12/04/2013  19:22:00       46.472      107.822      -11.458       37.242       46.584       30.128     1386.955     2170.088      907.707        0.919        0.223      117.411       30.565        0.068      328.524       -5.320      858.681
12/04/2013  19:23:00       39.784      119.162       -9.673       35.447       55.099       35.806     1256.508     3035.877     1282.064        1.072        0.279      125.628       35.938        0.082      328.503       -5.354      858.693
12/04/2013  19:24:00        7.550      121.898        1.397       31.085       74.683       36.205      966.249     5577.619     1310.768        1.138        0.393      122.132       43.681        0.128      328.518       -5.330      858.707
12/04/2013  19:25:00       14.972       50.099        7.902       56.956       52.151       37.935     3243.994     2719.694     1439.028        0.510        0.370       52.288       34.616        0.438      328.543       -5.287      858.718
12/04/2013  19:26:00       38.691      131.843      -12.774       54.574       52.951       33.086     2978.336     2803.814     1094.699        1.296        0.344      137.403       32.033        0.054      328.491       -5.374      858.737
12/04/2013  19:27:00       41.623      115.665      -13.776       40.115       55.324       42.054     1609.234     3060.723     1768.571        1.087        0.322      122.926       37.348        0.092      328.500       -5.358      858.747
12/04/2013  19:28:00       38.546       71.766       -3.283       42.492       60.178       40.145     1805.542     3621.387     1611.581        0.684        0.352       81.463       36.680        0.203      328.485       -5.384      858.746
12/04/2013  19:29:00       11.511      153.276      -35.884       42.627       47.199       23.959     1817.026     2227.754      574.032        1.477        0.231      153.708       12.631        0.007      328.521       -5.324      858.745
12/04/2013  19:30:00      -21.375      186.509      -19.375       44.575       46.221       28.016     1986.929     2136.361      784.899        2.026        0.245      187.730       20.416        0.012      328.509       -5.344      858.737
12/04/2013  19:31:00       -0.287      176.677      -30.625       36.207       32.034       15.165     1310.954     1026.189      229.972        1.736        0.128      176.677       14.082        0.006      328.444       -5.450      858.729
12/04/2013  19:32:00       30.890       70.425       -8.634       30.781       35.200       21.062      947.448     1239.069      443.623        0.431        0.132       76.902       19.969        0.067      328.540       -5.293      858.723
12/04/2013  19:33:00       39.363      102.905      -11.927       23.698       44.467       30.531      561.608     1977.281      932.149        0.788        0.174      110.176       29.753        0.073      328.479       -5.392      858.719
12/04/2013  19:34:00       71.141       91.053       -2.088       35.623       47.390       42.072     1269.020     2245.835     1770.018        0.932        0.264      115.550       35.819        0.096      328.468       -5.410      858.721
12/04/2013  19:35:00       54.705       67.271        1.875       45.110       37.664       36.785     2034.892     1418.609     1353.155        0.616        0.240       86.707       23.031        0.071      328.457       -5.428      858.713
12/04/2013  19:36:00       33.621       90.207       -4.035       43.053       44.166       35.032     1853.585     1950.663     1227.234        0.716        0.252       96.268       26.836        0.078      328.466       -5.414      858.717
12/04/2013  19:37:00       66.753       73.629       -0.226       41.000       45.381       32.944     1681.001     2059.431     1085.332        0.735        0.241       99.384       23.731        0.057      328.454       -5.434      858.732
12/04/2013  19:38:00       91.108       58.079       12.239       45.852       32.150       27.637     2102.391     1033.654      763.816        0.786        0.195      108.046       14.600        0.018      328.492       -5.371      858.732
12/04/2013  19:39:00       64.747       55.588       28.609       52.151       29.263       32.317     2719.776      856.299     1044.398        0.636        0.231       85.336       31.474        0.136      328.485       -5.383      858.733
12/04/2013  19:40:00       59.763       35.728       16.990       38.372       27.417       27.544     1472.388      751.679      758.683        0.406        0.149       69.628       16.263        0.055      328.560       -5.261      858.721
12/04/2013  19:41:00       88.372       62.305       14.025       47.701       45.022       40.108     2275.423     2026.972     1608.651        0.890        0.296      108.127       35.115        0.105      328.464       -5.417      858.718
12/04/2013  19:42:00       76.844       75.080        4.033       46.152       43.583       30.856     2129.987     1899.519      952.072        0.827        0.249      107.433       24.665        0.053      328.484       -5.384      858.714
12/04/2013  19:43:00       58.958       66.758       56.153       60.805       50.224       31.115     3697.294     2522.488      968.158        0.914        0.359       89.065       24.831        0.078      328.564       -5.253      858.712
12/04/2013  19:44:00      150.635      110.988       11.427       59.170       57.234       37.199     3501.071     3275.679     1383.739        2.165        0.408      187.108       26.719        0.020      328.453       -5.437      858.711
12/04/2013  19:45:00      125.408       70.141       20.572       72.732       41.127       39.875     5289.904     1691.453     1590.045        1.482        0.429      143.691       25.757        0.032      328.455       -5.433      858.711
12/04/2013  19:46:00       62.118       89.138        5.795       47.802       53.351       40.215     2285.050     2846.332     1617.227        0.929        0.337      108.648       37.251        0.118      328.445       -5.449      858.708
12/04/2013  19:47:00      115.375       84.782        9.018       64.456       61.049       39.069     4154.540     3727.033     1526.395        1.499        0.470      143.176       26.989        0.036      328.465       -5.416      858.720
12/04/2013  19:48:00      102.814       61.460       28.771       61.715       35.308       43.686     3808.770     1246.640     1908.453        1.107        0.348      119.784       33.529        0.078      328.457       -5.429      858.731
12/04/2013  19:49:00       85.900       61.207       24.034       51.838       36.491       36.959     2687.193     1331.616     1365.953        0.854        0.269      105.476       31.328        0.088      328.470       -5.408      858.742
12/04/2013  19:50:00      117.314       49.769       40.463       79.140       50.527       45.175     6263.169     2552.947     2040.785        1.436        0.543      127.434       37.251        0.085      328.466       -5.414      858.750
12/04/2013  19:51:00      128.821       84.224       37.415       57.940       38.320       44.174     3356.990     1468.433     1951.379        1.593        0.339      153.911       26.245        0.029      328.477       -5.396      858.759
12/04/2013  19:52:00       76.943       50.036       37.496       52.026       47.024       49.868     2706.671     2211.292     2486.838        0.862        0.370       91.782       32.429        0.125      328.478       -5.394      858.759
12/04/2013  19:53:00      155.100       44.183       15.598       53.112       41.587       44.229     2820.834     1729.509     1956.214        1.638        0.325      161.271       32.056        0.040      328.462       -5.420      858.762
12/04/2013  19:54:00      109.116       72.481       12.923       52.221       45.619       47.468     2726.988     2081.078     2253.167        1.219        0.353      130.995       17.743        0.018      328.429       -5.474      858.776
12/04/2013  19:55:00      123.141       84.170       14.512       52.578       44.224       44.406     2764.422     1955.718     1971.882        1.457        0.335      149.159       25.217        0.029      328.395       -5.531      858.796
12/04/2013  19:56:00      155.286      117.193       13.427       50.579       32.251       31.193     2558.227     1040.148      973.017        2.130        0.229      194.546       12.616        0.004      328.379       -5.557      858.804
12/04/2013  19:57:00       73.837       71.550        8.750       48.075       38.216       28.231     2311.190     1460.479      796.978        0.761        0.228      102.817       19.717        0.037      328.442       -5.453      858.827
12/04/2013  19:58:00      128.163       73.731        7.969       35.808       32.960       32.412     1282.246     1086.371     1050.524        1.267        0.171      147.859       16.651        0.013      328.412       -5.503      858.852
12/04/2013  19:59:00      108.490       55.464       -0.040       38.496       36.582       22.679     1481.932     1338.226      514.332        0.909        0.167      121.845       14.990        0.015      328.427       -5.477      858.869
12/04/2013  20:00:00      117.449       68.428       32.868       40.783       42.157       39.123     1663.292     1777.247     1530.595        1.226        0.249      135.929       28.793        0.045      328.430       -5.472      858.886
12/04/2013  20:01:00       64.572       35.791       15.876       36.305       33.458       32.654     1318.065     1119.422     1066.254        0.460        0.175       73.827       17.600        0.057      328.464       -5.416      858.883
12/04/2013  20:02:00       75.490       16.797        2.432       29.251       38.076       26.631      855.624     1449.756      709.191        0.450        0.151       77.336       13.370        0.030      328.484       -5.385      858.878
12/04/2013  20:03:00       75.013       47.873       63.196       57.107       48.776       42.357     3261.265     2379.127     1794.123        0.967        0.372       88.987       38.469        0.187      328.518       -5.330      858.867
12/04/2013  20:04:00      123.082       47.207       27.432       66.309       38.564       36.076     4396.831     1487.211     1301.464        1.266        0.359      131.824       18.295        0.019      328.482       -5.388      858.862
12/04/2013  20:05:00      163.919       83.329       28.384       47.165       49.072       38.151     2224.570     2408.098     1455.534        2.035        0.304      183.883       28.541        0.024      328.437       -5.463      858.860
12/04/2013  20:06:00      106.440       40.341        8.058       63.354       44.334       49.964     4013.757     1965.546     2496.419        1.075        0.424      113.828       38.682        0.115      328.444       -5.449      858.862
12/04/2013  20:07:00      153.213       72.682       29.949       61.429       55.900       43.540     3773.505     3124.796     1895.701        1.922        0.440      169.579       25.035        0.022      328.443       -5.454      858.875
12/04/2013  20:08:00      125.653       45.420       24.641       57.043       51.245       35.434     3253.870     2626.023     1255.590        1.280        0.357      133.609       26.643        0.040      328.459       -5.426      858.877
12/04/2013  20:09:00      128.686       80.006       24.621       59.822       43.631       36.586     3578.709     1903.638     1338.556        1.519        0.341      151.530       15.000        0.010      328.433       -5.468      858.878
12/04/2013  20:10:00      100.274       56.430       41.634       48.557       45.654       33.472     2357.787     2084.292     1120.374        1.027        0.278      115.062       16.179        0.020      328.483       -5.387      858.878
12/04/2013  20:11:00       86.669       56.635       20.480       43.746       43.039       33.152     1913.669     1852.374     1099.028        0.800        0.243      103.533       23.618        0.052      328.482       -5.388      858.876
12/04/2013  20:12:00       92.018       63.691       11.519       41.388       36.460       33.233     1712.954     1329.316     1104.455        0.840        0.207      111.910       23.884        0.046      328.486       -5.381      858.886
12/04/2013  20:13:00      114.988       88.191        6.431       49.898       62.324       35.569     2489.798     3884.287     1265.183        1.434        0.382      144.914       35.603        0.060      328.489       -5.377      858.888
12/04/2013  20:14:00      168.980      126.023       34.990      105.727       63.004       43.512    11178.230     3969.508     1893.266        3.135        0.852      210.798       29.889        0.020      328.469       -5.413      858.892
12/04/2013  20:15:00      175.478      123.891       20.008       63.474       61.397       50.471     4028.963     3769.557     2547.299        2.844        0.517      214.806       38.305        0.032      328.426       -5.482      858.905
12/04/2013  20:16:00      144.473      106.760       21.576       52.091       46.006       39.302     2713.422     2116.513     1544.618        1.955        0.319      179.639       20.277        0.013      328.446       -5.448      858.930
12/04/2013  20:17:00       96.966       60.176       -0.676       87.523       50.128       43.912     7660.298     2512.853     1928.275        1.256        0.605      114.121       23.436        0.042      328.449       -5.443      858.943
12/04/2013  20:18:00      154.858       89.937        7.387       55.812       57.362       46.675     3115.011     3290.415     2178.602        2.035        0.429      179.081       24.210        0.018      328.421       -5.490      858.964
12/04/2013  20:19:00      157.229       77.423       19.212       60.481       48.277       41.540     3657.906     2330.656     1725.550        1.940        0.386      175.258       23.754        0.018      328.426       -5.482      858.986
12/04/2013  20:20:00      122.319       81.186       22.341       58.216       47.130       35.897     3389.080     2221.204     1288.580        1.447        0.345      146.809       26.998        0.034      328.452       -5.437      858.983
12/04/2013  20:21:00      178.013       89.915       26.853       54.804       46.267       41.911     3003.453     2140.615     1756.561        2.370        0.345      199.433       24.008        0.014      328.520       -5.327      858.982
12/04/2013  20:22:00      120.123       93.235        4.343       42.001       36.931       32.083     1764.053     1363.914     1029.335        1.365        0.208      152.060       21.425        0.020      328.459       -5.426      858.989
12/04/2013  20:23:00      121.172       42.975       13.918       73.377       45.420       43.190     5384.149     2062.935     1865.350        1.302        0.466      128.567       27.942        0.047      328.487       -5.381      859.003
12/04/2013  20:24:00       62.289       50.644       34.033       50.154       33.153       32.456     2515.411     1099.117     1053.400        0.613        0.233       80.280       30.897        0.148      328.507       -5.347      859.005
12/04/2013  20:25:00       75.259       35.888       15.108       45.594       47.448       27.725     2078.815     2251.359      768.660        0.614        0.255       83.378       18.193        0.048      328.531       -5.309      859.020
12/04/2013  20:26:00      105.570       78.834       10.118       61.342       41.806       37.210     3762.870     1747.733     1384.583        1.218        0.345      131.757       26.338        0.040      328.458       -5.427      859.039
12/04/2013  20:27:00      105.893       55.622        9.874       49.347       47.462       32.659     2435.092     2252.625     1066.615        1.008        0.288      119.613       18.880        0.025      328.521       -5.324      859.046
12/04/2013  20:28:00      175.927      105.435       13.373       36.239       46.841       42.605     1313.258     2194.094     1815.151        2.378        0.266      205.102       28.245        0.019      328.458       -5.429      859.063
12/04/2013  20:29:00      157.870      103.663       51.065       51.662       39.469       37.983     2668.993     1557.788     1442.715        2.197        0.283      188.862       28.872        0.023      328.464       -5.420      859.077
12/04/2013  20:30:00      168.320       71.655       20.481       62.828       51.629       47.381     3947.333     2665.586     2244.921        2.137        0.443      182.938       30.575        0.028      328.439       -5.460      859.078
12/04/2013  20:31:00      133.130       72.074       10.482       42.216       35.868       29.239     1782.224     1286.537      854.931        1.348        0.196      151.388       17.623        0.014      328.432       -5.470      859.091
12/04/2013  20:32:00      100.343       58.046       29.667       70.186       52.408       54.272     4926.026     2746.636     2945.479        1.247        0.531      115.923       45.944        0.157      328.478       -5.394      859.097
12/04/2013  20:33:00       42.463       23.602       -2.081       43.953       38.734       37.139     1931.905     1500.320     1379.294        0.359        0.241       48.581       20.324        0.175      328.483       -5.387      859.087
12/04/2013  20:34:00       95.686       52.248        9.032       63.612       43.877       31.334     4046.494     1925.207      981.800        0.946        0.348      109.021       16.306        0.022      328.515       -5.334      859.102
12/04/2013  20:35:00      105.632       80.464       45.493       61.662       49.978       44.251     3802.218     2497.820     1958.155        1.398        0.413      132.787       35.701        0.072      328.531       -5.309      859.105
12/04/2013  20:36:00      180.675      121.042       48.845       53.240       47.974       44.803     2834.517     2301.529     2007.339        2.841        0.357      217.474       26.197        0.015      328.407       -5.514      859.107
12/04/2013  20:37:00       65.677       49.661       40.848       71.292       43.903       26.067     5082.599     1927.503      679.489        0.807        0.384       82.339       21.136        0.066      328.494       -5.369      859.110
12/04/2013  20:38:00      118.904       76.164       15.666       42.382       37.320       31.517     1796.229     1392.803      993.341        1.218        0.209      141.206       16.772        0.014      328.443       -5.451      859.125
12/04/2013  20:39:00      183.442      117.840       45.597       46.583       34.973       47.162     2169.971     1223.125     2224.222        2.762        0.281      218.030       25.869        0.014      328.409       -5.510      859.142
12/04/2013  20:40:00      121.829       42.467       41.123       73.569       52.009       48.009     5412.362     2704.892     2304.849        1.438        0.521      129.018       39.027        0.092      328.424       -5.484      859.147
12/04/2013  20:41:00      154.148       72.616       37.219       80.637       59.628       46.665     6502.336     3555.489     2177.667        2.133        0.612      170.396       20.498        0.014      328.387       -5.543      859.164
12/04/2013  20:42:00      132.556       87.697       36.866       55.538       44.529       35.640     3084.444     1982.847     1270.205        1.648        0.317      158.940       27.234        0.029      328.390       -5.539      859.180
12/04/2013  20:43:00       64.968       21.884       58.204       68.041       38.905       35.382     4629.589     1513.612     1251.860        0.774        0.370       68.555       27.494        0.161      328.432       -5.469      859.172
12/04/2013  20:44:00      104.115       63.996       28.366       87.141       44.820       32.462     7593.528     2008.823     1053.801        1.320        0.533      122.211       33.771        0.076      328.450       -5.440      859.181
12/04/2013  20:45:00      154.518       85.775       47.530       72.419       52.704       63.856     5244.440     2777.745     4077.533        2.279        0.605      176.730       46.985        0.071      328.452       -5.437      859.182
12/04/2013  20:46:00      116.174       90.831       41.349       92.747       43.289       39.398     8601.963     1873.955     1552.217        1.774        0.601      147.468       48.932        0.110      328.440       -5.456      859.180
12/04/2013  20:47:00       70.177       75.736       53.995       46.011       39.969       52.450     2117.016     1597.518     2750.976        1.002        0.323      103.251       32.312        0.098      328.494       -5.369      859.198
12/04/2013  20:48:00       83.162       55.087        5.213       52.974       44.984       37.210     2806.290     2023.582     1384.621        0.809        0.311       99.752       24.526        0.060      328.453       -5.435      859.213
12/04/2013  20:49:00      167.395       93.536        4.718       32.720       27.950       27.342     1070.608      781.227      747.595        1.970        0.130      191.755       14.645        0.006      328.385       -5.545      859.223
12/04/2013  20:50:00      172.839       90.692       24.211       45.047       49.012       33.184     2029.255     2402.161     1101.150        2.211        0.277      195.188       22.601        0.013      328.374       -5.567      859.234
12/04/2013  20:51:00      102.880       63.516       30.669       61.232       45.404       34.581     3749.338     2061.527     1195.843        1.128        0.350      120.907       29.549        0.060      328.430       -5.473      859.233
12/04/2013  20:52:00      113.870       99.677       42.799       57.380       34.238       35.000     3292.474     1172.227     1224.999        1.521        0.284      151.334       28.676        0.036      328.443       -5.452      859.244
12/04/2013  20:53:00      165.366       85.308       30.915       72.538       48.077       33.231     5261.802     2311.435     1104.318        2.213        0.434      186.073       13.637        0.005      328.427       -5.479      859.254
12/04/2013  20:54:00      151.405      107.733       16.703       42.070       34.231       33.698     1769.858     1171.746     1135.566        1.944        0.204      185.822       18.791        0.010      328.375       -5.564      859.264
12/04/2013  20:55:00      153.333       96.165       33.697       53.423       53.024       43.295     2854.048     2811.518     1874.434        2.072        0.377      180.994       23.899        0.017      328.371       -5.571      859.286
12/04/2013  20:56:00      130.428       57.674       47.097       67.294       40.256       40.616     4528.481     1620.527     1649.698        1.518        0.390      142.610       37.254        0.068      328.390       -5.537      859.303
12/04/2013  20:57:00      110.645       81.377        1.604       66.009       46.178       32.423     4357.193     2132.404     1051.233        1.320        0.377      137.348       25.512        0.035      328.406       -5.511      859.311
12/04/2013  20:58:00      102.196       88.880        8.868       49.067       44.258       41.625     2407.535     1958.780     1732.640        1.226        0.305      135.439       30.902        0.052      328.389       -5.539      859.329
12/04/2013  20:59:00      111.792       62.939       14.899       44.185       29.212       31.298     1952.292      853.347      979.541        1.023        0.189      128.292       16.095        0.016      328.428       -5.477      859.346
12/04/2013  21:00:00       78.777       55.121        4.609       43.848       28.944       26.134     1922.680      837.776      682.980        0.635        0.172       96.146       15.338        0.025      328.391       -5.538      859.360
12/04/2013  21:01:00       91.253       71.828        2.053       65.929       29.575       28.719     4346.634      874.670      824.799        0.977        0.302      116.131       15.303        0.017      328.367       -5.574      859.366
12/04/2013  21:02:00       99.367       54.287        7.341       35.017       21.993       30.818     1226.167      483.674      949.762        0.777        0.133      113.229       17.563        0.024      328.387       -5.542      859.374
12/04/2013  21:03:00      120.619       96.322        8.917       37.438       23.575       27.175     1401.625      555.803      738.475        1.330        0.135      154.360       12.100        0.006      328.356       -5.592      859.383
12/04/2013  21:04:00       91.120       65.299       20.989       32.549       26.832       24.435     1059.444      719.972      597.050        0.769        0.119      112.101       16.193        0.021      328.430       -5.472      859.372
12/04/2013  21:05:00       76.179       60.174       29.791       49.252       29.524       32.978     2425.738      871.687     1087.540        0.735        0.219       97.078       32.866        0.115      328.466       -5.414      859.359
12/04/2013  21:06:00       99.120       67.576       33.978       30.509       31.801       29.346      930.792     1011.318      861.167        0.917        0.140      119.964       19.891        0.027      328.406       -5.511      859.352
12/04/2013  21:07:00       97.833       50.264        2.463       30.814       30.043       20.733      949.523      902.597      429.872        0.719        0.114      109.990       14.364        0.017      328.425       -5.480      859.354
12/04/2013  21:08:00       98.402       84.166       -2.484       37.850       40.463       30.394     1432.600     1637.275      923.765        1.038        0.200      129.487       23.535        0.033      328.435       -5.464      859.359
12/04/2013  21:09:00      108.128       79.627       17.427       53.943       49.248       48.885     2909.886     2425.332     2389.783        1.303        0.386      134.284       28.476        0.045      328.423       -5.483      859.350
12/04/2013  21:10:00       98.595       80.628        6.727       49.364       38.619       38.799     2436.761     1491.397     1505.352        1.085        0.272      127.366       25.087        0.039      328.390       -5.537      859.354
12/04/2013  21:11:00      102.055       72.467       -2.286       62.736       42.622       32.951     3935.787     1816.601     1085.797        1.125        0.342      125.166       19.637        0.025      328.427       -5.477      859.357
12/04/2013  21:12:00       75.090       43.634       29.169       51.571       49.732       35.352     2659.531     2473.304     1249.733        0.739        0.319       86.847       20.083        0.053      328.463       -5.418      859.370
12/04/2013  21:13:00       98.491       57.088       -2.133       38.224       30.375       26.884     1461.085      922.618      722.753        0.803        0.155      113.840       18.023        0.025      328.453       -5.435      859.406
12/04/2013  21:14:00       99.960       87.713       24.378       70.601       45.196       36.119     4984.440     2042.674     1304.583        1.330        0.417      132.987       21.272        0.026      328.372       -5.567      859.436
12/04/2013  21:15:00       77.669       47.785       10.807       56.081       38.752       24.834     3145.093     1501.705      616.706        0.685        0.263       91.191       24.897        0.075      328.428       -5.475      859.452
12/04/2013  21:16:00      132.437       49.278       21.310       48.125       44.817       37.792     2315.998     2008.591     1428.218        1.309        0.288      141.308       25.689        0.033      328.414       -5.498      859.462
12/04/2013  21:17:00       92.601       78.302        9.965       65.331       43.987       36.665     4268.143     1934.821     1344.289        1.117        0.377      121.269       17.458        0.021      328.369       -5.572      859.470
12/04/2013  21:18:00       85.548       84.472       -4.119       58.661       43.132       34.095     3441.092     1860.341     1162.497        1.047        0.323      120.224       28.259        0.055      328.387       -5.543      859.478
12/04/2013  21:19:00       56.033       72.206        9.976       46.968       46.633       41.518     2206.016     2174.682     1723.729        0.728        0.305       91.397       29.519        0.104      328.389       -5.539      859.483
12/04/2013  21:20:00      176.951       97.888       12.483       58.592       41.749       36.617     3433.059     1742.947     1340.772        2.378        0.326      202.221       16.983        0.007      328.346       -5.611      859.504
12/04/2013  21:21:00      171.867       92.881       10.764       61.824       51.752       44.702     3822.169     2678.254     1998.262        2.339        0.425      195.359       32.568        0.028      328.316       -5.660      859.497
12/04/2013  21:22:00      138.282      101.059       17.836       61.553       50.522       45.929     3788.833     2552.506     2109.486        1.905        0.423      171.274       36.814        0.046      328.303       -5.679      859.499
12/04/2013  21:23:00      138.887       85.674       10.016       65.014       45.235       43.583     4226.818     2046.248     1899.465        1.745        0.409      163.186       23.323        0.020      328.301       -5.684      859.499
12/04/2013  21:24:00      133.949       89.944        1.693       54.426       47.677       34.304     2962.155     2273.137     1176.779        1.622        0.321      161.345       23.986        0.022      328.327       -5.641      859.504
12/04/2013  21:25:00       56.862       33.423        4.052       56.647       47.259       28.654     3208.827     2233.409      821.035        0.531        0.313       65.957       22.833        0.120      328.331       -5.633      859.516
12/04/2013  21:26:00       73.123       72.971        0.262       50.557       40.031       33.234     2556.010     1602.462     1104.486        0.797        0.263      103.304       23.197        0.050      328.329       -5.636      859.527
12/04/2013  21:27:00       78.175       88.013        3.031       46.401       57.091       42.637     2153.010     3259.355     1817.946        1.055        0.362      117.718       33.380        0.080      328.258       -5.752      859.534
12/04/2013  21:28:00       94.910       63.711        6.163       43.228       37.359       37.726     1868.673     1395.732     1423.285        0.890        0.234      114.311       30.624        0.072      328.288       -5.703      859.548
12/04/2013  21:29:00       88.953       59.093       13.459       61.672       36.761       29.207     3803.495     1351.345      853.058        0.880        0.300      106.793       27.275        0.065      328.333       -5.630      859.555
12/04/2013  21:30:00       89.097       75.437        1.885       58.585       47.586       39.429     3432.178     2264.471     1554.669        1.044        0.363      116.743       31.150        0.071      328.279       -5.718      859.554
12/04/2013  21:31:00      110.705       62.958       16.785       63.168       41.254       38.584     3990.188     1701.878     1488.725        1.184        0.359      127.355       10.311        0.007      328.227       -5.803      859.545
12/04/2013  21:32:00       57.170       56.904        0.161       51.874       42.449       38.221     2690.931     1801.941     1460.841        0.623        0.298       80.662       32.435        0.162      328.184       -5.872      859.539
12/04/2013  21:33:00      124.140       82.026        6.477       64.214       42.932       32.205     4123.433     1843.178     1037.146        1.459        0.350      148.792       12.523        0.007      328.164       -5.907      859.535
12/04/2013  21:34:00       56.904       81.141       -1.860       44.885       46.222       43.634     2014.682     2136.431     1903.929        0.794        0.303       99.105       29.267        0.087      328.144       -5.940      859.530
12/04/2013  21:35:00       47.952       85.035        0.494       38.706       51.442       42.889     1498.188     2646.297     1839.448        0.776        0.299       97.624       36.608        0.141      328.123       -5.974      859.535
12/04/2013  21:36:00       37.141       54.776        0.069       38.458       38.830       26.082     1478.986     1507.736      680.246        0.402        0.183       66.181       19.544        0.087      328.179       -5.882      859.547
12/04/2013  21:37:00       71.164       60.738        3.044       40.065       26.657       19.859     1605.207      710.619      394.399        0.574        0.136       93.560       14.477        0.024      328.181       -5.879      859.544
12/04/2013  21:38:00       88.249       52.960        9.031       43.212       23.248       19.501     1867.236      540.484      380.300        0.673        0.139      102.921       12.570        0.015      328.196       -5.853      859.542
12/04/2013  21:39:00       60.164       38.165        1.818       39.961       31.532       25.323     1596.879      994.258      641.259        0.416        0.162       71.248       21.254        0.089      328.223       -5.811      859.539
12/04/2013  21:40:00       23.789       99.399       -7.430       27.412       46.243       25.833      751.391     2138.405      667.337        0.703        0.178      102.206       22.450        0.048      328.211       -5.831      859.546
12/04/2013  21:41:00       47.784       77.527       -1.693       38.758       42.513       37.859     1502.164     1807.363     1433.320        0.652        0.237       91.070       30.039        0.109      328.221       -5.813      859.557
12/04/2013  21:42:00      100.597       79.526        0.999       71.115       28.578       25.556     5057.410      816.694      653.094        1.148        0.326      128.235       25.129        0.038      328.181       -5.878      859.564
12/04/2013  21:43:00       67.188       42.454        7.136       50.794       39.671       30.071     2580.043     1573.750      904.237        0.571        0.253       79.477       22.971        0.084      328.258       -5.752      859.553
12/04/2013  21:44:00      126.006      100.721       20.367       49.267       39.739       40.984     2427.229     1579.221     1679.718        1.606        0.284      161.314       22.285        0.019      328.140       -5.946      859.546
12/04/2013  21:45:00       68.435       61.262       14.317       56.073       44.603       30.283     3144.162     1989.408      917.073        0.734        0.303       91.850       24.946        0.074      328.166       -5.903      859.528
12/04/2013  21:46:00       58.245       55.952       15.821       57.765       31.377       29.912     3336.823      984.531      894.747        0.599        0.261       80.766       17.299        0.046      328.170       -5.898      859.519
12/04/2013  21:47:00       39.203       47.343        7.119       30.353       38.058       30.987      921.316     1448.404      960.177        0.358        0.166       61.468       25.808        0.176      328.189       -5.865      859.513
12/04/2013  21:48:00       54.142       46.920        1.622       30.766       19.726       20.664      946.547      389.121      426.995        0.345        0.088       71.644       15.159        0.045      328.197       -5.850      859.513
12/04/2013  21:49:00       36.360       59.400       -7.938       31.227       24.172       17.520      975.118      584.307      306.957        0.339        0.093       69.645       15.221        0.048      328.188       -5.866      859.529
12/04/2013  21:50:00       65.156       43.545        8.194       42.933       26.122       26.829     1843.272      682.355      719.810        0.473        0.162       78.367       20.522        0.069      328.189       -5.865      859.547
12/04/2013  21:51:00       60.245       47.263       13.067       50.836       31.933       28.423     2584.342     1019.746      807.842        0.522        0.221       76.572       14.478        0.036      328.181       -5.880      859.566
12/04/2013  21:52:00       90.627       56.326       18.637       32.435       27.978       26.669     1052.036      782.749      711.245        0.714        0.127      106.704       20.323        0.036      328.195       -5.855      859.588
12/04/2013  21:53:00       57.948       45.612        1.302       45.894       29.230       26.749     2106.294      854.390      715.498        0.456        0.184       73.746       19.620        0.071      328.243       -5.777      859.605
12/04/2013  21:54:00       83.737       80.782      -14.404       34.950       30.720       19.568     1221.480      943.704      382.917        0.815        0.127      116.351       14.624        0.016      328.185       -5.871      859.614
12/04/2013  21:55:00       89.211       52.356        2.259       36.883       34.073       22.626     1360.384     1160.989      511.930        0.687        0.152      103.439       12.070        0.014      328.196       -5.854      859.617
12/04/2013  21:56:00       93.701       74.008        5.445       45.530       33.326       26.520     2073.013     1110.605      703.301        0.909        0.194      119.403       19.142        0.026      328.156       -5.919      859.623
12/04/2013  21:57:00       61.178       49.640       -0.425       34.818       33.116       21.858     1212.285     1096.646      477.779        0.450        0.139       78.784       18.267        0.054      328.198       -5.850      859.624
12/04/2013  21:58:00       81.604       62.686        7.624       32.937       18.917       19.827     1084.867      357.844      393.128        0.624        0.092      102.902        9.603        0.009      328.190       -5.863      859.624
12/04/2013  21:59:00       51.706       47.794        1.368       32.018       23.681       18.569     1025.154      560.773      344.822        0.344        0.097       70.412       10.648        0.023      328.215       -5.824      859.627
12/04/2013  22:00:00       38.045       59.864       -7.420       25.062       29.276       21.055      628.095      857.086      443.293        0.351        0.096       70.930       17.480        0.061      328.190       -5.863      859.622
12/04/2013  22:01:00       38.336       16.198        5.882       35.991       20.841       12.433     1295.364      434.366      154.583        0.183        0.094       41.618       10.553        0.064      328.241       -5.780      859.624
12/04/2013  22:02:00       25.843       32.260        2.651       20.490       23.881       15.904      419.829      570.306      252.922        0.148        0.062       41.335       13.889        0.113      328.261       -5.747      859.623
12/04/2013  22:03:00       -2.517       82.639       -6.962       19.865       33.958       13.287      394.629     1153.147      176.537        0.430        0.086       82.677       15.698        0.036      328.242       -5.779      859.618
12/04/2013  22:04:00       18.339       40.250       -3.932       21.324       32.045       17.977      454.722     1026.889      323.169        0.189        0.090       44.231       11.275        0.065      328.271       -5.730      859.611
12/04/2013  22:05:00       -0.256       43.226        3.952       31.311       33.192       18.783      980.348     1101.716      352.809        0.216        0.122       43.227       12.597        0.085      328.337       -5.623      859.600
12/04/2013  22:06:00      -29.405       54.124        2.145       32.243       41.312       18.889     1039.608     1706.707      356.796        0.345        0.155       61.596       19.432        0.100      328.348       -5.606      859.598
12/04/2013  22:07:00      -22.387      119.668      -18.575       25.761       20.590       14.077      663.622      423.968      198.150        0.823        0.064      121.744        7.731        0.004      328.289       -5.702      859.596
12/04/2013  22:08:00      -17.026      127.674      -13.049       17.893       21.993       16.271      320.144      483.688      264.744        0.891        0.053      128.805       10.332        0.006      328.229       -5.800      859.591
12/04/2013  22:09:00       -4.277      123.399      -14.381       16.357       17.861       12.315      267.546      319.018      151.664        0.810        0.037      123.473        8.596        0.005      328.210       -5.832      859.589
12/04/2013  22:10:00       -6.346      114.567      -10.235       17.021       22.190       10.974      289.713      492.384      120.436        0.709        0.045      114.742        5.973        0.003      328.242       -5.776      859.581
12/04/2013  22:11:00       13.868       94.177       -8.525       30.363       44.415       20.775      921.884     1972.650      431.620        0.623        0.166       95.193       23.883        0.063      328.259       -5.750      859.574
12/04/2013  22:12:00       11.876       51.666       -1.950       29.730       43.483       21.916      883.853     1890.755      480.321        0.303        0.163       53.013       26.678        0.253      328.271       -5.729      859.570
12/04/2013  22:13:00       29.699       43.022       -5.417       22.946       24.655       18.008      526.528      607.884      324.304        0.211        0.073       52.278       14.971        0.082      328.252       -5.762      859.568
12/04/2013  22:14:00       28.559       19.812       -0.776       31.113       23.926       15.948      967.992      572.446      254.349        0.150        0.090       34.758       11.663        0.113      328.273       -5.728      859.569
12/04/2013  22:15:00       63.235       50.020        1.125       57.005       39.384       23.155     3249.611     1551.099      536.167        0.592        0.267       80.626       17.414        0.047      328.271       -5.731      859.572
12/04/2013  22:16:00       47.160       61.982        0.986       41.008       35.380       26.811     1681.694     1251.725      718.819        0.486        0.183       77.883       25.537        0.108      328.233       -5.793      859.578
12/04/2013  22:17:00       52.544       72.099        0.340       38.233       52.657       34.250     1461.738     2772.789     1173.046        0.668        0.270       89.214       34.056        0.146      328.197       -5.850      859.582
12/04/2013  22:18:00       24.916       79.990       -2.093       32.398       39.766       30.013     1049.646     1581.361      900.751        0.528        0.177       83.781       27.236        0.106      328.237       -5.787      859.593
12/04/2013  22:19:00       38.797       28.920       12.163       45.786       21.434       33.378     2096.321      459.419     1114.101        0.308        0.183       48.390       26.944        0.310      328.241       -5.780      859.591
12/04/2013  22:20:00       28.097       35.835        5.574       29.488       31.985       33.033      869.524     1023.066     1091.166        0.254        0.149       45.537       18.946        0.173      328.252       -5.761      859.591
12/04/2013  22:21:00       28.491      104.066       -8.729       34.539       40.274       24.472     1192.966     1621.979      598.903        0.757        0.171      107.895       24.013        0.050      328.224       -5.807      859.596
12/04/2013  22:22:00       42.112       66.617       -4.106       27.014       41.596       31.311      729.769     1730.215      980.369        0.483        0.172       78.812       29.024        0.136      328.248       -5.770      859.609
12/04/2013  22:23:00       34.043       28.842        8.159       27.814       22.895       26.117      773.635      524.199      682.098        0.202        0.099       44.618       18.345        0.169      328.261       -5.746      859.630
12/04/2013  22:24:00       29.243       57.360        4.895       30.499       31.552       26.556      930.179      995.512      705.229        0.340        0.132       64.384       21.326        0.110      328.255       -5.757      859.650
12/04/2013  22:25:00        8.710       53.373       11.035       37.620       34.411       26.865     1415.286     1184.094      721.707        0.318        0.166       54.079       23.509        0.189      328.320       -5.651      859.651
12/04/2013  22:26:00       19.334      107.350      -10.198       31.115       49.830       29.946      968.130     2482.995      896.743        0.817        0.217      109.077       32.250        0.087      328.247       -5.770      859.658
12/04/2013  22:27:00       14.168      124.081      -13.865       25.054       36.001       22.715      627.697     1296.082      515.986        0.911        0.122      124.887       21.832        0.031      328.232       -5.794      859.665
12/04/2013  22:28:00       11.495      122.014       -8.070       23.786       30.173       16.200      565.779      910.389      262.425        0.841        0.087      122.554       12.200        0.010      328.245       -5.774      859.667
12/04/2013  22:29:00        7.118       90.550       -7.504       16.019       43.754       21.841      256.603     1914.415      477.050        0.548        0.132       90.829       23.017        0.064      328.263       -5.744      859.673
12/04/2013  22:30:00        7.038      127.395      -16.727       16.320       24.966       18.273      266.336      623.287      333.911        0.889        0.061      127.590       10.633        0.007      328.237       -5.787      859.684
12/04/2013  22:31:00       13.532       82.048       -4.452       22.738       37.940       23.234      517.023     1439.428      539.829        0.472        0.125       83.156       24.096        0.084      328.318       -5.654      859.689
12/04/2013  22:32:00       -6.212      108.533       -7.010       26.349       39.752       20.485      694.275     1580.235      419.635        0.728        0.135      108.710       20.999        0.037      328.297       -5.690      859.700
12/04/2013  22:33:00      -11.731      132.550      -14.087       22.248       29.242       16.365      494.991      855.121      267.818        0.976        0.081      133.068       13.032        0.010      328.289       -5.703      859.697
12/04/2013  22:34:00        0.575       79.911       -5.884       27.972       40.338       17.521      782.426     1627.150      306.973        0.457        0.136       79.913       13.211        0.027      328.301       -5.681      859.690
12/04/2013  22:35:00        4.093       67.850       -2.936       19.247       27.267       16.127      370.456      743.509      260.091        0.300        0.069       67.973       10.228        0.023      328.327       -5.641      859.685
12/04/2013  22:36:00       33.658       39.542       -1.068       20.601       15.634       14.383      424.389      244.432      206.879        0.179        0.044       51.927        8.405        0.026      328.337       -5.624      859.689
12/04/2013  22:37:00       25.468       42.471       -4.307       35.258       36.104       21.223     1243.138     1303.518      450.427        0.273        0.150       49.522       20.227        0.167      328.295       -5.693      859.695
12/04/2013  22:38:00       34.360       41.210       -7.881       24.260       32.663       21.229      588.539     1066.868      450.686        0.252        0.105       53.655       20.349        0.144      328.308       -5.669      859.708
12/04/2013  22:39:00       27.157       80.171       -6.690       25.711       33.915       23.982      661.067     1150.209      575.137        0.480        0.119       84.646       21.629        0.065      328.272       -5.730      859.705
12/04/2013  22:40:00       35.103       53.203      -11.377       17.264       23.236       12.091      298.048      539.904      146.191        0.259        0.049       63.741       10.347        0.026      328.271       -5.730      859.692
12/04/2013  22:41:00       87.455       50.415        5.297       41.270       24.245       20.205     1703.224      587.800      408.234        0.646        0.135      100.945       11.470        0.013      328.292       -5.697      859.683
12/04/2013  22:42:00       70.466       61.061       41.947       21.830       25.927       30.319      476.530      672.229      919.242        0.626        0.103       93.241       15.236        0.027      328.345       -5.612      859.678
12/04/2013  22:43:00       91.849       55.677        7.884       29.898       27.505       23.472      893.864      756.518      550.932        0.690        0.110      107.406       12.141        0.013      328.287       -5.705      859.684
12/04/2013  22:44:00       60.272       47.818       36.015       35.524       18.927       23.263     1261.955      358.243      541.181        0.469        0.108       76.937       13.934        0.033      328.340       -5.620      859.698
12/04/2013  22:45:00       78.942       50.844       35.295       25.695       17.514       19.812      660.258      306.739      392.529        0.571        0.068       93.899       10.238        0.012      328.344       -5.612      859.704
12/04/2013  22:46:00       78.919       51.768        9.465       20.383       21.828       23.311      415.457      476.455      543.420        0.522        0.072       94.382       13.230        0.020      328.295       -5.692      859.712
12/04/2013  22:47:00       65.928       42.361       -0.711       20.175       16.035       21.232      407.018      257.111      450.793        0.363        0.056       78.364        9.299        0.014      328.297       -5.690      859.718
12/04/2013  22:48:00       61.626       39.005        8.241       19.758       19.130       18.372      390.375      365.973      337.518        0.324        0.055       72.932       13.303        0.033      328.315       -5.660      859.726
12/04/2013  22:49:00       41.852       74.024       -7.834       22.507       37.251       20.557      506.551     1387.615      422.585        0.480        0.116       85.036       22.889        0.072      328.323       -5.647      859.733
12/04/2013  22:50:00       25.839      108.193      -12.963       25.197       41.802       17.240      634.888     1747.423      297.234        0.761        0.134      111.235       19.080        0.029      328.283       -5.712      859.737
12/04/2013  22:51:00       92.325       67.961       -2.891       49.601       44.931       30.014     2460.299     2018.836      900.869        0.926        0.269      114.641       29.438        0.066      328.280       -5.717      859.742
12/04/2013  22:52:00       41.954       29.181       17.587       41.356       28.302       24.626     1710.317      800.977      606.425        0.302        0.156       51.105       17.821        0.122      328.328       -5.638      859.753
12/04/2013  22:53:00       87.753       67.396       -1.898       49.122       30.001       30.341     2412.956      900.079      920.571        0.824        0.212      110.647       22.429        0.041      328.287       -5.705      859.761
12/04/2013  22:54:00       43.652       34.630        9.315       28.239       29.677       23.692      797.418      880.710      561.292        0.271        0.112       55.720       16.977        0.093      328.304       -5.677      859.764
12/04/2013  22:55:00       29.720       46.515       -0.517       31.879       26.999       17.599     1016.298      728.966      309.732        0.255        0.103       55.199       14.340        0.067      328.333       -5.630      859.768
12/04/2013  22:56:00       22.398       56.148        1.196       27.407       30.690       23.895      751.144      941.879      570.969        0.296        0.113       60.451       19.635        0.106      328.330       -5.636      859.777
12/04/2013  22:57:00       28.202      104.676      -10.581       29.954       38.067       27.480      897.224     1449.116      755.148        0.748        0.155      108.408       23.696        0.048      328.276       -5.723      859.783
12/04/2013  22:58:00        9.883       98.052       -7.999       25.097       38.816       16.177      629.837     1506.643      261.709        0.609        0.120       98.549       19.044        0.037      328.269       -5.734      859.791
12/04/2013  22:59:00       11.510       97.021      -13.641       16.479       21.407       17.310      271.552      458.250      299.623        0.538        0.051       97.701       12.052        0.015      328.279       -5.718      859.804
12/04/2013  23:00:00       11.305       69.590      -11.160       16.819       40.714       12.865      282.869     1657.651      165.502        0.360        0.105       70.503       13.963        0.039      328.307       -5.671      859.820
12/04/2013  23:01:00       31.598       75.084       -4.263       26.518       32.727       22.901      703.214     1071.060      524.437        0.448        0.115       81.462       24.319        0.089      328.291       -5.699      859.827
12/04/2013  23:02:00       48.217       34.905        2.526       17.849       20.588       16.846      318.600      423.867      283.790        0.229        0.051       59.525       13.318        0.050      328.303       -5.678      859.823
12/04/2013  23:03:00        9.087       87.362       -4.985       19.163       37.384       18.373      367.207     1397.582      337.584        0.492        0.105       87.833       17.880        0.041      328.304       -5.676      859.820
12/04/2013  23:04:00      -13.587      107.653       -8.617       15.590       33.763       13.972      243.058     1139.950      195.211        0.671        0.079      108.507       15.087        0.019      328.311       -5.666      859.814
12/04/2013  23:05:00       -1.281       63.817        0.706       27.867       32.997       18.077      776.583     1088.787      326.793        0.313        0.110       63.830       18.557        0.085      328.417       -5.493      859.806
12/04/2013  23:06:00        1.182       24.762        7.790       25.812       28.078       18.134      666.240      788.377      328.829        0.123        0.089       24.790       14.841        0.358      328.427       -5.476      859.801
12/04/2013  23:07:00       21.048       21.002        2.435       16.808       15.384       12.990      282.513      236.662      168.735        0.079        0.034       29.734        8.091        0.074      328.426       -5.479      859.798
12/04/2013  23:08:00       20.381       33.750       -5.887       15.319       16.761       11.997      234.684      280.939      143.919        0.112        0.033       39.427       10.349        0.069      328.402       -5.518      859.794
12/04/2013  23:09:00       50.145       35.994        1.885       17.510       20.755       14.272      306.614      430.782      203.699        0.238        0.047       61.726       12.746        0.043      328.401       -5.518      859.797
12/04/2013  23:10:00       58.303       29.479        1.546       14.666       15.365       14.041      215.093      236.098      197.139        0.246        0.032       65.332        9.034        0.019      328.419       -5.489      859.799
12/04/2013  23:11:00       61.003       29.924       -1.628       25.968       24.481       19.801      674.358      599.296      392.075        0.314        0.083       67.947       10.137        0.022      328.370       -5.571      859.804
12/04/2013  23:12:00       44.978       38.177        1.264       29.417       19.180       16.689      865.354      367.865      278.530        0.250        0.076       58.996       14.566        0.061      328.384       -5.547      859.808
12/04/2013  23:13:00       79.518       48.978       15.331       36.979       22.665       25.102     1367.449      513.718      630.125        0.573        0.126       93.391       18.525        0.039      328.338       -5.621      859.814
12/04/2013  23:14:00       48.515       47.309        2.258       47.745       28.305       22.261     2279.583      801.197      495.533        0.409        0.179       67.763       19.935        0.087      328.361       -5.585      859.822
12/04/2013  23:15:00       93.466       63.062       23.857       23.347       18.214       19.561      545.092      331.762      382.626        0.727        0.063      112.751       14.896        0.017      328.300       -5.682      859.825
12/04/2013  23:16:00       62.668       63.877        8.909       43.648       36.312       24.520     1905.146     1318.561      601.241        0.596        0.191       89.485       17.351        0.038      328.334       -5.629      859.827
12/04/2013  23:17:00       37.347       38.457        1.909       28.226       29.458       18.621      796.711      867.775      346.745        0.244        0.101       53.607       16.359        0.093      328.345       -5.611      859.833
12/04/2013  23:18:00       37.114       38.826        0.652       32.740       20.785       17.649     1071.910      432.029      311.505        0.235        0.091       53.712       18.550        0.119      328.335       -5.628      859.837
12/04/2013  23:19:00       14.200       32.337       -2.234       16.848       18.214       15.034      283.863      331.743      226.032        0.105        0.042       35.318       14.601        0.171      328.379       -5.555      859.835
12/04/2013  23:20:00       26.451       43.468       -5.223       15.484       19.860       12.295      239.744      394.431      151.162        0.170        0.039       50.883       10.828        0.045      328.358       -5.589      859.834
12/04/2013  23:21:00       39.414       31.755       10.386       39.274       28.508       19.032     1542.477      812.679      362.225        0.269        0.136       50.615       17.477        0.119      328.386       -5.543      859.834
12/04/2013  23:22:00       63.376       43.668        3.458       17.452       20.197       23.063      304.578      407.905      531.899        0.359        0.062       76.964       14.484        0.035      328.329       -5.637      859.831
12/04/2013  23:23:00        4.085       36.612       -2.011       16.915       31.691       17.052      286.130     1004.300      290.764        0.147        0.079       36.839       19.756        0.288      328.381       -5.553      859.827
12/04/2013  23:24:00       25.978       35.024        5.660       20.002       32.518       16.705      400.087     1057.399      279.060        0.183        0.087       43.607       17.751        0.166      328.400       -5.520      859.832
12/04/2013  23:25:00       28.570       49.618        0.927       23.859       23.513       21.810      569.250      552.872      475.675        0.244        0.080       57.256       19.492        0.116      328.331       -5.633      859.836
12/04/2013  23:26:00       28.549       35.787        1.262       19.172       24.424       17.589      367.558      596.509      309.370        0.169        0.064       45.779       12.024        0.069      328.343       -5.615      859.834
12/04/2013  23:27:00       60.782       37.684       16.312       23.444       15.106       17.464      549.614      228.198      304.977        0.323        0.054       71.516        7.683        0.012      328.405       -5.512      859.829
12/04/2013  23:28:00       76.655       42.473       10.843       29.323       18.684       24.357      859.860      349.084      593.279        0.480        0.090       87.636       22.142        0.064      328.400       -5.521      859.824
12/04/2013  23:29:00       74.028       58.450       21.673       20.313       17.709       24.327      412.630      313.615      591.797        0.534        0.066       94.322       10.707        0.013      328.399       -5.521      859.822
12/04/2013  23:30:00       85.181       63.357       -2.358       25.918       15.630       21.432      671.727      244.308      459.344        0.633        0.069      106.160        5.507        0.003      328.379       -5.555      859.817
12/04/2013  23:31:00       62.605       45.472        9.229       15.244       17.471       14.373      232.368      305.247      206.572        0.341        0.037       77.376        9.912        0.016      328.352       -5.599      859.815
12/04/2013  23:32:00       56.127       53.205       22.260       23.123       14.423       16.955      534.673      208.009      287.462        0.375        0.052       77.337       10.020        0.017      328.361       -5.585      859.809
12/04/2013  23:33:00       39.401       42.542       30.382       20.942       18.452       17.022      438.568      340.478      289.732        0.268        0.053       57.985       14.711        0.064      328.433       -5.467      859.800
12/04/2013  23:34:00       53.305       36.765       -2.859       33.763       18.777       16.041     1139.919      352.569      257.305        0.298        0.087       64.754        8.136        0.016      328.376       -5.560      859.794
12/04/2013  23:35:00       16.962       51.304       -4.394       12.330       31.006       16.365      152.018      961.388      267.809        0.216        0.069       54.035       20.383        0.142      328.418       -5.492      859.779
12/04/2013  23:36:00       51.223       35.049       -2.100       28.274       16.384       13.891      799.424      268.431      192.962        0.256        0.063       62.067       10.401        0.028      328.408       -5.508      859.778
12/04/2013  23:37:00        1.617       56.883       -9.698       16.842       19.096       10.368      283.656      364.667      107.501        0.204        0.038       56.906        6.250        0.012      328.365       -5.578      859.775
12/04/2013  23:38:00       -9.529       56.760       -0.350       32.919       52.207       23.783     1083.642     2725.568      565.642        0.384        0.219       57.555       20.011        0.121      328.459       -5.424      859.761
12/04/2013  23:39:00      -21.826       93.389      -10.116       38.787       41.721       22.875     1504.445     1740.675      523.251        0.653        0.188       95.905       18.396        0.037      328.616       -5.170      859.759
12/04/2013  23:40:00        7.850      104.652      -10.077       43.351       54.182       19.831     1879.338     2935.666      393.268        0.816        0.260      104.946       21.543        0.042      328.358       -5.589      859.756
12/04/2013  23:41:00       18.695      129.448      -15.035       28.838       44.721       30.743      831.641     1999.992      945.110        1.055        0.189      130.791       29.452        0.051      328.322       -5.647      859.755
12/04/2013  23:42:00       19.766       86.256       -4.279       33.841       36.044       27.849     1145.205     1299.146      775.594        0.553        0.161       88.492       13.034        0.022      328.333       -5.631      859.758
12/04/2013  23:43:00       16.148       43.355        2.052       31.587       38.008       29.832      997.715     1444.631      889.921        0.274        0.167       46.265       21.718        0.220      328.360       -5.586      859.751
12/04/2013  23:44:00       13.763       93.120      -12.389       16.919       31.521       18.116      286.267      993.592      328.172        0.531        0.080       94.131       15.498        0.027      328.318       -5.656      859.757
12/04/2013  23:45:00       30.781       52.883        2.958       38.285       36.845       28.276     1465.722     1357.537      799.516        0.369        0.181       61.189       29.468        0.232      328.374       -5.563      859.761
12/04/2013  23:46:00       89.627       70.281        7.442       92.719       60.921       43.325     8596.872     3711.412     1877.095        1.360        0.709      113.896       36.633        0.103      328.307       -5.673      859.761
12/04/2013  23:47:00       86.819       45.586       11.211       71.804       51.727       30.688     5155.764     2675.707      941.731        0.926        0.439       98.059       22.628        0.053      328.330       -5.635      859.763
12/04/2013  23:48:00       41.287      129.284      -16.054       51.678       81.692       40.113     2670.650     6673.550     1609.036        1.481        0.548      135.716       44.439        0.107      328.286       -5.708      859.758
12/04/2013  23:49:00       48.526       83.055       -0.287       38.596       58.515       37.694     1489.674     3423.992     1420.826        0.779        0.317       96.192       37.122        0.149      328.284       -5.710      859.743
12/04/2013  23:50:00       92.557       72.311        4.204       35.371       29.327       34.583     1251.116      860.066     1195.991        0.856        0.165      117.455       24.065        0.042      328.307       -5.671      859.719
12/04/2013  23:51:00       76.803       45.786       15.977       32.846       26.467       34.444     1078.871      700.518     1186.375        0.561        0.148       89.415       22.387        0.063      328.354       -5.596      859.696
12/04/2013  23:52:00       57.855       78.937       79.441       36.382       31.170       25.209     1323.654      971.572      635.484        0.941        0.147       97.868       18.806        0.037      328.357       -5.592      859.673
12/04/2013  23:53:00       84.544       78.228       51.493       41.567       35.409       42.247     1727.842     1253.786     1784.825        1.034        0.238      115.184       31.365        0.074      328.334       -5.629      859.657
12/04/2013  23:54:00       74.360       49.324       20.378       45.247       27.293       36.814     2047.271      744.911     1355.272        0.626        0.207       89.232       16.959        0.036      328.332       -5.634      859.649
12/04/2013  23:55:00       82.138       44.019        4.240       15.274       17.729       14.723      233.300      314.304      216.756        0.473        0.038       93.190        5.543        0.004      328.287       -5.703      859.646
12/04/2013  23:56:00       66.915       32.327       10.271       20.674       19.443       19.861      427.422      378.045      394.475        0.341        0.060       74.314       12.822        0.030      328.340       -5.618      859.646
12/04/2013  23:57:00       26.654       29.091       31.406       21.372       14.074       10.956      456.751      198.064      120.028        0.166        0.039       39.455        7.545        0.037      328.415       -5.497      859.635
12/04/2013  23:58:00       19.508       35.119       46.689       37.250       32.528       25.026     1387.546     1058.083      626.323        0.343        0.154       40.173       24.122        0.361      328.451       -5.438      859.632
12/04/2013  23:59:00       46.706       48.704       16.537       52.486       32.863       33.204     2754.730     1079.983     1102.537        0.488        0.247       67.480       17.286        0.066      328.378       -5.557      859.634
